[[{"header":{"parameterUnit":"m.s-1","parameterCategory":1,"la1":31.0,"la2":29.5877,"lo1":-88.7671,"lo2":-86.6584,"dy":0.0162,"dx":0.0185,"nx":115,"ny":88,"refTime":"2025-01-04T06:00:00:Z","depth":0,"parameterNumber":2,"parameterNumberName":"U-component_of_WINDS"},"data":[0.0,0.0,0.0,0.0,0.0,0.0,0.0,0.0,0.0,0.0,0.0,0.0,0.0,0.0,0.0,0.0,0.0,0.0,0.0,0.0,0.0,0.0,0.0,0.0,0.0,0.0,0.0,0.0,0.0,0.0,0.0,0.0,0.0,0.0,0.0,0.0,0.0,0.0,0.0,0.0,0.0,0.0,0.0,0.0,0.0,0.0,0.0,0.0,0.0,0.0,0.0,0.0,0.0,0.0,0.0,0.0,0.0,0.0,0.0,0.0,0.0,0.0,0.0,0.0,0.0,0.0,0.0,0.0,0.0,0.0,0.0,0.0,0.0,0.0,0.0,0.0,0.0,0.0,0.0,0.0,0.0,0.0,0.0,0.0,0.0,0.0,0.0,0.0,0.0,0.0,0.0,0.0,0.0,0.0,0.0,0.0,0.0,0.0,0.0,0.0,0.0,0.0,0.0,0.0,0.0,0.0,0.0,0.0,0.0,0.0,0.0,0.0,0.0,0.0,0.0,0.0,0.0,0.0,0.0,0.0,0.0,0.0,0.0,0.0,0.0,0.0,0.0,0.0,0.0,0.0,0.0,0.0,0.0,0.0,0.0,0.0,0.0,0.0,0.0,0.0,0.0,0.0,0.0,0.0,0.0,0.0,0.0,0.0,0.0,0.0,0.0,0.0,0.0,0.0,0.0,0.0,0.0,0.0,0.0,0.0,0.0,0.0,0.0,0.0,0.0,0.0,0.0,0.0,0.0,0.0,0.0,0.0,0.0,0.0,0.0,0.0,0.0,0.0,0.0,0.0,0.0,0.0,0.0,0.0,0.0,0.0,0.0,0.0,0.0,0.0,0.0,0.0,0.0,0.0,0.0,0.0,0.0,0.0,0.0,0.0,0.0,0.0,0.0,0.0,0.0,0.0,0.0,0.0,0.0,0.0,0.0,0.0,0.0,0.0,0.0,0.0,0.0,0.0,0.0,0.0,0.0,0.0,0.0,0.0,0.0,0.0,0.0,0.0,0.0,0.0,0.0,0.0,0.0,0.0,0.0,0.0,0.0,0.0,0.0,0.0,0.0,0.0,0.0,0.0,0.0,0.0,0.0,0.0,0.0,0.0,0.0,0.0,0.0,0.0,0.0,0.0,0.0,0.0,0.0,0.0,0.0,0.0,0.0,0.0,0.0,0.0,0.0,0.0,0.0,0.0,0.0,0.0,0.0,0.0,0.0,0.0,0.0,0.0,0.0,0.0,0.0,0.0,0.0,0.0,0.0,0.0,0.0,0.0,0.0,0.0,0.0,0.0,0.0,0.0,0.0,0.0,0.0,0.0,0.0,0.0,0.0,0.0,0.0,0.0,0.0,0.0,0.0,0.0,0.0,0.0,0.0,0.0,0.0,0.0,0.0,0.0,0.0,0.0,0.0,0.0,0.0,0.0,0.0,0.0,0.0,0.0,0.0,0.0,0.0,0.0,0.0,0.0,0.0,0.0,0.0,0.0,0.0,0.0,0.0,0.0,0.0,0.0,0.0,0.0,0.0,0.0,0.0,0.0,0.0,0.0,0.0,0.0,0.0,0.0,0.0,0.0,0.0,0.0,0.0,0.0,0.0,0.0,0.0,0.0,0.0,0.0,0.0,0.0,0.0,0.0,0.0,0.0,0.0,0.0,0.0,0.0,0.0,0.0,0.0,0.0,0.0,0.0,0.0,0.0,0.0,0.0,0.0,0.0,0.0,0.0,0.0,0.0,0.0,0.0,0.0,0.0,0.0,0.0,0.0,0.0,0.0,0.0,0.0,0.0,0.0,0.0,0.0,0.0,0.0,0.0,0.0,0.0,0.0,0.0,0.0,0.0,0.0,0.0,0.0,0.0,0.0,0.0,0.0,0.0,0.0,0.0,0.0,0.0,0.0,0.0,0.0,0.0,0.0,0.0,0.0,0.0,0.0,0.0,0.0,0.0,0.0,0.0,0.0,0.0,0.0,0.0,0.0,0.0,0.0,0.0,0.0,0.0,0.0,0.0,0.0,0.0,0.0,0.0,0.0,0.0,0.0,0.0,0.0,0.0,0.0,0.0,0.0,0.0,0.0,0.0,0.0,0.0,0.0,0.0,0.0,0.0,0.0,0.0,0.0,0.0,0.0,0.0,0.0,0.0,0.0,0.0,0.0,0.0,0.0,0.0,0.0,0.0,0.0,0.0,0.0,0.0,0.0,0.0,0.0,0.0,0.0,0.0,0.0,0.0,0.0,0.0,0.0,0.0,0.0,0.0,0.0,0.0,0.0,0.0,0.0,0.0,0.0,0.0,0.0,0.0,0.0,0.0,0.0,0.0,0.0,0.0,0.0,0.0,0.0,0.0,0.0,0.0,0.0,0.0,0.0,0.0,0.0,0.0,0.0,0.0,0.0,0.0,0.0,0.0,0.0,0.0,0.0,0.0,0.0,0.0,0.0,0.0,0.0,0.0,0.0,0.0,0.0,0.0,0.0,0.0,0.0,0.0,0.0,0.0,0.0,0.0,0.0,0.0,0.0,0.0,0.0,0.0,0.0,0.0,0.0,0.0,0.0,0.0,0.0,0.0,0.0,0.0,0.0,0.0,0.0,0.0,0.0,0.0,0.0,0.0,0.0,0.0,0.0,0.0,0.0,0.0,0.0,0.0,0.0,0.0,0.0,0.0,0.0,0.0,0.0,0.0,0.0,0.0,0.0,0.0,0.0,0.0,0.0,0.0,0.0,0.0,0.0,0.0,0.0,0.0,0.0,0.0,0.0,0.0,0.0,0.0,0.0,0.0,0.0,0.0,0.0,0.0,0.0,0.0,0.0,0.0,0.0,0.0,0.0,0.0,0.0,0.0,0.0,0.0,0.0,0.0,0.0,0.0,0.0,0.0,0.0,0.0,0.0,0.0,0.0,0.0,0.0,0.0,0.0,0.0,0.0,0.0,0.0,0.0,0.0,0.0,0.0,0.0,0.0,0.0,0.0,0.0,0.0,0.0,0.0,0.0,0.0,0.0,0.0,0.0,0.0,0.0,0.0,0.0,0.0,0.0,0.0,0.0,0.0,0.0,0.0,0.0,0.0,0.0,0.0,0.0,0.0,0.0,0.0,0.0,0.0,0.0,0.0,0.0,0.0,0.0,0.0,0.0,0.0,0.0,0.0,0.0,0.0,0.0,0.0,0.0,0.0,0.0,0.0,0.0,0.0,0.0,0.0,0.0,0.0,0.0,0.0,0.0,0.0,0.0,0.0,0.0,0.0,0.0,0.0,0.0,0.0,0.0,0.0,0.0,0.0,0.0,0.0,0.0,0.0,0.0,0.0,0.0,0.0,0.0,0.0,0.0,0.0,0.0,0.0,0.0,0.0,0.0,0.0,0.0,0.0,0.0,0.0,0.0,0.0,0.0,0.0,0.0,0.0,0.0,0.0,0.0,0.0,0.0,0.0,0.0,0.0,0.0,0.0,0.0,0.0,0.0,0.0,0.0,0.0,0.0,0.0,0.0,0.0,0.0,0.0,0.0,0.0,0.0,0.0,0.0,0.0,0.0,0.0,0.0,0.0,0.0,0.0,0.0,0.0,0.0,0.0,0.0,0.0,0.0,0.0,0.0,0.0,0.0,0.0,0.0,0.0,0.0,0.0,0.0,0.0,0.0,0.0,0.0,0.0,0.0,0.0,0.0,0.0,0.0,0.0,0.0,0.0,0.0,0.0,0.0,0.0,0.0,0.0,0.0,0.0,0.0,0.0,0.0,0.0,0.0,0.0,0.0,0.0,0.0,0.0,0.0,0.0,0.0,0.0,0.0,0.0,0.0,0.0,0.0,0.0,0.0,0.0,0.0,0.0,0.0,0.0,0.0,0.0,0.0,0.0,0.0,0.0,0.0,0.0,0.0,0.0,0.0,0.0,0.0,0.0,0.0,0.0,0.0,0.0,0.0,0.0,0.0,0.0,0.0,0.0,0.0,0.0,0.0,0.0,0.0,0.0,0.0,0.0,0.0,0.0,0.0,0.0,0.0,0.0,0.0,0.0,0.0,0.0,0.0,0.0,0.0,0.0,0.0,0.0,0.0,0.0,0.0,0.0,0.0,0.0,0.0,0.0,0.0,0.0,0.0,0.0,0.0,0.0,0.0,0.0,0.0,0.0,0.0,0.0,0.0,0.0,0.0,0.0,0.0,0.0,0.0,0.0,0.0,0.0,0.0,0.0,0.0,0.0,0.0,0.0,0.0,0.0,0.0,0.0,0.0,0.0,0.0,0.0,0.0,0.0,0.0,0.0,0.0,0.0,0.0,3.3457,0.0,0.0,0.0,0.0,0.0,0.0,0.0,0.0,0.0,0.0,0.0,0.0,0.0,0.0,0.0,0.0,0.0,0.0,0.0,0.0,0.0,0.0,0.0,0.0,0.0,0.0,0.0,0.0,0.0,0.0,0.0,0.0,0.0,0.0,0.0,0.0,0.0,0.0,0.0,0.0,0.0,0.0,0.0,0.0,0.0,0.0,0.0,0.0,0.0,0.0,0.0,0.0,0.0,0.0,0.0,0.0,0.0,0.0,0.0,0.0,0.0,0.0,0.0,0.0,0.0,0.0,0.0,0.0,0.0,0.0,0.0,0.0,0.0,0.0,0.0,0.0,0.0,0.0,0.0,0.0,0.0,0.0,0.0,0.0,0.0,0.0,0.0,0.0,0.0,0.0,0.0,0.0,0.0,0.0,0.0,0.0,0.0,0.0,0.0,0.0,0.0,0.0,0.0,0.0,0.0,0.0,0.0,0.0,0.0,0.0,3.6016,3.6016,3.6016,3.5176,3.3476,0.0,0.0,0.0,0.0,0.0,0.0,0.0,0.0,0.0,0.0,0.0,0.0,0.0,0.0,0.0,0.0,0.0,0.0,0.0,0.0,0.0,0.0,0.0,0.0,0.0,0.0,0.0,0.0,0.0,0.0,0.0,0.0,0.0,0.0,0.0,0.0,0.0,0.0,0.0,0.0,0.0,0.0,0.0,0.0,0.0,0.0,0.0,0.0,0.0,0.0,0.0,0.0,0.0,0.0,0.0,0.0,0.0,0.0,0.0,0.0,0.0,0.0,0.0,0.0,0.0,0.0,0.0,0.0,0.0,0.0,0.0,0.0,0.0,0.0,0.0,0.0,0.0,0.0,0.0,0.0,0.0,0.0,0.0,0.0,0.0,0.0,0.0,0.0,0.0,0.0,0.0,0.0,0.0,0.0,0.0,0.0,0.0,0.0,0.0,0.0,0.0,0.0,0.0,0.0,0.0,0.0,0.0,0.0,0.0,0.0,0.0,0.0,3.6289,3.5488,3.375,0.0,0.0,0.0,0.0,0.0,0.0,0.0,0.0,0.0,0.0,0.0,0.0,0.0,0.0,0.0,0.0,0.0,0.0,0.0,0.0,0.0,0.0,0.0,0.0,0.0,0.0,0.0,0.0,0.0,0.0,0.0,0.0,0.0,0.0,0.0,0.0,0.0,0.0,0.0,0.0,0.0,0.0,0.0,0.0,0.0,0.0,0.0,0.0,0.0,0.0,0.0,0.0,0.0,0.0,0.0,0.0,0.0,0.0,0.0,0.0,0.0,0.0,0.0,0.0,0.0,0.0,0.0,0.0,0.0,0.0,0.0,0.0,0.0,0.0,0.0,0.0,0.0,0.0,0.0,0.0,0.0,0.0,0.0,0.0,0.0,0.0,0.0,0.0,0.0,0.0,0.0,0.0,0.0,0.0,0.0,0.0,0.0,0.0,0.0,0.0,0.0,0.0,0.0,0.0,0.0,0.0,0.0,0.0,0.0,0.0,3.6387,3.7148,3.7168,0.0,3.4687,0.0,0.0,0.0,0.0,0.0,0.0,0.0,0.0,0.0,0.0,0.0,0.0,0.0,0.0,0.0,0.0,0.0,0.0,0.0,0.0,0.0,0.0,0.0,0.0,0.0,0.0,0.0,0.0,0.0,0.0,0.0,0.0,0.0,0.0,0.0,0.0,0.0,0.0,0.0,0.0,0.0,0.0,0.0,0.0,0.0,0.0,0.0,0.0,0.0,0.0,0.0,0.0,0.0,0.0,0.0,0.0,0.0,0.0,0.0,0.0,0.0,0.0,0.0,0.0,0.0,0.0,0.0,0.0,0.0,0.0,0.0,0.0,0.0,0.0,0.0,0.0,0.0,0.0,0.0,0.0,0.0,0.0,0.0,0.0,0.0,0.0,0.0,0.0,0.0,0.0,0.0,0.0,0.0,0.0,0.0,0.0,0.0,0.0,0.0,0.0,0.0,0.0,0.0,0.0,0.0,0.0,0.0,0.0,0.0,0.0,0.0,3.7285,3.6309,3.543,0.0,0.0,0.0,0.0,0.0,0.0,0.0,0.0,0.0,0.0,0.0,0.0,0.0,0.0,0.0,0.0,0.0,0.0,0.0,0.0,0.0,0.0,0.0,0.0,0.0,0.0,0.0,0.0,0.0,0.0,0.0,0.0,0.0,0.0,0.0,0.0,0.0,0.0,0.0,0.0,0.0,0.0,0.0,0.0,0.0,0.0,0.0,0.0,0.0,0.0,0.0,0.0,0.0,0.0,0.0,0.0,0.0,0.0,0.0,0.0,0.0,0.0,0.0,0.0,0.0,0.0,0.0,0.0,0.0,0.0,0.0,0.0,0.0,0.0,0.0,0.0,0.0,0.0,0.0,0.0,0.0,0.0,0.0,0.0,0.0,0.0,0.0,0.0,0.0,0.0,0.0,0.0,0.0,0.0,0.0,0.0,0.0,0.0,0.0,0.0,0.0,0.0,0.0,0.0,0.0,0.0,0.0,0.0,0.0,0.0,3.7109,0.0,3.7559,3.6191,3.5195,3.4726,0.0,0.0,0.0,0.0,0.0,0.0,0.0,0.0,0.0,0.0,0.0,0.0,0.0,0.0,0.0,0.0,0.0,0.0,0.0,0.0,0.0,0.0,0.0,0.0,0.0,0.0,0.0,0.0,0.0,0.0,0.0,0.0,0.0,0.0,0.0,0.0,0.0,0.0,0.0,0.0,0.0,0.0,0.0,0.0,0.0,0.0,0.0,0.0,0.0,0.0,0.0,0.0,0.0,0.0,0.0,0.0,0.0,0.0,0.0,0.0,0.0,0.0,0.0,0.0,0.0,0.0,0.0,0.0,0.0,0.0,0.0,0.0,0.0,0.0,0.0,0.0,0.0,0.0,0.0,0.0,0.0,0.0,0.0,0.0,0.0,0.0,0.0,0.0,0.0,0.0,0.0,0.0,0.0,0.0,0.0,0.0,0.0,0.0,0.0,0.0,0.0,0.0,0.0,0.0,0.0,0.0,0.0,0.0,0.0,3.7695,3.7695,3.8476,3.7656,3.6406,0.0,0.0,0.0,0.0,0.0,0.0,0.0,0.0,0.0,0.0,0.0,0.0,0.0,0.0,0.0,0.0,0.0,0.0,0.0,0.0,0.0,0.0,0.0,0.0,0.0,0.0,0.0,0.0,0.0,0.0,0.0,0.0,0.0,0.0,0.0,0.0,0.0,0.0,0.0,0.0,0.0,0.0,0.0,0.0,0.0,0.0,0.0,0.0,0.0,0.0,0.0,0.0,0.0,0.0,0.0,0.0,0.0,0.0,0.0,0.0,0.0,0.0,0.0,0.0,0.0,0.0,0.0,0.0,0.0,0.0,0.0,0.0,0.0,0.0,0.0,0.0,0.0,0.0,0.0,0.0,0.0,0.0,0.0,0.0,0.0,0.0,0.0,0.0,0.0,0.0,0.0,0.0,0.0,0.0,0.0,0.0,0.0,0.0,0.0,0.0,0.0,0.0,0.0,0.0,0.0,0.0,0.0,0.0,0.0,3.6894,3.7168,3.7715,3.8496,3.668,3.5351,0.0,0.0,0.0,0.0,0.0,0.0,0.0,0.0,0.0,0.0,0.0,0.0,0.0,0.0,0.0,0.0,0.0,0.0,0.0,0.0,0.0,0.0,0.0,0.0,0.0,0.0,0.0,0.0,0.0,0.0,0.0,0.0,0.0,0.0,0.0,0.0,0.0,0.0,0.0,0.0,0.0,0.0,0.0,0.0,0.0,0.0,0.0,0.0,0.0,0.0,0.0,0.0,0.0,0.0,0.0,0.0,0.0,0.0,0.0,0.0,0.0,0.0,0.0,0.0,0.0,0.0,0.0,0.0,0.0,0.0,0.0,0.0,0.0,0.0,0.0,0.0,0.0,0.0,0.0,0.0,0.0,0.0,0.0,0.0,0.0,0.0,0.0,0.0,0.0,0.0,0.0,0.0,0.0,0.0,0.0,0.0,0.0,0.0,0.0,0.0,0.0,0.0,0.0,0.0,0.0,0.0,0.0,0.0,0.0,3.6836,0.0,3.8008,0.0,3.6055,3.457,0.0,0.0,0.0,0.0,0.0,0.0,0.0,0.0,0.0,0.0,0.0,0.0,0.0,0.0,0.0,0.0,0.0,0.0,0.0,0.0,0.0,0.0,0.0,0.0,0.0,0.0,0.0,0.0,0.0,0.0,0.0,0.0,0.0,0.0,0.0,0.0,0.0,0.0,0.0,0.0,0.0,0.0,0.0,0.0,0.0,0.0,0.0,0.0,0.0,0.0,0.0,0.0,0.0,0.0,0.0,0.0,0.0,0.0,0.0,0.0,0.0,0.0,0.0,0.0,0.0,0.0,0.0,0.0,0.0,0.0,0.0,0.0,0.0,0.0,0.0,0.0,0.0,0.0,0.0,0.0,0.0,0.0,0.0,0.0,0.0,0.0,0.0,0.0,0.0,0.0,0.0,0.0,0.0,0.0,0.0,0.0,0.0,0.0,0.0,0.0,0.0,0.0,0.0,0.0,0.0,0.0,0.0,0.0,0.0,3.8457,3.8496,3.8476,3.8535,3.6074,3.4316,0.0,0.0,0.0,0.0,0.0,0.0,0.0,0.0,0.0,0.0,0.0,0.0,0.0,0.0,0.0,0.0,0.0,0.0,0.0,0.0,0.0,0.0,0.0,0.0,0.0,0.0,0.0,0.0,0.0,0.0,0.0,0.0,0.0,0.0,0.0,0.0,0.0,0.0,0.0,0.0,0.0,0.0,0.0,0.0,0.0,0.0,0.0,0.0,0.0,0.0,0.0,0.0,0.0,0.0,0.0,0.0,0.0,0.0,0.0,0.0,0.0,0.0,0.0,0.0,0.0,0.0,0.0,0.0,0.0,0.0,0.0,0.0,0.0,0.0,0.0,0.0,0.0,0.0,0.0,0.0,0.0,0.0,0.0,0.0,0.0,0.0,0.0,0.0,0.0,0.0,0.0,0.0,0.0,0.0,0.0,0.0,0.0,0.0,0.0,0.0,0.0,0.0,0.0,0.0,0.0,0.0,0.0,0.0,0.0,3.7656,3.7109,3.7383,3.8457,3.6074,3.457,0.0,0.0,0.0,0.0,0.0,0.0,0.0,0.0,0.0,0.0,0.0,0.0,0.0,0.0,0.0,0.0,0.0,0.0,0.0,0.0,0.0,0.0,0.0,0.0,0.0,0.0,0.0,0.0,0.0,0.0,0.0,0.0,0.0,0.0,0.0,0.0,0.0,0.0,0.0,0.0,0.0,0.0,0.0,0.0,0.0,0.0,0.0,0.0,0.0,0.0,0.0,0.0,0.0,0.0,0.0,0.0,0.0,0.0,0.0,0.0,0.0,0.0,0.0,0.0,0.0,0.0,0.0,0.0,0.0,0.0,0.0,0.0,0.0,0.0,0.0,0.0,0.0,0.0,0.0,0.0,0.0,0.0,0.0,0.0,0.0,0.0,0.0,0.0,0.0,0.0,0.0,0.0,0.0,0.0,0.0,0.0,0.0,0.0,0.0,0.0,0.0,0.0,0.0,0.0,0.0,0.0,0.0,0.0,0.0,3.7754,3.7246,3.748,3.8594,3.6367,3.5039,3.4687,0.0,0.0,0.0,0.0,0.0,0.0,0.0,0.0,0.0,0.0,0.0,0.0,0.0,0.0,0.0,0.0,0.0,0.0,0.0,0.0,0.0,0.0,0.0,0.0,0.0,0.0,0.0,0.0,0.0,0.0,0.0,0.0,0.0,0.0,0.0,0.0,0.0,0.0,0.0,0.0,0.0,0.0,0.0,0.0,0.0,0.0,0.0,0.0,0.0,0.0,0.0,0.0,0.0,0.0,0.0,0.0,0.0,0.0,0.0,0.0,0.0,0.0,0.0,0.0,0.0,0.0,0.0,0.0,0.0,0.0,0.0,0.0,0.0,0.0,0.0,0.0,0.0,0.0,0.0,0.0,0.0,0.0,0.0,0.0,0.0,0.0,0.0,0.0,0.0,0.0,0.0,0.0,0.0,0.0,0.0,0.0,0.0,0.0,0.0,0.0,0.0,0.0,0.0,0.0,0.0,0.0,0.0,0.0,3.8672,3.8672,3.8672,3.8652,3.6992,3.5644,0.0,0.0,0.0,0.0,0.0,0.0,0.0,0.0,0.0,0.0,0.0,0.0,0.0,0.0,0.0,0.0,0.0,0.0,0.0,0.0,0.0,0.0,0.0,0.0,0.0,0.0,0.0,0.0,0.0,0.0,0.0,0.0,0.0,0.0,0.0,0.0,0.0,0.0,0.0,0.0,0.0,0.0,0.0,0.0,0.0,0.0,0.0,0.0,0.0,0.0,0.0,0.0,0.0,0.0,0.0,0.0,0.0,0.0,0.0,0.0,0.0,0.0,0.0,0.0,0.0,0.0,0.0,0.0,0.0,0.0,0.0,0.0,0.0,0.0,0.0,0.0,0.0,0.0,0.0,0.0,0.0,0.0,0.0,0.0,0.0,0.0,0.0,0.0,0.0,0.0,0.0,0.0,0.0,0.0,0.0,0.0,0.0,0.0,0.0,0.0,0.0,0.0,0.0,0.0,0.0,0.0,0.0,0.0,0.0,3.9473,3.957,3.957,3.9531,3.7851,3.6543,0.0,0.0,0.0,0.0,0.0,0.0,0.0,0.0,0.0,0.0,0.0,0.0,0.0,0.0,0.0,0.0,0.0,0.0,0.0,0.0,0.0,0.0,0.0,0.0,0.0,0.0,0.0,0.0,0.0,0.0,0.0,0.0,0.0,0.0,0.0,0.0,0.0,0.0,0.0,0.0,0.0,0.0,0.0,0.0,0.0,0.0,0.0,0.0,0.0,0.0,0.0,0.0,0.0,0.0,0.0,0.0,0.0,0.0,0.0,0.0,0.0,0.0,0.0,0.0,0.0,0.0,0.0,0.0,0.0,0.0,0.0,0.0,0.0,0.0,0.0,0.0,0.0,0.0,0.0,0.0,0.0,0.0,0.0,0.0,0.0,0.0,0.0,0.0,0.0,0.0,0.0,0.0,0.0,0.0,0.0,0.0,0.0,0.0,0.0,0.0,0.0,0.0,0.0,0.0,0.0,0.0,0.0,0.0,3.8516,3.9863,4.0254,4.0273,3.9902,3.8926,3.7793,0.0,0.0,0.0,0.0,0.0,0.0,0.0,0.0,0.0,0.0,0.0,0.0,0.0,0.0,0.0,0.0,0.0,0.0,0.0,0.0,0.0,0.0,0.0,0.0,0.0,0.0,0.0,0.0,0.0,0.0,0.0,0.0,0.0,0.0,0.0,0.0,0.0,0.0,0.0,0.0,0.0,0.0,0.0,0.0,0.0,0.0,0.0,0.0,0.0,0.0,0.0,0.0,0.0,0.0,0.0,0.0,0.0,0.0,0.0,0.0,0.0,0.0,0.0,0.0,0.0,0.0,0.0,0.0,0.0,0.0,0.0,0.0,0.0,0.0,0.0,0.0,0.0,0.0,0.0,0.0,0.0,0.0,0.0,0.0,0.0,0.0,0.0,0.0,0.0,0.0,0.0,0.0,0.0,0.0,0.0,0.0,0.0,0.0,0.0,0.0,0.0,0.0,0.0,0.0,0.0,0.0,0.0,0.0,3.916,4.0019,4.0781,4.082,4.0078,3.9844,3.8984,0.0,0.0,0.0,0.0,0.0,0.0,0.0,0.0,0.0,0.0,0.0,0.0,0.0,0.0,0.0,0.0,0.0,0.0,0.0,0.0,0.0,0.0,0.0,0.0,0.0,0.0,0.0,0.0,0.0,0.0,0.0,0.0,0.0,0.0,0.0,0.0,0.0,0.0,0.0,0.0,0.0,0.0,0.0,0.0,0.0,0.0,0.0,0.0,0.0,0.0,0.0,0.0,0.0,0.0,0.0,0.0,0.0,0.0,0.0,0.0,0.0,0.0,0.0,0.0,0.0,0.0,0.0,0.0,0.0,0.0,0.0,0.0,0.0,0.0,0.0,0.0,0.0,0.0,0.0,0.0,0.0,0.0,0.0,0.0,0.0,0.0,0.0,0.0,0.0,0.0,0.0,0.0,0.0,0.0,0.0,0.0,0.0,0.0,0.0,0.0,0.0,0.0,0.0,0.0,0.0,0.0,0.0,0.0,4.0039,4.0879,4.1094,4.1113,4.0918,3.959,3.8398,0.0,0.0,0.0,0.0,0.0,0.0,0.0,0.0,0.0,0.0,0.0,0.0,0.0,0.0,0.0,0.0,0.0,0.0,0.0,0.0,0.0,0.0,0.0,0.0,0.0,0.0,0.0,0.0,0.0,0.0,0.0,0.0,0.0,0.0,0.0,0.0,0.0,0.0,0.0,0.0,0.0,0.0,0.0,0.0,0.0,0.0,0.0,0.0,3.845,0.0,0.0,0.0,0.0,0.0,0.0,0.0,0.0,0.0,0.0,0.0,0.0,0.0,0.0,0.0,0.0,0.0,0.0,0.0,0.0,0.0,0.0,0.0,0.0,0.0,0.0,0.0,0.0,0.0,0.0,0.0,0.0,0.0,0.0,0.0,0.0,0.0,0.0,0.0,0.0,0.0,0.0,0.0,0.0,0.0,0.0,0.0,0.0,0.0,0.0,0.0,0.0,0.0,0.0,0.0,0.0,0.0,0.0,0.0,4.0312,4.1172,4.1191,4.1191,4.1152,3.9902,3.8809,0.0,0.0,0.0,0.0,0.0,0.0,0.0,0.0,0.0,0.0,0.0,0.0,0.0,0.0,0.0,0.0,0.0,0.0,0.0,0.0,0.0,0.0,0.0,0.0,0.0,0.0,0.0,0.0,0.0,0.0,0.0,0.0,0.0,0.0,0.0,0.0,0.0,0.0,0.0,0.0,0.0,0.0,0.0,0.0,0.0,0.0,0.0,0.0,0.0,0.0,0.0,0.0,0.0,0.0,0.0,0.0,0.0,0.0,0.0,0.0,0.0,0.0,0.0,0.0,0.0,0.0,0.0,0.0,0.0,0.0,0.0,0.0,0.0,0.0,0.0,0.0,0.0,0.0,0.0,0.0,0.0,0.0,0.0,0.0,0.0,0.0,0.0,0.0,0.0,0.0,0.0,0.0,0.0,0.0,0.0,0.0,0.0,0.0,0.0,0.0,0.0,0.0,0.0,0.0,0.0,0.0,0.0,3.9531,4.0312,4.1152,4.1191,4.1191,4.1191,4.0488,3.9629,3.8652,0.0,0.0,0.0,0.0,0.0,0.0,0.0,0.0,0.0,0.0,0.0,0.0,0.0,0.0,0.0,0.0,0.0,0.0,0.0,0.0,0.0,0.0,0.0,0.0,0.0,0.0,0.0,0.0,0.0,0.0,0.0,0.0,0.0,0.0,0.0,0.0,0.0,0.0,3.6974,3.8607,0.0,0.0,0.0,0.0,0.0,0.0,0.0,0.0,3.9948,0.0,0.0,0.0,0.0,0.0,0.0,0.0,0.0,0.0,0.0,0.0,0.0,0.0,0.0,0.0,0.0,0.0,0.0,0.0,0.0,0.0,0.0,0.0,0.0,0.0,0.0,0.0,0.0,0.0,0.0,0.0,0.0,0.0,0.0,0.0,0.0,0.0,0.0,0.0,0.0,0.0,0.0,0.0,0.0,0.0,0.0,0.0,0.0,0.0,0.0,0.0,0.0,0.0,0.0,0.0,0.0,3.9668,3.9824,4.0312,4.1172,4.1191,4.1191,4.1191,4.1055,4.0234,3.8672,0.0,0.0,0.0,0.0,0.0,0.0,0.0,0.0,0.0,0.0,0.0,0.0,0.0,0.0,0.0,0.0,0.0,0.0,0.0,0.0,0.0,0.0,0.0,0.0,0.0,0.0,0.0,0.0,0.0,0.0,0.0,0.0,0.0,0.0,0.0,0.0,0.0,0.0,0.0,4.0505,4.1363,0.0,0.0,0.0,0.0,0.0,0.0,0.0,0.0,3.9977,0.0,0.0,0.0,0.0,0.0,0.0,0.0,0.0,0.0,0.0,0.0,0.0,0.0,0.0,0.0,0.0,0.0,0.0,0.0,0.0,0.0,0.0,0.0,0.0,0.0,0.0,0.0,0.0,0.0,0.0,0.0,0.0,0.0,0.0,0.0,0.0,0.0,0.0,0.0,0.0,0.0,0.0,0.0,0.0,0.0,0.0,0.0,0.0,0.0,0.0,0.0,0.0,0.0,0.0,0.0,3.9219,4.0078,4.0742,4.1172,4.1191,4.1191,4.1191,4.0762,3.9902,0.0,0.0,0.0,0.0,0.0,0.0,0.0,0.0,0.0,0.0,0.0,0.0,0.0,0.0,0.0,0.0,0.0,0.0,0.0,0.0,0.0,0.0,0.0,0.0,0.0,0.0,0.0,0.0,0.0,0.0,0.0,0.0,0.0,0.0,0.0,0.0,0.0,0.0,0.0,0.0,4.0979,4.1759,4.0952,0.0,0.0,0.0,0.0,0.0,0.0,4.0169,4.021,0.0,0.0,0.0,0.0,0.0,0.0,0.0,0.0,0.0,0.0,0.0,0.0,0.0,0.0,0.0,0.0,0.0,0.0,0.0,0.0,0.0,0.0,0.0,0.0,0.0,0.0,0.0,0.0,0.0,0.0,0.0,0.0,0.0,0.0,0.0,0.0,0.0,0.0,0.0,0.0,0.0,0.0,0.0,0.0,0.0,0.0,0.0,0.0,0.0,0.0,0.0,0.0,0.0,0.0,0.0,3.8905,4.035,4.1308,4.166,4.1523,4.1445,4.1426,4.0625,3.9668,0.0,0.0,0.0,0.0,0.0,0.0,0.0,0.0,0.0,0.0,0.0,0.0,0.0,0.0,0.0,0.0,0.0,0.0,0.0,0.0,0.0,0.0,0.0,0.0,0.0,0.0,0.0,0.0,0.0,0.0,0.0,0.0,0.0,0.0,0.0,0.0,0.0,0.0,0.0,0.0,0.0,4.2494,4.1598,4.0597,0.0,0.0,0.0,0.0,4.0893,4.1149,0.0,0.0,0.0,0.0,0.0,0.0,0.0,0.0,0.0,0.0,0.0,0.0,0.0,0.0,0.0,0.0,0.0,0.0,0.0,0.0,0.0,0.0,0.0,0.0,0.0,0.0,0.0,0.0,0.0,0.0,0.0,0.0,0.0,0.0,0.0,0.0,0.0,0.0,0.0,0.0,0.0,0.0,0.0,0.0,0.0,0.0,0.0,0.0,0.0,0.0,0.0,0.0,0.0,0.0,0.0,0.0,3.971,4.0629,4.1855,4.3281,4.2656,4.2266,4.2246,4.1484,4.0293,0.0,0.0,0.0,0.0,0.0,0.0,0.0,0.0,0.0,0.0,0.0,0.0,0.0,0.0,0.0,0.0,0.0,0.0,0.0,0.0,0.0,0.0,0.0,0.0,0.0,0.0,0.0,0.0,0.0,0.0,0.0,0.0,0.0,0.0,0.0,0.0,0.0,0.0,0.0,0.0,0.0,4.5021,4.3352,4.2364,4.1732,0.0,0.0,4.1816,4.2662,4.341,0.0,0.0,0.0,0.0,0.0,0.0,0.0,0.0,0.0,0.0,0.0,0.0,0.0,0.0,0.0,0.0,0.0,0.0,0.0,0.0,0.0,0.0,0.0,0.0,0.0,0.0,0.0,0.0,0.0,0.0,0.0,0.0,0.0,0.0,0.0,0.0,0.0,0.0,0.0,0.0,0.0,0.0,0.0,0.0,0.0,0.0,0.0,0.0,0.0,0.0,0.0,0.0,0.0,0.0,0.0,3.9004,3.9862,4.1572,4.2856,4.3633,4.2851,4.2383,4.2383,4.1152,3.9648,0.0,0.0,0.0,0.0,0.0,0.0,0.0,0.0,0.0,0.0,0.0,0.0,0.0,0.0,0.0,0.0,0.0,0.0,0.0,0.0,0.0,0.0,0.0,0.0,0.0,0.0,0.0,0.0,0.0,0.0,0.0,0.0,0.0,0.0,0.0,0.0,0.0,0.0,0.0,0.0,0.0,0.0,4.4319,4.3455,0.0,0.0,0.0,4.2694,4.3091,0.0,0.0,0.0,0.0,0.0,0.0,0.0,0.0,0.0,0.0,0.0,0.0,0.0,0.0,0.0,0.0,0.0,0.0,0.0,0.0,0.0,0.0,0.0,0.0,0.0,0.0,0.0,0.0,0.0,0.0,0.0,0.0,0.0,0.0,0.0,0.0,0.0,0.0,0.0,0.0,0.0,0.0,0.0,0.0,0.0,0.0,0.0,0.0,0.0,0.0,0.0,0.0,0.0,0.0,0.0,0.0,0.0,4.0147,4.2555,4.3981,4.4277,4.3496,4.2949,4.2715,4.1113,0.0,0.0,0.0,0.0,0.0,0.0,0.0,0.0,0.0,0.0,0.0,0.0,0.0,0.0,0.0,0.0,0.0,0.0,0.0,0.0,0.0,0.0,0.0,0.0,0.0,0.0,0.0,0.0,0.0,0.0,0.0,0.0,0.0,0.0,0.0,0.0,0.0,0.0,0.0,0.0,0.0,0.0,4.4058,4.4831,4.426,4.3875,0.0,0.0,4.3583,4.384,4.433,4.4051,0.0,0.0,0.0,0.0,0.0,0.0,0.0,0.0,0.0,0.0,0.0,0.0,0.0,0.0,0.0,0.0,0.0,0.0,0.0,0.0,0.0,0.0,0.0,0.0,0.0,0.0,0.0,0.0,0.0,0.0,0.0,0.0,0.0,0.0,0.0,0.0,0.0,0.0,0.0,0.0,0.0,0.0,0.0,0.0,0.0,0.0,0.0,0.0,0.0,0.0,0.0,0.0,0.0,0.0,0.0,4.0963,4.3421,4.5133,4.5976,4.5234,4.4433,4.3613,4.1973,3.9922,0.0,0.0,0.0,0.0,0.0,0.0,0.0,0.0,0.0,0.0,0.0,0.0,0.0,0.0,0.0,0.0,0.0,0.0,0.0,0.0,0.0,0.0,0.0,0.0,0.0,0.0,0.0,0.0,0.0,0.0,0.0,0.0,0.0,0.0,0.0,0.0,0.0,0.0,0.0,0.0,0.0,4.4719,4.4793,4.4761,4.5007,0.0,0.0,4.486,4.5597,4.5752,4.4914,4.2405,0.0,0.0,0.0,0.0,0.0,0.0,0.0,0.0,0.0,0.0,0.0,0.0,0.0,0.0,0.0,0.0,0.0,0.0,0.0,0.0,0.0,0.0,0.0,0.0,0.0,0.0,0.0,0.0,0.0,0.0,0.0,0.0,0.0,0.0,0.0,0.0,0.0,0.0,0.0,0.0,0.0,0.0,0.0,0.0,0.0,0.0,0.0,0.0,0.0,0.0,0.0,0.0,0.0,4.0521,4.0915,4.3924,4.5676,4.603,4.5327,4.4531,4.3672,4.2539,4.0488,0.0,0.0,0.0,0.0,0.0,0.0,0.0,0.0,0.0,0.0,0.0,0.0,0.0,0.0,0.0,0.0,0.0,0.0,0.0,0.0,0.0,0.0,0.0,0.0,0.0,0.0,0.0,0.0,3.0994,3.1382,3.1891,0.0,0.0,0.0,0.0,0.0,0.0,0.0,0.0,0.0,0.0,4.5063,4.5636,4.5655,0.0,0.0,4.5776,4.558,4.5946,4.5459,4.4511,4.2976,4.271,0.0,0.0,0.0,0.0,0.0,0.0,0.0,0.0,0.0,0.0,0.0,0.0,0.0,0.0,0.0,0.0,0.0,0.0,0.0,0.0,0.0,0.0,0.0,0.0,0.0,0.0,0.0,0.0,0.0,0.0,0.0,0.0,0.0,0.0,0.0,0.0,0.0,0.0,0.0,0.0,0.0,0.0,0.0,0.0,0.0,0.0,0.0,0.0,0.0,0.0,0.0,0.0,4.0904,4.1163,4.4292,4.5932,4.5959,4.5487,4.4719,4.3605,4.2792,4.0762,0.0,0.0,0.0,0.0,0.0,0.0,0.0,0.0,0.0,0.0,0.0,0.0,0.0,0.0,0.0,0.0,0.0,0.0,0.0,0.0,0.0,0.0,0.0,0.0,0.0,0.0,0.0,0.0,3.1992,3.203,3.2596,0.0,0.0,0.0,0.0,0.0,0.0,0.0,0.0,0.0,0.0,4.5277,4.6173,4.6225,4.6202,4.628,4.6138,4.6049,4.6144,4.5519,4.4723,4.3802,0.0,0.0,0.0,0.0,0.0,0.0,0.0,0.0,0.0,0.0,0.0,0.0,0.0,0.0,0.0,0.0,0.0,0.0,0.0,0.0,0.0,0.0,0.0,0.0,0.0,0.0,0.0,0.0,0.0,0.0,3.1842,0.0,0.0,0.0,0.0,0.0,0.0,0.0,0.0,0.0,0.0,0.0,0.0,0.0,0.0,0.0,0.0,0.0,0.0,0.0,0.0,0.0,0.0,0.0,4.1984,4.4553,4.5911,4.5891,4.6021,4.5246,4.3572,4.2741,4.0703,3.7305,0.0,0.0,0.0,0.0,0.0,0.0,0.0,0.0,0.0,0.0,0.0,0.0,0.0,0.0,0.0,0.0,0.0,0.0,0.0,0.0,0.0,0.0,0.0,0.0,0.0,0.0,3.2226,3.1445,3.1016,0.0,0.0,0.0,0.0,0.0,0.0,0.0,0.0,0.0,0.0,4.4453,4.5331,4.6166,4.6293,4.6303,4.63,4.63,4.6296,4.6296,4.6238,4.5938,0.0,0.0,0.0,0.0,0.0,0.0,0.0,0.0,0.0,0.0,0.0,0.0,0.0,0.0,0.0,0.0,0.0,0.0,0.0,0.0,0.0,0.0,0.0,0.0,0.0,0.0,0.0,3.6818,3.6215,0.0,0.0,0.0,0.0,0.0,0.0,0.0,0.0,0.0,0.0,0.0,3.9365,4.0219,0.0,0.0,0.0,0.0,0.0,0.0,0.0,0.0,0.0,0.0,0.0,0.0,4.1043,4.1946,4.4427,4.5777,4.5785,4.5902,4.5176,4.3485,4.3248,4.1304,3.7402,0.0,0.0,0.0,0.0,0.0,0.0,0.0,0.0,0.0,0.0,0.0,0.0,0.0,0.0,0.0,0.0,0.0,0.0,0.0,0.0,0.0,0.0,0.0,0.0,0.0,3.2402,0.0,0.0,0.0,0.0,0.0,0.0,0.0,0.0,0.0,0.0,0.0,4.3261,4.4414,4.5312,4.5976,4.6249,4.6307,4.6301,0.0,0.0,0.0,0.0,0.0,0.0,0.0,0.0,0.0,0.0,0.0,0.0,0.0,0.0,4.9302,4.4327,4.3149,4.3114,4.3682,0.0,0.0,0.0,0.0,0.0,0.0,0.0,0.0,0.0,0.0,0.0,0.0,0.0,0.0,3.8464,0.0,3.6972,0.0,0.0,0.0,0.0,0.0,0.0,0.0,0.0,4.0588,4.1243,4.15,4.2074,4.2027,0.0,4.1759,4.0752,0.0,0.0,0.0,0.0,0.0,0.0,0.0,0.0,4.1585,4.2725,4.4655,4.5722,4.5731,4.5829,4.52,4.3852,4.3055,4.1123,3.7871,3.6367,3.4687,0.0,0.0,0.0,0.0,0.0,0.0,0.0,0.0,0.0,0.0,0.0,0.0,0.0,0.0,0.0,0.0,0.0,0.0,0.0,0.0,0.0,0.0,0.0,3.2832,0.0,0.0,0.0,0.0,0.0,0.0,0.0,0.0,0.0,4.1953,4.3262,4.459,4.5762,4.6133,4.6406,4.6699,0.0,0.0,0.0,0.0,0.0,0.0,0.0,4.6417,4.6986,4.7288,4.7721,4.8571,5.0659,5.2329,5.2524,0.0,0.0,4.7912,4.68,4.6742,4.7299,4.8322,4.9096,4.9118,5.0,5.0499,0.0,0.0,0.0,0.0,0.0,0.0,0.0,0.0,3.9484,3.9468,0.0,3.855,0.0,0.0,0.0,0.0,0.0,4.0585,0.0,0.0,4.3487,4.388,4.3209,4.319,4.3188,4.322,4.3951,4.3467,4.1882,4.0347,0.0,0.0,0.0,0.0,0.0,0.0,4.2681,4.4318,4.5221,4.5735,4.5781,4.5805,4.5413,4.4562,4.2237,4.0262,3.875,3.7832,3.6191,3.3652,3.2773,0.0,0.0,0.0,0.0,0.0,0.0,0.0,0.0,0.0,0.0,0.0,0.0,0.0,0.0,0.0,0.0,0.0,0.0,0.0,0.0,3.3437,0.0,0.0,0.0,0.0,0.0,0.0,0.0,0.0,0.0,0.0,4.3848,4.4551,4.5664,4.7344,0.0,0.0,0.0,0.0,4.6641,4.7519,4.7635,4.7924,4.8744,4.8853,4.8864,4.8903,0.0,0.0,5.1361,5.2902,5.3781,5.3002,5.3625,5.4071,5.3955,5.2917,5.2331,5.2351,5.2366,5.2565,5.2581,5.2663,5.2815,4.1662,0.0,0.0,0.0,0.0,4.0315,4.1193,4.2822,4.2248,4.2024,4.1959,4.108,0.0,0.0,0.0,0.0,0.0,0.0,4.2447,4.3577,4.408,4.4509,4.4876,4.4876,4.4893,4.4874,4.5105,4.4987,4.4468,4.3426,4.1724,3.9455,0.0,0.0,0.0,0.0,4.3263,4.4314,4.523,4.5722,4.5715,4.5781,4.5443,4.4684,4.2829,4.1358,4.0351,3.9551,3.8242,3.6289,3.5371,0.0,0.0,0.0,0.0,0.0,0.0,0.0,0.0,0.0,0.0,0.0,0.0,0.0,0.0,0.0,0.0,0.0,0.0,0.0,3.332,3.3965,3.457,0.0,0.0,0.0,0.0,0.0,0.0,0.0,0.0,0.0,4.6308,4.6152,4.6328,0.0,0.0,4.6621,4.748,4.7402,4.7519,4.8418,0.0,0.0,0.0,4.8886,4.91,4.9725,5.1015,5.2441,5.3945,5.4589,5.5038,5.537,5.568,5.5848,5.5775,5.46,5.365,5.3609,5.406,5.447,5.4547,5.5011,5.5277,4.3912,4.247,4.1816,4.1835,4.2297,4.2085,4.289,4.4273,4.3772,4.3772,4.4047,4.3169,4.2305,4.1489,4.0662,0.0,0.0,0.0,4.3508,4.4831,4.4814,4.5084,4.5566,4.5586,4.5586,4.5586,4.5586,4.5586,4.5586,4.5066,4.364,4.1416,0.0,0.0,4.2092,4.3066,4.3993,4.4837,4.5406,4.5706,4.575,4.5776,4.5443,4.4703,4.3721,4.2825,4.2051,4.1289,4.0234,3.8906,3.7695,3.623,0.0,0.0,0.0,0.0,0.0,0.0,0.0,0.0,0.0,0.0,0.0,3.334,0.0,0.0,0.0,0.0,3.3516,3.4551,3.5371,3.625,0.0,0.0,0.0,0.0,0.0,0.0,0.0,4.6445,4.666,4.707,4.8418,4.7871,4.7656,4.8516,4.7891,4.7656,4.8516,0.0,4.8418,4.9277,4.9414,4.9512,4.9824,4.9883,5.0176,5.1055,5.2285,5.3652,5.5019,5.5566,5.5996,5.6445,5.662,5.6618,5.6612,5.5731,5.5033,5.5039,5.543,5.5801,5.582,5.6229,5.644,4.5586,4.5488,4.3932,4.3297,4.3374,4.4085,4.4391,4.4408,4.4395,4.4837,4.5528,4.4741,4.3991,4.3258,4.247,0.0,4.3335,4.4066,4.4816,4.5586,4.5586,4.5586,4.5586,4.5586,4.5586,4.5586,4.5586,4.5586,4.5586,4.5586,4.5182,4.4412,4.3654,4.3651,4.4273,4.4355,4.4837,4.568,4.5676,4.5722,4.58,4.5805,4.5471,4.4819,4.4742,4.4375,4.3704,4.2793,4.1992,4.1269,3.9629,3.7949,3.6289,0.0,0.0,0.0,0.0,0.0,0.0,0.0,0.0,0.0,0.0,0.0,0.0,0.0,0.0,0.0,3.6484,0.0,3.873,3.9512,0.0,0.0,0.0,4.0996,4.2734,4.4336,4.5937,4.7519,0.0,0.0,5.0098,0.0,4.9394,5.0195,4.9492,4.9199,5.0078,4.9492,4.9316,5.0156,5.0293,5.0547,5.1113,5.1348,5.1719,5.2578,5.3535,5.4414,5.5273,5.6035,5.6543,5.6601,5.6621,5.6621,5.6621,5.6523,5.6601,5.6523,5.6562,5.6582,5.6562,5.6582,5.6601,4.5586,4.5566,4.5163,4.4989,4.5009,4.5201,4.5295,4.5276,4.5297,4.5413,4.5566,4.5393,4.5182,4.4989,4.4778,4.4816,4.5009,4.5182,4.5393,4.5586,4.5586,4.5586,4.5586,4.5586,4.5586,4.5586,4.5586,4.5586,4.5586,4.5586,4.549,4.5278,4.5103,4.4773,4.435,4.4949,4.5413,4.5624,4.5676,4.5722,4.58,4.5815,4.5713,4.5529,4.4974,4.4602,4.4422,4.3053,4.2226,4.2012,4.0469,3.9101,3.8008,3.5703,0.0,0.0,0.0,0.0,0.0,0.0,0.0,0.0,0.0,3.7168,3.3672,0.0,3.668,0.0,3.8262,3.9648,4.0508,4.0781,0.0,0.0,4.3789,4.4726,4.709,4.7715,4.8144,4.8535,4.9355,4.998,5.0195,5.0566,5.0879,5.1074,4.9844,4.9219,5.0039,5.0039,5.0195,5.0898,5.1074,5.1191,5.1426,5.1973,5.2695,5.3535,5.4414,5.5293,5.6152,5.6445,5.6601,5.6621,5.6621,5.6621,5.6621,5.6621,5.6621,5.6621,5.6621,5.6621,5.6621,5.6621,5.6621,4.5586,4.5586,4.5586,4.5586,4.5586,4.5586,4.5586,4.5586,4.5586,4.5586,4.5586,4.5586,4.5586,4.5586,4.5586,4.5586,4.5586,4.5586,4.5586,4.5586,4.5586,4.5586,4.5586,4.5586,4.5586,4.5586,4.5586,4.5586,4.5586,4.5586,4.5586,4.5586,4.5586,4.5353,4.493,4.5372,4.5586,4.5586,4.5676,4.5706,4.5746,4.5781,4.581,4.578,4.5413,4.5032,4.4703,4.3478,4.262,4.2285,4.1113,4.0234,3.9766,3.8008,3.6797,0.0,0.0,0.0,0.0,0.0,0.0,0.0,0.0,0.0,0.0,0.0,3.8437,0.0,4.0371,4.1797,4.2266,4.334,4.4609,4.6016,4.6504,4.7461,4.9277,4.9473,4.9629,4.9961,5.0449,5.0723,5.0742,5.1113,5.1387,5.1387,5.0605,5.0176,5.0625,5.0723,5.0898,5.1328,5.1387,5.1562,5.1894,5.2715,5.3574,5.4394,5.4961,5.5605,5.6426,5.6621,5.6621,5.6621,5.6621,5.6621,5.6621,5.6621,5.6621,5.6621,5.6621,5.6621,5.6621,5.6621,5.6621,4.5586,4.5586,4.5586,4.5586,4.5586,4.5586,4.5586,4.5586,4.5586,4.5586,4.5586,4.5586,4.5586,4.5586,4.5586,4.5586,4.5586,4.5586,4.5586,4.5586,4.5586,4.5586,4.5586,4.5586,4.5586,4.5586,4.5586,4.5586,4.5586,4.5586,4.5586,4.5586,4.5586,4.5586,4.5586,4.5586,4.5586,4.5586,4.5657,4.5687,4.57,4.5765,4.581,4.58,4.58,4.5452,4.4703,4.397,4.3228,4.2468,4.1777,4.1444,4.1484,4.0566,4.0059,0.0,3.9258,0.0,0.0,0.0,0.0,0.0,0.0,0.0,0.0,4.0801,4.0508,4.0391,4.2617,4.4062,4.4199,4.6269,4.7695,4.793,4.8613,4.9394,5.0215,5.0351,5.0625,5.1328,5.1387,5.1387,5.1367,5.1387,5.1387,5.1387,5.1328,5.125,5.1367,5.1348,5.1348,5.1406,5.1484,5.1953,5.2734,5.3594,5.4414,5.5117,5.543,5.5723,5.6465,5.6621,5.6621,5.6621,5.6621,5.6621,5.6621,5.6621,5.6621,5.6621,5.6621,5.6621,5.6621,5.6621,5.6621,4.5586,4.5586,4.5586,4.5586,4.5586,4.5586,4.5586,4.5586,4.5586,4.5586,4.5586,4.5586,4.5586,4.5586,4.5586,4.5586,4.5586,4.5586,4.5586,4.5586,4.5586,4.5586,4.5586,4.5586,4.5586,4.5586,4.5586,4.5586,4.5586,4.5586,4.5586,4.5586,4.5586,4.5586,4.5586,0.0,0.0,0.0,4.5657,4.5687,4.57,4.5765,4.581,4.58,4.58,0.0,4.4684,4.451,4.4066,4.3241,4.3094,0.0,0.0,0.0,0.0,0.0,0.0,0.0,0.0,0.0,0.0,0.0,4.2109,4.1367,4.1269,4.293,4.375,4.3105,4.4687,4.6113,4.6797,4.7285,4.8183,4.9531,4.9844,5.0273,5.1055,5.1172,5.123,5.1367,5.1387,5.1387,5.1387,5.1387,5.1387,5.1387,5.1387,5.1387,5.1387,5.1387,5.1387,5.1426,5.2031,5.2773,5.3633,5.4492,5.5117,5.5371,5.5937,5.6367,5.6562,5.6621,5.6621,5.6621,5.6621,5.6621,5.6621,5.6621,5.6621,5.6621,5.6621,5.6621,5.6621,5.6621,5.6621,4.5586,0.0,4.5586,4.5586,0.0,4.5586,4.5586,4.5586,4.5586,4.5586,4.5586,4.5586,4.5586,4.5586,4.5586,4.5586,4.5586,4.5586,4.5586,4.5586,4.5586,4.5586,4.5586,4.5586,4.5586,4.5586,4.5586,4.5586,4.5586,4.5586,4.5586,4.5586,4.5586,4.5586,4.5586,4.5586,4.5586,4.5586,4.562,4.5654,4.5706,4.5754,4.5781,4.581,0.0,0.0,0.0,0.0,0.0,0.0,0.0,0.0,0.0,0.0,0.0,4.3613,4.3281,4.3066,4.3086,4.3867,4.4726,4.5547,4.5605,4.4883,4.3203,4.4668,4.5644,4.5664,4.6445,4.7305,4.8144,4.8633,4.9238,5.0098,5.0547,5.0976,5.1308,5.1387,5.1387,5.1387,5.1387,5.1387,5.1387,5.1387,5.1387,5.1387,5.1387,5.1406,5.1387,5.1387,5.1523,5.2012,5.3203,5.4121,5.4609,5.5371,5.5937,5.6015,5.6308,5.6562,5.6621,5.6621,5.6621,5.6621,5.6621,5.6621,5.6621,5.6621,5.6621,5.666,5.6953,5.7226,5.7207,5.6914,5.6738,4.5586,4.5586,4.5586,4.5586,4.5586,4.5586,4.5586,4.5586,0.0,0.0,0.0,4.5586,4.5586,4.5586,4.5586,4.5586,4.5586,4.5586,4.5586,4.5586,4.5586,4.5586,4.5586,4.5586,4.5586,4.5586,4.5586,4.5586,4.5586,4.5586,4.5586,4.5586,4.5586,4.5586,4.5586,4.5586,4.5586,4.5586,4.5622,4.564,4.5673,4.5684,4.5731,4.58,4.5805,4.5432,4.4645,4.4736,4.4446,4.365,4.3755,4.4181,4.4949,4.5072,4.5419,4.6109,4.6367,4.6484,4.6484,4.7305,4.7812,4.7832,4.8476,4.7988,4.584,4.6348,4.707,4.7773,4.7832,4.8183,4.9043,4.9746,5.0254,5.0391,5.0996,5.1387,5.1387,5.1387,5.1387,5.1387,5.1387,5.1387,5.1387,5.1387,5.1387,5.1426,5.1582,5.1738,5.1797,5.1816,5.209,5.3144,5.4336,5.5273,5.5586,5.6035,5.6582,5.6543,5.6582,5.6621,5.6621,5.6621,5.6621,5.6621,5.6699,5.6855,5.6855,5.707,5.7051,5.7051,5.7617,5.8144,5.8066,5.7558,5.7363,4.5586,4.5586,4.5586,4.5586,4.5586,4.5586,4.5586,4.5586,4.5586,4.5586,4.5586,4.5586,4.5586,4.5586,4.5586,4.5586,4.5586,4.5586,4.5586,4.5586,4.5586,4.5586,4.5586,4.5586,4.5586,4.5586,4.5586,4.5586,4.5586,4.5605,4.5586,4.5605,4.5586,4.5605,4.5586,4.5586,4.5586,4.5586,4.5657,4.5693,4.5673,4.5684,4.5731,4.58,4.5805,4.5413,4.4645,4.5258,4.5258,4.4496,4.5104,4.5587,4.5814,4.5822,4.5929,4.6144,4.6786,4.7148,4.7187,4.8027,4.8613,4.8711,4.8848,4.873,4.8418,4.8457,4.8594,4.8711,4.8711,4.9082,4.9902,5.0156,5.0508,5.1113,5.1328,5.1387,5.1387,5.1387,5.1387,5.1387,5.1387,5.1426,5.1465,5.1484,5.1562,5.1562,5.2129,5.2773,5.3262,5.2988,5.3281,5.4512,5.5117,5.5625,5.6172,5.6484,5.6621,5.6621,5.6621,5.6621,5.6621,5.6621,5.664,5.664,5.7187,5.7598,5.7715,5.8359,5.8594,5.8633,5.8828,5.9023,5.9004,5.8867,5.8887,4.5586,4.5586,4.5586,4.5586,4.5586,4.5586,4.5586,4.5586,4.5586,4.5586,4.5586,4.5586,4.5855,4.6278,4.6297,4.6547,4.6951,4.6951,4.695,4.6966,4.6966,4.6968,4.6951,4.6971,4.6951,4.6951,4.6951,4.6951,4.6951,4.6951,4.6951,4.6932,4.6546,4.6294,4.6275,4.5834,4.5817,4.6259,4.5871,4.5659,4.564,4.569,4.5722,4.5738,4.5776,4.5626,4.5278,4.5606,4.5606,4.5278,4.5587,4.6032,4.6554,4.6631,4.6861,4.7373,4.7767,4.7996,4.7988,4.8844,4.9607,5.0156,5.0195,5.0234,5.0273,4.9414,4.9082,4.9551,4.9609,4.9941,5.0742,5.084,5.1016,5.1367,5.1387,5.1387,5.1387,5.1387,5.1387,5.1445,5.1816,5.209,5.2109,5.2519,5.2812,5.2851,5.3203,5.373,5.457,5.4375,5.4355,5.5156,5.5683,5.6113,5.6543,5.6621,5.6621,5.6621,5.6621,5.6621,5.6621,5.6621,5.6816,5.7226,5.7695,5.8066,5.8457,5.8887,5.916,5.9238,5.959,5.9785,5.9863,6.0195,6.039,4.555,4.5586,4.5586,4.5586,4.5586,4.5586,4.5586,4.5586,4.5586,4.5586,4.5605,4.5797,4.6374,4.7144,4.7163,4.7528,4.8048,4.8105,4.8085,4.8102,4.8083,4.8103,4.8087,4.8106,4.8087,4.8105,4.8105,4.8105,4.8105,4.8105,4.8105,4.8029,4.747,4.716,4.7141,4.6508,4.649,4.7086,4.6509,4.6163,4.6163,4.6198,4.6251,4.6268,4.6329,4.6346,4.6375,4.6375,4.638,4.638,4.6399,4.6709,4.7328,4.7444,4.7773,4.8426,4.8735,4.8952,4.9193,4.9792,5.0487,5.1191,5.1277,5.1289,5.1244,5.0214,4.9707,5.0332,5.0469,5.0723,5.123,5.1387,5.1387,5.1387,5.1601,5.1738,5.1699,5.1855,5.1992,5.207,5.2598,5.2988,5.3105,5.3574,5.4004,5.4199,5.4297,5.4648,5.539,5.5605,5.5586,5.5703,5.6191,5.6543,5.6621,5.6621,5.6621,5.6621,5.6621,5.6621,5.664,5.6719,5.7109,5.7754,5.8281,5.8769,5.9336,5.9707,5.9844,5.998,6.0371,6.0683,6.0723,6.1133,6.1465,4.5381,4.5586,4.5586,4.5586,4.5586,4.5586,4.5586,4.5586,4.5586,4.5586,4.5719,4.6432,4.7201,4.7932,4.7971,4.8029,4.8182,4.8105,4.8144,4.8163,4.8086,4.8106,4.8203,4.8164,4.8087,4.8164,4.8202,4.8259,4.8259,4.8202,4.8144,4.8105,4.8029,4.799,4.7971,4.7894,4.7894,4.799,4.7913,4.7875,4.7875,4.7875,4.7893,4.7966,4.8022,4.8067,4.7976,4.8116,4.8159,4.8159,4.8101,4.8159,4.8275,4.8295,4.8333,4.8469,4.9199,4.9958,5.077,5.0964,5.1111,5.1189,5.1317,5.1303,5.131,5.1174,5.1113,5.1289,5.1308,5.1289,5.1406,5.1445,5.1523,5.166,5.2187,5.2578,5.2656,5.3281,5.3769,5.3769,5.375,5.3867,5.3906,5.4082,5.4414,5.5117,5.5195,5.543,5.6152,5.6348,5.6426,5.6465,5.6601,5.6601,5.6621,5.6621,5.6719,5.6699,5.666,5.6797,5.6992,5.7402,5.789,5.8379,5.914,5.9961,6.0371,6.0859,6.1348,6.1113,6.1289,6.1523,6.1562,6.1621,6.1601,4.5476,4.5586,4.5586,4.5586,4.5586,4.5586,4.5586,4.5586,4.5586,4.5892,4.6373,4.674,4.7355,4.8086,4.8105,4.8644,4.9606,4.9625,4.9644,4.9625,4.9625,4.9644,4.9644,4.9644,4.9644,4.9644,4.9644,4.9625,4.9644,4.9644,4.9625,4.9567,4.9144,4.8875,4.8817,4.8356,4.8337,4.8856,4.8856,4.9106,4.9452,4.8625,4.8105,4.8143,4.8219,4.8253,4.8292,4.8327,4.8361,4.84,4.8396,4.8643,4.9126,4.9165,4.9378,4.9861,5.0689,5.1347,5.1718,5.2221,5.255,5.2624,5.2613,5.2622,5.268,5.2766,5.285,5.2754,5.1992,5.1582,5.207,5.2148,5.2363,5.2832,5.3281,5.3476,5.3476,5.3789,5.3984,5.4023,5.4453,5.4765,5.4844,5.5215,5.5644,5.6015,5.6055,5.623,5.6582,5.6621,5.6836,5.7246,5.7363,5.7129,5.6836,5.707,5.7305,5.7461,5.7812,5.8125,5.8125,5.834,5.8789,5.9219,5.9961,6.0664,6.1094,6.1348,6.1699,6.1699,6.1699,6.1699,6.1699,6.1699,6.1699,4.5263,4.5362,4.54,4.5419,4.5495,4.5491,4.5528,4.5586,4.5586,4.5969,4.6525,4.6565,4.699,4.7721,4.799,4.8817,4.9913,5.024,5.0356,5.0375,5.0567,5.0683,5.0683,5.0683,5.0683,5.0683,5.0644,5.0664,5.0683,5.0683,5.0683,5.0587,5.0067,4.9779,4.9702,4.9106,4.9106,4.9683,4.976,5.0067,5.0433,4.9471,4.8817,4.8817,4.8875,4.8912,4.8983,4.899,4.9022,4.908,4.9073,4.9359,4.9977,5.0035,5.0403,5.1215,5.2063,5.2546,5.255,5.3149,5.3536,5.3553,5.3572,5.3591,5.3649,5.3746,5.3817,5.3691,5.2722,5.2383,5.291,5.3066,5.3359,5.3926,5.416,5.4355,5.4355,5.4531,5.4785,5.4765,5.5332,5.5664,5.5742,5.6152,5.6523,5.6543,5.6562,5.6758,5.6894,5.7031,5.7285,5.8086,5.8242,5.8027,5.748,5.7812,5.8223,5.8359,5.8769,5.9023,5.9258,5.9316,5.9551,5.9902,6.043,6.0859,6.1348,6.1621,6.1699,6.1699,6.1699,6.1699,6.1699,6.1699,6.1699,4.4599,4.4825,4.4825,4.5007,4.5203,4.5207,4.5355,4.5528,4.5566,4.5624,4.5699,4.5701,4.6144,4.7028,4.7721,4.8144,4.8355,4.9125,4.9452,4.9548,5.0279,5.0683,5.0683,5.0683,5.0683,5.0683,5.0683,5.0683,5.0683,5.0683,5.0683,5.0664,5.0587,5.0606,5.0548,5.0471,5.0548,5.0529,5.0529,5.0664,5.0721,5.0625,5.051,5.051,5.0548,5.0491,5.0606,5.0711,5.0735,5.0755,5.0658,5.0751,5.0848,5.0887,5.1312,5.2105,5.2969,5.3452,5.344,5.358,5.36,5.3556,5.3633,5.3536,5.3517,5.3594,5.3626,5.3602,5.3515,5.3559,5.3867,5.3926,5.4023,5.4199,5.4824,5.5195,5.5234,5.584,5.6406,5.6308,5.623,5.6289,5.6465,5.6562,5.664,5.668,5.666,5.6933,5.7656,5.7832,5.8223,5.8848,5.914,5.9121,5.9082,5.9043,5.9101,5.9238,5.9355,5.9414,5.9512,5.9726,6.0156,6.0566,6.1055,6.1406,6.1621,6.1699,6.1699,6.1699,6.1699,6.1699,6.1699,6.1699,6.1699,4.4676,4.48,4.48,4.4849,4.4928,4.494,4.4991,4.5086,4.5086,4.5201,4.5316,4.5355,4.5913,4.6913,4.7201,4.7625,4.8105,4.8432,4.8587,4.8664,4.9471,4.9875,4.9933,5.0414,5.0683,5.0683,5.0683,5.0683,5.0683,5.0683,5.0683,5.0683,5.0683,5.0683,5.0683,5.0683,5.0683,5.0683,5.0683,5.0933,5.1433,5.1471,5.1471,5.1452,5.0971,5.0702,5.0721,5.0789,5.0867,5.0906,5.0906,5.1157,5.1699,5.2279,5.2685,5.3053,5.3843,5.4307,5.4368,5.4796,5.4854,5.4387,5.4329,5.4039,5.3633,5.3556,5.3588,5.3606,5.3707,5.398,5.4509,5.4704,5.5,5.5586,5.5918,5.6035,5.6172,5.6406,5.6406,5.5918,5.5781,5.5957,5.6543,5.6621,5.6836,5.7324,5.7441,5.7832,5.8476,5.873,5.9023,5.9726,6.0,6.0176,6.0801,6.0254,6.0019,6.0176,6.0332,6.0683,6.0898,6.082,6.1133,6.1113,6.1562,6.164,6.1699,6.1699,6.1699,6.1699,6.1699,6.1699,6.1699,6.1699,6.1699,4.4511,4.4538,4.4519,4.4599,4.4682,4.4753,4.5008,4.5302,4.5314,4.5621,4.6051,4.6052,4.649,4.7201,4.7298,4.7567,4.8105,4.8394,4.8509,4.8606,4.9433,4.9837,4.9913,5.0414,5.0683,5.0683,5.0683,5.0683,5.0683,5.0683,5.0683,5.0683,5.0683,5.0683,5.0683,5.0683,5.0779,5.101,5.1087,5.1491,5.2202,5.2337,5.2318,5.2241,5.178,5.1376,5.1145,5.1429,5.1631,5.1683,5.1718,5.1989,5.2608,5.344,5.3904,5.4,5.4713,5.5062,5.489,5.5316,5.5238,5.4484,5.4349,5.4097,5.3556,5.3556,5.3556,5.3594,5.3652,5.402,5.4739,5.5045,5.5396,5.6015,5.6152,5.6055,5.582,5.5976,5.6015,5.5879,5.584,5.6191,5.6816,5.7012,5.7461,5.8183,5.834,5.8672,5.9375,5.9609,5.9883,6.0644,6.0801,6.1035,6.1328,6.1015,6.082,6.0957,6.0937,6.1465,6.1699,6.1699,6.1699,6.1699,6.1699,6.1699,6.1699,6.1699,6.1699,6.1699,6.1699,6.1699,6.1699,6.1699,6.1699,4.4023,4.4092,4.4005,4.4293,4.4655,4.4897,4.5482,4.6266,4.6299,4.6795,4.7473,4.762,4.7569,4.803,4.801,4.8106,4.8395,4.9029,4.9259,4.9237,5.0085,5.0471,5.0491,5.0606,5.0779,5.0818,5.0741,5.0779,5.0933,5.0971,5.0952,5.0818,5.0952,5.1029,5.0779,5.0971,5.1241,5.174,5.1913,5.2356,5.3087,5.3222,5.3222,5.3222,5.3185,5.2858,5.2127,5.2782,5.3089,5.3213,5.3249,5.3382,5.3575,5.4329,5.4774,5.4813,5.547,5.5492,5.4931,5.4868,5.4578,5.3981,5.3652,5.371,5.3556,5.342,5.3401,5.3517,5.3459,5.3843,5.4713,5.5052,5.5186,5.5234,5.5566,5.5312,5.4863,5.4961,5.5683,5.6465,5.6699,5.6992,5.7637,5.791,5.8262,5.8945,5.9199,5.9492,6.0234,6.043,6.0801,6.1348,6.1484,6.1523,6.1621,6.168,6.166,6.164,6.1562,6.1699,6.1699,6.1699,6.1699,6.1699,6.1699,6.1699,6.1699,6.1699,6.1699,6.1699,6.1699,6.1699,6.1699,6.1699,6.1699,4.4198,4.4744,4.4763,4.5194,4.5799,4.5929,4.6196,4.6491,4.6487,4.6781,4.7196,4.7178,4.761,4.8248,4.8381,4.8729,4.9262,4.9713,4.9466,4.8894,4.947,4.9856,4.999,5.0452,5.0991,5.1452,5.1529,5.1856,5.2299,5.2375,5.2434,5.2416,5.2396,5.2435,5.2338,5.2434,5.2606,5.274,5.2799,5.3222,5.401,5.4087,5.4087,5.4145,5.4608,5.4551,5.3782,5.3472,5.3318,5.3378,5.3375,5.3677,5.4387,5.518,5.5354,5.4909,5.5009,5.5105,5.4871,5.4829,5.4752,5.4445,5.4407,5.4058,5.3498,5.3033,5.3014,5.3343,5.3014,5.334,5.5133,5.5752,5.5882,5.6074,5.6113,5.6289,5.6445,5.6797,5.748,5.8105,5.7871,5.793,5.8535,5.8789,5.9121,5.9863,6.0019,6.0351,6.1015,6.1191,6.1328,6.168,6.1699,6.1699,6.1699,6.1699,6.1699,6.1699,6.1699,6.1699,6.1699,6.1699,6.1699,6.1699,6.1699,6.1699,6.1699,6.1699,6.1699,6.1699,6.1699,6.1699,6.1699,6.1699,6.1699,4.5119,4.5597,4.5616,4.5927,4.6494,4.6624,4.6836,4.707,4.7105,4.74,4.7895,4.7878,4.8428,4.9275,4.9542,5.0095,5.0862,5.1166,5.083,4.999,4.974,5.0048,5.0394,5.1221,5.1856,5.2299,5.2395,5.2664,5.3164,5.3203,5.3184,5.3185,5.3185,5.3166,5.3184,5.3222,5.3317,5.3605,5.3703,5.4087,5.4761,5.4934,5.4953,5.5011,5.5434,5.5415,5.4935,5.4451,5.4199,5.4184,5.4015,5.4201,5.4813,5.5258,5.5451,5.5393,5.5565,5.5758,5.5717,5.5816,5.5548,5.5354,5.5258,5.5064,5.4465,5.3846,5.3942,5.4213,5.4058,5.4404,5.6078,5.6566,5.6822,5.7365,5.709,5.7202,5.7734,5.7871,5.8242,5.8711,5.8691,5.8867,5.9375,5.9648,5.998,6.0664,6.0898,6.0976,6.1562,6.168,6.1699,6.1699,6.1699,6.1699,6.1699,6.1699,6.1699,6.1699,6.1699,6.1699,6.1699,6.1699,6.1699,6.1699,6.1699,6.1699,6.1699,6.1699,6.1699,6.1699,6.1699,6.1699,6.1699,6.1699,6.1699,4.6531,4.6624,4.6587,4.6698,4.6884,4.7029,4.7467,4.8021,4.8103,4.8606,4.9368,4.9198,4.9733,5.0667,5.0669,5.1173,5.2403,5.2483,5.2519,5.2181,5.1587,5.1241,5.1895,5.2568,5.299,5.3241,5.328,5.3356,5.3626,5.3606,5.3337,5.353,5.3587,5.3393,5.3584,5.3409,5.3891,5.447,5.4568,5.4953,5.5568,5.5626,5.5626,5.5626,5.5665,5.5665,5.5568,5.5472,5.5568,5.5647,5.5037,5.4859,5.497,5.4948,5.549,5.607,5.6839,5.7069,5.7224,5.7018,5.6847,5.6364,5.6304,5.6147,5.6128,5.5915,5.5857,5.6109,5.5973,5.6338,5.7224,5.7572,5.8017,5.8721,5.8419,5.8064,5.791,5.8164,5.8906,5.9355,5.9394,5.9609,6.039,6.0469,6.0859,6.1328,6.1562,6.1601,6.164,6.1699,6.1699,6.1699,6.1699,6.1699,6.1699,6.1699,6.1699,6.1699,6.1699,6.1699,6.1699,6.1699,6.1699,6.1699,6.1699,6.1699,6.1699,6.1699,6.1699,6.1699,6.1699,6.1699,6.1699,6.1699,6.1699,4.7011,4.8099,4.7562,4.8023,4.8983,4.863,4.8497,4.8683,4.8686,4.8853,4.9094,4.9057,4.9351,4.9789,4.9721,4.9943,5.0844,5.1497,5.177,5.2018,5.25,5.2604,5.2834,5.3103,5.3584,5.4087,5.4164,5.4453,5.5011,5.4895,5.4953,5.503,5.4953,5.5011,5.5047,5.5009,5.5124,5.5357,5.5415,5.5511,5.5703,5.578,5.5684,5.5684,5.5742,5.5742,5.5703,5.5684,5.5722,5.5801,5.5692,5.5923,5.6384,5.6517,5.6633,5.694,5.7172,5.7364,5.7383,5.7425,5.7524,5.7891,5.7909,5.7907,5.7888,5.7327,5.7346,5.7579,5.7424,5.7617,5.8833,5.9181,5.9666,6.0364,5.9939,5.9585,5.9726,6.0293,6.082,6.1015,6.0976,6.1055,6.1172,6.1289,6.1387,6.1621,6.1699,6.1699,6.1699,6.1699,6.1699,6.1699,6.1699,6.1699,6.1699,6.1699,6.1699,6.1699,6.1699,6.1699,6.1699,6.1699,6.1699,6.1699,6.1699,6.1699,6.1699,6.1699,6.1699,6.1699,6.1699,6.1699,6.1699,6.1699,6.1699,4.781,4.8695,4.8233,4.8566,4.9378,4.9041,4.8834,4.8816,4.8834,4.8837,4.8767,4.8785,4.9111,4.9631,4.9952,5.052,5.125,5.2191,5.287,5.3225,5.3942,5.4066,5.393,5.4026,5.4528,5.4934,5.4991,5.5222,5.5588,5.5684,5.5684,5.5722,5.6071,5.6244,5.6263,5.6646,5.678,5.6799,5.6799,5.678,5.6799,5.6799,5.6799,5.6799,5.6802,5.6785,5.6804,5.6821,5.6684,5.6376,5.6074,5.6232,5.7043,5.7197,5.7389,5.7736,5.8121,5.8488,5.8836,5.8895,5.9128,5.9514,5.9667,5.9648,5.959,5.9165,5.9203,5.9474,5.9126,5.9474,6.0111,6.0459,6.075,6.1079,6.106,6.0883,6.0882,6.1289,6.164,6.1699,6.1699,6.1699,6.1699,6.1699,6.1699,6.1699,6.1699,6.1699,6.1699,6.1699,6.1699,6.1699,6.1699,6.1699,6.1699,6.1699,6.1699,6.1699,6.1699,6.1699,6.1699,6.1699,6.1699,6.1699,6.1699,6.1699,6.1699,6.1699,6.1699,6.1699,6.1699,6.1699,6.1699,6.1699,6.1699,4.8624,4.8716,4.8624,4.8624,4.8808,4.8785,4.8709,4.867,4.8895,4.8918,4.8864,4.8864,4.9565,5.0193,5.0994,5.2053,5.2892,5.3584,5.4471,5.4829,5.5184,5.5085,5.4891,5.5162,5.5549,5.5799,5.5838,5.5992,5.6222,5.6145,5.6049,5.6338,5.686,5.7112,5.7225,5.78,5.82,5.8085,5.7992,5.7973,5.7992,5.7992,5.7953,5.7953,5.7956,5.7998,5.8075,5.8088,5.7912,5.737,5.6535,5.6732,5.7331,5.7428,5.7911,5.8723,5.9456,6.0092,6.0654,6.048,6.0634,6.048,6.0499,6.0847,6.0422,6.0151,6.0151,6.019,6.0789,6.0383,6.046,6.077,6.073,6.0788,6.1041,6.1388,6.1485,6.1601,6.1699,6.1699,6.1699,6.1699,6.1699,6.1699,6.1699,6.1699,6.1699,6.1699,6.1699,6.1699,6.1699,6.1699,6.1699,6.1699,6.1699,6.1699,6.1699,6.1699,6.1699,6.1699,6.1699,6.1699,6.1699,6.1699,6.1699,6.1699,6.1699,6.1699,6.1699,6.1699,6.1699,6.1699,6.1699,6.1699,6.1699,4.9011,4.9584,4.8864,4.8993,4.9436,4.8938,4.864,4.8672,4.9307,4.9545,4.9706,5.0265,5.0787,5.1218,5.1428,5.1821,5.2529,5.3302,5.3946,5.4888,5.4951,5.5508,5.5794,5.5989,5.6126,5.6549,5.6722,5.7049,5.7492,5.753,5.7723,5.7703,5.7786,5.7998,5.8069,5.8316,5.8289,5.8312,5.8354,5.8454,5.8473,5.8473,5.8473,5.8454,5.8415,5.8377,5.8316,5.8293,5.8523,5.8662,5.8245,5.806,5.8794,5.8988,5.9358,5.9938,6.0365,6.0461,6.019,6.0074,5.9879,5.9435,5.9474,5.9126,5.9126,5.9339,5.9281,5.9165,5.9126,5.9377,5.9359,5.9279,5.9413,5.9626,6.0072,6.0489,6.0608,6.1211,6.166,6.1699,6.1699,6.1699,6.1699,6.1699,6.1699,6.1699,6.1699,6.1699,6.1699,6.1699,6.1699,6.1699,6.1699,6.1699,6.1699,6.1699,6.1699,6.1699,6.1699,6.1699,6.1699,6.1699,6.1699,6.1699,6.1699,6.1699,6.1699,6.1699,6.1699,6.1699,6.1699,6.1699,6.1699,6.1699,6.1699,4.8715,4.9065,4.8623,4.8697,4.9028,4.8734,4.8735,4.9049,4.9528,4.9963,5.0362,5.0888,5.1194,5.1432,5.175,5.2062,5.2544,5.3315,5.4288,5.5223,5.5578,5.6255,5.713,5.7105,5.72,5.7588,5.7607,5.7934,5.8204,5.8338,5.8204,5.8357,5.8671,5.8844,5.8976,5.9219,5.9546,5.9546,5.9469,5.9492,5.9473,5.9473,5.9473,5.9473,5.9473,5.9469,5.9508,5.9484,5.9719,5.9777,5.9323,5.9229,5.9845,5.9791,5.989,6.0184,5.9894,5.963,5.9225,5.9186,5.9204,5.9183,5.9146,5.9417,5.9629,5.9764,5.9764,5.9687,5.9493,5.9106,5.8663,5.8641,5.8639,5.8736,5.9163,5.9484,5.975,6.0762,6.166,6.166,6.168,6.1699,6.1699,6.1582,6.1699,6.1699,6.1699,6.1699,6.1699,6.1699,6.1699,6.1699,6.1699,6.1699,6.1699,6.1699,6.1699,6.1699,6.1699,6.1699,6.1699,6.1699,6.1699,6.1699,6.1699,6.1699,6.1699,6.1699,6.1699,6.1699,6.1699,6.1699,6.1699,6.1699,6.1699,4.8416,4.8324,4.8434,4.8508,4.8545,4.8783,4.9228,4.9673,4.9949,5.0551,5.1026,5.1154,5.1632,5.1693,5.2287,5.2659,5.3217,5.4149,5.5286,5.5938,5.6356,5.7169,5.8025,5.8265,5.8446,5.8607,5.8531,5.8607,5.8781,5.8704,5.9011,5.8877,5.9361,5.9688,5.9881,6.0319,6.0589,6.0531,6.0512,6.055,6.0589,6.0608,6.0589,6.0569,6.055,6.0531,6.0473,6.0416,6.0454,6.0531,5.9762,5.98,5.9992,5.9819,5.9342,5.9386,5.8861,5.8616,5.8605,5.8548,5.88,5.9572,5.9553,5.9824,6.0287,6.0267,6.0209,6.0151,5.9783,5.9221,5.8699,5.8602,5.86,5.8658,5.8757,5.8874,5.9191,6.0476,6.1289,6.1015,6.084,6.0801,6.1152,6.1289,6.1504,6.166,6.168,6.1699,6.1699,6.1699,6.1699,6.1699,6.1699,6.1699,6.1699,6.1699,6.1699,6.1699,6.1699,6.1699,6.1699,6.1699,6.1699,6.1699,6.1699,6.1699,6.1699,6.1699,6.1699,6.1699,6.1699,6.1699,6.1699,6.1699,6.1699,4.8967,4.8379,4.9077,4.937,4.9481,5.0086,5.0404,5.0689,5.1238,5.1669,5.1875,5.2582,5.2843,5.3013,5.3167,5.3687,5.4473,5.5317,5.6107,5.6538,5.6971,5.7772,5.8745,5.9086,5.9469,5.9973,5.9742,5.9627,6.0108,6.0377,6.0089,6.03,6.0416,6.0492,6.0492,6.0742,6.08,6.08,6.08,6.08,6.08,6.08,6.08,6.08,6.08,6.0742,6.0569,6.0111,5.9707,5.965,5.8934,5.8704,5.88,5.8665,5.8531,5.855,5.8357,5.8149,5.8308,5.8385,5.846,5.8618,5.8837,5.8877,5.9109,5.9185,5.959,5.9319,5.9183,5.8813,5.8639,5.8602,5.8602,5.8757,5.9087,5.9493,5.9761,6.0317,6.0647,5.9907,5.9726,5.9883,6.0449,6.082,6.0898,6.1133,6.1367,6.1543,6.1699,6.1699,6.1699,6.1699,6.1699,6.1699,6.1699,6.1699,6.1699,6.1699,6.1699,6.1699,6.1699,6.1699,6.1699,6.1699,6.1699,6.1699,6.1699,6.1699,6.1699,6.1699,6.1699,6.1699,6.1699,6.1699,6.1699,4.9976,4.9664,5.005,5.0215,5.027,5.0618,5.1066,5.1461,5.1845,5.2257,5.2821,5.3524,5.3962,5.4156,5.4585,5.4995,5.5447,5.5806,5.663,5.7225,5.7753,5.8559,5.9653,5.9911,6.0238,6.0569,6.0377,6.0319,6.0762,6.0742,6.0762,6.0781,6.08,6.08,6.0781,6.0781,6.08,6.08,6.08,6.08,6.08,6.08,6.08,6.08,6.0742,6.0569,6.0108,5.9823,5.9287,5.8806,5.8091,5.7973,5.805,5.7953,5.7857,5.8146,5.7934,5.7899,5.8207,5.8338,5.8546,5.9011,5.9064,5.9359,5.965,5.9901,5.961,5.9358,5.9242,5.9066,5.866,5.8681,5.8605,5.8663,5.9068,5.9281,5.9377,5.9763,5.9514,5.9141,5.959,5.9961,6.0039,6.0273,6.0273,6.0527,6.0996,6.1328,6.168,6.1699,6.1699,6.1699,6.1699,6.1699,6.1699,6.1699,6.1699,6.1699,6.1699,6.1699,6.1699,6.1699,6.1699,6.1699,6.1699,6.1699,6.1699,6.1699,6.1699,6.1699,6.1699,6.1699,6.1699,6.1699,6.1699,5.0949,5.082,5.0967,5.1041,5.1059,5.1242,5.165,5.2132,5.2224,5.2734,5.3531,5.4147,5.4608,5.5036,5.5613,5.6055,5.6092,5.6348,5.7316,5.8128,5.8594,5.9398,6.0252,6.0685,6.0666,6.0723,6.0742,6.08,6.0781,6.08,6.0704,6.0569,6.0608,6.0646,6.0531,6.0646,6.0723,6.08,6.08,6.08,6.08,6.08,6.08,6.08,6.08,6.0492,6.0027,5.965,5.9268,5.8633,5.7995,5.7646,5.8069,5.7646,5.7665,5.8223,5.7726,5.7824,5.8306,5.8607,5.9023,5.9738,5.9845,6.028,6.0613,6.0673,6.0635,6.0268,6.0132,5.992,5.9474,5.9204,5.9186,5.9224,5.9262,5.9203,5.9416,5.9648,5.9783,5.97,5.9953,6.0019,6.0098,6.0234,6.0312,6.084,6.1289,6.1367,6.166,6.1699,6.1699,6.1699,6.1699,6.1699,6.1699,6.1699,6.1699,6.1699,6.1699,6.1699,6.1699,6.1699,6.1699,6.1699,6.1699,6.1699,6.1699,6.1699,6.1699,6.1699,6.1699,6.1699,6.1699,6.1699,6.1699,5.1444,5.0875,5.1573,5.1867,5.1958,5.2546,5.2931,5.3041,5.3041,5.3512,5.4294,5.4452,5.4961,5.5636,5.6371,5.6683,5.7,5.7653,5.8225,5.8665,5.9125,5.9578,6.0181,6.0315,6.0498,6.0594,6.0657,6.08,6.08,6.08,6.0435,6.0089,6.0473,6.0492,6.0104,6.0531,6.0781,6.08,6.08,6.08,6.08,6.08,6.08,6.08,6.0781,6.0666,6.03,5.98,5.9342,5.9149,5.8492,5.8223,5.828,5.8242,5.8607,5.8877,5.8761,5.8492,5.9207,5.9396,5.9642,6.0339,6.0577,6.0795,6.0897,6.0981,6.0964,6.1041,6.0925,6.0789,6.0538,6.0673,6.0732,6.0616,6.0441,6.0518,6.0596,6.0112,6.019,6.0209,6.0401,6.0207,6.0137,6.0293,6.0488,6.1055,6.1504,6.1543,6.164,6.168,6.1699,6.1699,6.1699,6.1699,6.1699,6.1699,6.1699,6.1699,6.1699,6.1699,6.1699,6.1699,6.1699,6.1699,6.1699,6.1699,6.1699,6.1699,6.1699,6.1699,6.1699,6.1699,6.1699,6.1699,6.1699,5.2472,5.2197,5.2527,5.2674,5.2729,5.3078,5.3445,5.3818,5.3915,5.435,5.5089,5.5568,5.6181,5.6877,5.7373,5.7483,5.7602,5.8109,5.8492,5.8655,5.9042,5.9342,5.9613,5.9828,6.0074,6.0181,6.0099,6.0238,6.0479,6.0742,6.0531,6.0319,6.0573,6.0689,6.0084,6.0569,6.0742,6.08,6.08,6.08,6.08,6.08,6.08,6.08,6.08,6.0569,6.0123,5.9758,5.9219,5.8931,5.8412,5.8569,5.8838,5.9031,5.9358,6.0089,5.9954,5.9915,6.0208,6.0223,6.0454,6.0627,6.0823,6.0846,6.0891,6.0957,6.1,6.1021,6.1041,6.106,6.106,6.1079,6.1099,6.1099,6.1099,6.1099,6.1099,6.1099,6.0905,6.0886,6.0809,6.0595,6.0284,6.0026,6.0229,6.0723,6.1113,6.123,6.1445,6.1699,6.1699,6.1699,6.1699,6.1699,6.1699,6.1699,6.1699,6.1699,6.1699,6.1699,6.1699,6.1699,6.1699,6.1699,6.1699,6.1699,6.1699,6.1699,6.1699,6.1699,6.1699,6.1699,6.1699,6.1699,6.1699,5.3206,5.3206,5.3206,5.3206,5.3243,5.3408,5.3836,5.4381,5.4595,5.514,5.5978,5.6694,5.7437,5.7886,5.7923,5.7905,5.7978,5.8042,5.8207,5.8452,5.8633,5.885,5.9148,5.9422,5.9492,5.9631,5.9549,5.9644,6.0086,6.0474,6.0551,6.0512,6.065,6.0554,6.0554,6.0646,6.08,6.08,6.08,6.08,6.08,6.08,6.08,6.08,6.0723,6.0512,5.995,5.9873,5.9508,5.9235,5.9123,5.9415,5.9762,5.9858,6.005,6.0569,6.0531,6.0589,6.0646,6.0685,6.0781,6.08,6.08,6.0823,6.0911,6.0955,6.0976,6.0997,6.1021,6.1022,6.1002,6.106,6.1079,6.1099,6.1099,6.1099,6.1099,6.1099,6.1099,6.1041,6.0983,6.1021,6.0596,5.9938,5.9973,6.0391,6.0664,6.092,6.125,6.166,6.1699,6.1699,6.1699,6.1699,6.1699,6.1699,6.1699,6.1699,6.1699,6.1699,6.1699,6.1699,6.1699,6.1699,6.1777,6.1699,6.1699,6.1699,6.1699,6.1699,6.1699,6.1699,6.1699,6.1758,6.1953,5.3206,5.3206,5.3225,5.3261,5.3316,5.4014,5.435,5.4693,5.5232,5.5978,5.6749,5.7492,5.7868,5.7978,5.7978,5.7978,5.7978,5.8152,5.8207,5.8244,5.8352,5.8426,5.8589,5.8616,5.8657,5.86,5.8675,5.895,5.9321,5.9892,5.9862,5.9777,6.0512,6.0227,6.0208,6.055,6.0762,6.08,6.08,6.08,6.08,6.08,6.08,6.08,6.08,6.0762,6.0704,6.0608,6.0512,6.0296,6.0262,6.0262,6.0416,6.0473,6.0646,6.0723,6.08,6.08,6.08,6.08,6.08,6.08,6.08,6.0823,6.0869,6.0891,6.0914,6.0976,6.0978,6.0981,6.1002,6.1021,6.106,6.1079,6.1099,6.1099,6.1099,6.1099,6.1099,6.1099,6.1099,6.1099,6.1099,6.046,6.0383,6.0818,6.095,6.1188,6.133,6.1621,6.168,6.168,6.1699,6.1699,6.1699,6.1699,6.1699,6.1699,6.1699,6.1699,6.1699,6.1719,6.1719,6.1973,6.2051,6.1875,6.1875,6.2265,6.2383,6.1914,6.1777,6.209,6.2285,6.2422,6.2656,5.35,5.394,5.394,5.394,5.3995,5.4785,5.5397,5.5871,5.6195,5.6793,5.7529,5.7868,5.7978,5.7978,5.7978,5.7978,5.7978,5.8042,5.8042,5.7868,5.7749,5.7555,5.7491,5.7405,5.7191,5.766,5.7865,5.8525,5.94,5.9429,5.9665,5.9944,6.0537,6.0589,6.0569,6.0569,6.0723,6.08,6.08,6.08,6.08,6.08,6.08,6.08,6.08,6.08,6.0781,6.0781,6.0781,6.08,6.08,6.08,6.08,6.08,6.08,6.08,6.08,6.08,6.08,6.08,6.08,6.08,6.0781,6.0804,6.0846,6.0846,6.0846,6.0869,6.0908,6.0933,6.1012,6.1021,6.1021,6.1079,6.1099,6.1099,6.1099,6.1099,6.1099,6.1099,6.1099,6.1099,6.1099,6.1041,6.1099,6.125,6.1346,6.1411,6.15,6.1564,6.1601,6.1758,6.1816,6.1875,6.1894,6.1816,6.1758,6.1855,6.1914,6.2012,6.2129,6.1719,6.1797,6.209,6.2578,6.2734,6.293,6.3223,6.3027,6.2422,6.248,6.2812,6.2969,6.3086,6.3398,5.3885,5.4436,5.4913,5.4968,5.4876,5.5611,5.6261,5.6772,5.7066,5.7445,5.7978,5.7978,5.7978,5.7941,5.7685,5.7611,5.7464,5.7317,5.7235,5.7006,5.6667,5.6593,5.6536,5.6614,5.6842,5.7215,5.7526,5.8165,5.9191,5.8957,5.9597,6.0284,6.0666,6.0738,6.0762,6.08,6.08,6.08,6.08,6.08,6.08,6.08,6.08,6.08,6.08,6.08,6.08,6.08,6.08,6.08,6.08,6.08,6.08,6.08,6.08,6.08,6.08,6.08,6.08,6.08,6.08,6.08,6.08,6.08,6.08,6.08,6.0823,6.08,6.0839,6.0896,6.0977,6.0978,6.0983,6.1022,6.1061,6.1061,6.108,6.1099,6.1099,6.1099,6.1118,6.1137,6.1137,6.1157,6.1273,6.1331,6.1311,6.1346,6.1391,6.1471,6.1543,6.1758,6.1992,6.2051,6.2109,6.2519,6.293,6.3008,6.3008,6.2851,6.2773,6.2383,6.2441,6.3066,6.3515,6.373,6.3828,6.3867,6.3418,6.2851,6.3164,6.3594,6.3633,6.3789,6.4199,5.4399,5.4601,5.6069,5.6253,5.5757,5.6455,5.6812,5.703,5.7565,5.785,5.785,5.7868,5.7813,5.7648,5.7042,5.684,5.6693,5.618,5.5933,5.5926,5.5981,5.619,5.6444,5.6614,5.6657,5.7446,5.7819,5.8258,5.8912,5.9437,6.0132,6.0514,6.0734,6.08,6.08,6.08,6.08,6.08,6.08,6.08,6.08,6.08,6.08,6.08,6.08,6.08,6.08,6.08,6.08,6.08,6.08,6.08,6.08,6.08,6.08,6.08,6.08,6.08,6.08,6.08,6.08,6.08,6.08,6.08,6.08,6.08,6.08,6.08,6.08,6.0839,6.0885,6.0914,6.0962,6.1002,6.1021,6.1215,6.1254,6.1408,6.1485,6.1834,6.1485,6.1195,6.1195,6.1234,6.135,6.1389,6.1311,6.1348,6.1496,6.1842,6.2093,6.2285,6.2617,6.2754,6.3027,6.3672,6.4062,6.414,6.3984,6.3672,6.3652,6.3574,6.3769,6.4199,6.4375,6.4531,6.4453,6.4375,6.4297,6.4297,6.4121,6.4355,6.4375,6.459,6.5098,5.5023,5.6033,5.6583,5.695,5.7189,5.7464,5.7574,5.7657,5.7813,5.7712,5.7279,5.7216,5.684,5.6436,5.6216,5.5996,5.5904,5.5886,5.5621,5.5558,5.554,5.5731,5.5996,5.6271,5.6481,5.702,5.7709,5.8443,5.8913,5.9625,6.0044,6.0376,6.0734,6.0781,6.08,6.08,6.08,6.08,6.08,6.08,6.08,6.08,6.08,6.08,6.08,6.08,6.08,6.08,6.08,6.08,6.08,6.08,6.08,6.08,6.08,6.08,6.08,6.08,6.08,6.08,6.08,6.08,6.08,6.08,6.08,6.08,6.08,6.08,6.08,6.0839,6.0881,6.0911,6.0959,6.1,6.1136,6.1505,6.1718,6.195,6.2182,6.2801,6.2839,6.2665,6.2588,6.2278,6.224,6.2317,6.2356,6.2124,6.218,6.2799,6.3208,6.3293,6.3496,6.3633,6.3926,6.4492,6.4707,6.4687,6.4453,6.414,6.4219,6.459,6.4785,6.5039,6.5176,6.5293,6.541,6.5566,6.5898,6.5976,6.5488,6.541,6.5644,6.5879,6.623,5.5849,5.6804,5.7116,5.7501,5.7941,5.7978,5.7978,5.7978,5.796,5.7528,5.6912,5.6793,5.6381,5.5757,5.5317,5.517,5.5152,5.484,5.5085,5.5122,5.5159,5.5556,5.587,5.6081,5.682,5.7235,5.7761,5.8424,5.9157,5.9583,6.0063,6.0475,6.0666,6.0757,6.08,6.08,6.08,6.08,6.08,6.08,6.08,6.08,6.08,6.08,6.08,6.08,6.08,6.08,6.08,6.08,6.08,6.08,6.08,6.08,6.08,6.08,6.08,6.08,6.08,6.08,6.08,6.08,6.08,6.08,6.08,6.08,6.08,6.08,6.08,6.0858,6.092,6.0927,6.1334,6.1417,6.1788,6.2197,6.251,6.2761,6.2955,6.3593,6.3845,6.3806,6.3806,6.3594,6.3323,6.3381,6.3458,6.3207,6.2975,6.3516,6.4039,6.4081,6.4273,6.4453,6.4726,6.5176,6.5312,6.5234,6.5098,6.4941,6.5273,6.5723,6.5801,6.5859,6.5976,6.6172,6.6543,6.6797,6.664,6.6543,6.6328,6.6445,6.6855,6.6894,6.6894,5.6822,5.6969,5.7666,5.796,5.7978,5.7978,5.7978,5.7978,5.7978,5.751,5.6735,5.6665,5.6069,5.5335,5.4656,5.4454,5.4473,5.3849,5.4167,5.4559,5.5061,5.5702,5.6365,5.6841,5.7334,5.8116,5.8617,5.8706,5.943,5.9899,6.0321,6.0628,6.0738,6.0781,6.08,6.08,6.08,6.08,6.08,6.08,6.08,6.08,6.08,6.08,6.08,6.08,6.08,6.08,6.08,6.08,6.08,6.08,6.08,6.08,6.08,6.08,6.08,6.08,6.08,6.08,6.08,6.0819,6.0935,6.0858,6.08,6.08,6.08,6.0896,6.0954,6.0954,6.0977,6.155,6.2127,6.2444,6.2795,6.3152,6.345,6.3647,6.3745,6.4018,6.4155,6.4213,6.4309,6.4213,6.4367,6.4463,6.4502,6.4483,6.4251,6.4116,6.4522,6.4561,6.4834,6.5213,6.5547,6.584,6.6035,6.5976,6.623,6.623,6.6562,6.6543,6.6445,6.6465,6.6719,6.6894,6.6894,6.6894,6.6855,6.6777,6.666,6.6719,6.6894,6.6894,6.6894,5.7116,5.7666,5.7905,5.7978,5.7978,5.7978,5.7978,5.7978,5.796,5.7289,5.5948,5.5967,5.5299,5.3904,5.3647,5.3959,5.4142,5.4289,5.4669,5.5098,5.5693,5.6316,5.685,5.7363,5.7831,5.8164,5.8563,5.8812,5.9178,5.9785,6.0242,6.0426,6.0666,6.0742,6.0781,6.08,6.08,6.08,6.08,6.08,6.08,6.08,6.08,6.08,6.08,6.08,6.08,6.08,6.08,6.08,6.08,6.08,6.08,6.08,6.08,6.08,6.08,6.08,6.08,6.08,6.0839,6.1012,6.132,6.1243,6.105,6.0954,6.0993,6.1223,6.1512,6.1647,6.1897,6.2397,6.2853,6.3205,6.3599,6.3958,6.4257,6.4475,6.4614,6.4907,6.5044,6.5025,6.5083,6.5199,6.5354,6.5488,6.5527,6.547,6.5373,6.516,6.5083,6.5141,6.5335,6.5727,6.6056,6.6348,6.6601,6.6797,6.6875,6.6875,6.6816,6.6777,6.6855,6.6894,6.6894,6.6894,6.6894,6.6894,6.6894,6.6894,6.6816,6.6855,6.6894,6.6894,6.6894,5.7556,5.796,5.7978,5.7978,5.7978,5.7978,5.7978,5.7978,5.7978,5.7097,5.5684,5.5611,5.4711,5.3518,5.361,5.3995,5.4399,5.4803,5.5331,5.6061,5.665,5.694,5.7391,5.7712,5.7905,5.8142,5.8301,5.854,5.8831,5.9357,5.987,6.0354,6.0569,6.0685,6.0742,6.08,6.08,6.08,6.08,6.08,6.08,6.08,6.08,6.08,6.08,6.08,6.08,6.08,6.08,6.08,6.08,6.08,6.08,6.08,6.08,6.08,6.08,6.08,6.08,6.08,6.0973,6.1339,6.182,6.1954,6.2012,6.2031,6.2012,6.2089,6.2358,6.2627,6.2916,6.3243,6.3545,6.3866,6.4311,6.4729,6.5029,6.5286,6.5621,6.5991,6.6089,6.605,6.6108,6.6205,6.6166,6.6011,6.5953,6.5915,6.5895,6.5818,6.576,6.5779,6.5953,6.6225,6.6474,6.6579,6.668,6.6758,6.6797,6.6816,6.6855,6.6894,6.6894,6.6894,6.6894,6.6894,6.6894,6.6894,6.6894,6.6894,6.6894,6.6894,6.6894,6.6894,6.6894,5.7978,5.7978,5.7978,5.7978,5.7978,5.7978,5.7978,5.796,5.7886,5.7024,5.5757,5.5482,5.4656,5.372,5.3977,5.4473,5.5005,5.55,5.6279,5.6938,5.725,5.7629,5.7969,5.8088,5.8189,5.8116,5.8133,5.8294,5.8406,5.891,5.9625,6.0252,6.0392,6.0704,6.1228,6.1012,6.1108,6.1435,6.1069,6.08,6.08,6.08,6.08,6.08,6.08,6.08,6.08,6.08,6.08,6.08,6.08,6.08,6.08,6.08,6.08,6.1012,6.1089,6.1262,6.1358,6.1435,6.1685,6.1993,6.2281,6.2781,6.3051,6.2839,6.2724,6.2839,6.307,6.3339,6.3652,6.3858,6.4141,6.418,6.4364,6.4768,6.5084,6.544,6.5932,6.6205,6.6205,6.6205,6.6205,6.6205,6.6205,6.6205,6.6205,6.6205,6.6205,6.6205,6.6205,6.6205,6.6224,6.6282,6.6399,6.6485,6.6556,6.6621,6.6699,6.6758,6.6797,6.6855,6.6894,6.6894,6.6894,6.6894,6.6894,6.6894,6.6894,6.6894,6.6894,6.6894,6.6894,6.6894,6.6894,5.7978,5.7978,5.7978,5.7978,5.7978,5.7978,5.796,5.7941,5.7299,5.652,5.5629,5.4987,5.4528,5.4179,5.4418,5.5042,5.6124,5.6547,5.7381,5.8189,5.8538,5.8548,5.8879,5.8887,5.863,5.8189,5.8042,5.829,5.857,5.8948,5.9457,6.0261,6.0544,6.109,6.2023,6.1741,6.1666,6.2224,6.157,6.1127,6.105,6.0877,6.08,6.0858,6.0896,6.0973,6.0973,6.0916,6.0858,6.08,6.08,6.08,6.08,6.0819,6.1166,6.1627,6.1805,6.2036,6.23,6.2416,6.2608,6.3031,6.3435,6.3935,6.4032,6.3589,6.3435,6.3589,6.3801,6.4089,6.4243,6.4455,6.4512,6.4422,6.4306,6.4686,6.5045,6.5559,6.6068,6.6126,6.6147,6.6205,6.6205,6.6205,6.6205,6.6205,6.6205,6.6205,6.6205,6.6205,6.6205,6.6205,6.6205,6.6264,6.6342,6.6418,6.6456,6.6555,6.664,6.668,6.6738,6.6797,6.6855,6.6894,6.6894,6.6894,6.6894,6.6894,6.6894,6.6894,6.6894,6.6894,6.6894,6.6894,6.6894,5.7978,5.7978,5.7978,5.7978,5.7923,5.762,5.7474,5.7244,5.6255,5.5733,5.5592,5.5152,5.4741,5.4748,5.5097,5.5996,5.7262,5.774,5.8584,5.9403,5.9724,5.9685,5.9722,5.9732,5.9549,5.9145,5.9079,5.9228,5.9181,5.9527,6.0123,6.0725,6.1114,6.1635,6.263,6.2395,6.2474,6.3166,6.2243,6.1954,6.1781,6.1608,6.1685,6.1704,6.1882,6.1843,6.1882,6.1863,6.167,6.1516,6.1416,6.1416,6.157,6.1858,6.2185,6.2474,6.2666,6.2844,6.3205,6.3392,6.3392,6.3666,6.4109,6.4416,6.3916,6.3589,6.4397,6.4589,6.4878,6.5166,6.4609,6.4584,6.421,6.3965,6.3849,6.3993,6.4409,6.4923,6.5294,6.5528,6.574,6.6205,6.6205,6.6205,6.6205,6.6205,6.6205,6.6205,6.6205,6.6205,6.6205,6.6205,6.6205,6.6205,6.6264,6.6302,6.6341,6.6439,6.6562,6.6621,6.668,6.6758,6.6816,6.6855,6.6875,6.6894,6.6894,6.6894,6.6894,6.6894,6.6894,6.6894,6.6894,6.6894,6.6894,5.7978,5.7978,5.7978,5.7923,5.7776,5.7116,5.6813,5.6557,5.5268,5.5103,5.5831,5.5907,5.5375,5.5482,5.6198,5.7226,5.8143,5.8822,5.9724,6.0341,6.0551,6.0584,6.0543,6.0543,6.0346,6.0228,6.0107,6.0191,6.0267,6.0425,6.0609,6.1352,6.1756,6.2023,6.2694,6.2962,6.3174,6.3526,6.3339,6.3397,6.3128,6.2743,6.2743,6.3036,6.3286,6.3295,6.3276,6.3156,6.2829,6.2574,6.2243,6.2224,6.2339,6.2666,6.3108,6.3378,6.3474,6.3628,6.3839,6.3988,6.3776,6.3795,6.432,6.4262,6.3743,6.3897,6.4686,6.4993,6.5282,6.5224,6.4622,6.4122,6.369,6.3368,6.3276,6.3218,6.3676,6.4168,6.4519,6.4811,6.5314,6.5836,6.5992,6.6011,6.6166,6.6166,6.6185,6.6185,6.6205,6.6205,6.6205,6.6205,6.6205,6.6205,6.6224,6.6243,6.6282,6.6342,6.6458,6.6524,6.6621,6.6699,6.6777,6.6836,6.6855,6.6875,6.6894,6.6894,6.6894,6.6894,6.6894,6.6894,6.6894,6.6894,6.6894,5.7978,5.7978,5.7978,5.7629,5.7052,5.6823,5.6795,5.6654,5.5815,5.5797,5.6573,5.7198,5.7078,5.64,5.7281,5.8253,5.9189,5.9887,6.0596,6.1298,6.136,6.1361,6.1385,6.1349,6.0976,6.0774,6.0658,6.0474,6.0908,6.0779,6.0901,6.1753,6.1929,6.2498,6.3518,6.371,6.3756,6.4123,6.4103,6.3943,6.4609,6.4128,6.3281,6.3281,6.3301,6.3281,6.3301,6.3295,6.3194,6.3117,6.3065,6.3089,6.3205,6.3435,6.3858,6.4262,6.4339,6.4609,6.4801,6.482,6.4609,6.3993,6.4262,6.3955,6.3531,6.3224,6.3647,6.357,6.3762,6.3834,6.3411,6.2969,6.2551,6.2463,6.2371,6.2371,6.2632,6.3216,6.3722,6.4112,6.4539,6.4946,6.5198,6.5469,6.6031,6.6069,6.6147,6.6166,6.6185,6.6205,6.6205,6.6205,6.6205,6.6205,6.6205,6.6205,6.6243,6.6282,6.6341,6.6439,6.6544,6.6663,6.6719,6.6777,6.6836,6.6875,6.6875,6.6894,6.6894,6.6894,6.6894,6.6894,6.6894,6.6894,6.6894]},{"header":{"parameterUnit":"m.s-1","parameterCategory":1,"la1":31.0,"la2":29.5877,"lo1":-88.7671,"lo2":-86.6584,"dy":0.0162,"dx":0.0185,"nx":115,"ny":88,"refTime":"2025-01-04T06:00:00:Z","depth":0,"parameterNumber":3,"parameterNumberName":"V-component_of_WINDS"},"data":[0.0,0.0,0.0,0.0,0.0,0.0,0.0,0.0,0.0,0.0,0.0,0.0,0.0,0.0,0.0,0.0,0.0,0.0,0.0,0.0,0.0,0.0,0.0,0.0,0.0,0.0,0.0,0.0,0.0,0.0,0.0,0.0,0.0,0.0,0.0,0.0,0.0,0.0,0.0,0.0,0.0,0.0,0.0,0.0,0.0,0.0,0.0,0.0,0.0,0.0,0.0,0.0,0.0,0.0,0.0,0.0,0.0,0.0,0.0,0.0,0.0,0.0,0.0,0.0,0.0,0.0,0.0,0.0,0.0,0.0,0.0,0.0,0.0,0.0,0.0,0.0,0.0,0.0,0.0,0.0,0.0,0.0,0.0,0.0,0.0,0.0,0.0,0.0,0.0,0.0,0.0,0.0,0.0,0.0,0.0,0.0,0.0,0.0,0.0,0.0,0.0,0.0,0.0,0.0,0.0,0.0,0.0,0.0,0.0,0.0,0.0,0.0,0.0,0.0,0.0,0.0,0.0,0.0,0.0,0.0,0.0,0.0,0.0,0.0,0.0,0.0,0.0,0.0,0.0,0.0,0.0,0.0,0.0,0.0,0.0,0.0,0.0,0.0,0.0,0.0,0.0,0.0,0.0,0.0,0.0,0.0,0.0,0.0,0.0,0.0,0.0,0.0,0.0,0.0,0.0,0.0,0.0,0.0,0.0,0.0,0.0,0.0,0.0,0.0,0.0,0.0,0.0,0.0,0.0,0.0,0.0,0.0,0.0,0.0,0.0,0.0,0.0,0.0,0.0,0.0,0.0,0.0,0.0,0.0,0.0,0.0,0.0,0.0,0.0,0.0,0.0,0.0,0.0,0.0,0.0,0.0,0.0,0.0,0.0,0.0,0.0,0.0,0.0,0.0,0.0,0.0,0.0,0.0,0.0,0.0,0.0,0.0,0.0,0.0,0.0,0.0,0.0,0.0,0.0,0.0,0.0,0.0,0.0,0.0,0.0,0.0,0.0,0.0,0.0,0.0,0.0,0.0,0.0,0.0,0.0,0.0,0.0,0.0,0.0,0.0,0.0,0.0,0.0,0.0,0.0,0.0,0.0,0.0,0.0,0.0,0.0,0.0,0.0,0.0,0.0,0.0,0.0,0.0,0.0,0.0,0.0,0.0,0.0,0.0,0.0,0.0,0.0,0.0,0.0,0.0,0.0,0.0,0.0,0.0,0.0,0.0,0.0,0.0,0.0,0.0,0.0,0.0,0.0,0.0,0.0,0.0,0.0,0.0,0.0,0.0,0.0,0.0,0.0,0.0,0.0,0.0,0.0,0.0,0.0,0.0,0.0,0.0,0.0,0.0,0.0,0.0,0.0,0.0,0.0,0.0,0.0,0.0,0.0,0.0,0.0,0.0,0.0,0.0,0.0,0.0,0.0,0.0,0.0,0.0,0.0,0.0,0.0,0.0,0.0,0.0,0.0,0.0,0.0,0.0,0.0,0.0,0.0,0.0,0.0,0.0,0.0,0.0,0.0,0.0,0.0,0.0,0.0,0.0,0.0,0.0,0.0,0.0,0.0,0.0,0.0,0.0,0.0,0.0,0.0,0.0,0.0,0.0,0.0,0.0,0.0,0.0,0.0,0.0,0.0,0.0,0.0,0.0,0.0,0.0,0.0,0.0,0.0,0.0,0.0,0.0,0.0,0.0,0.0,0.0,0.0,0.0,0.0,0.0,0.0,0.0,0.0,0.0,0.0,0.0,0.0,0.0,0.0,0.0,0.0,0.0,0.0,0.0,0.0,0.0,0.0,0.0,0.0,0.0,0.0,0.0,0.0,0.0,0.0,0.0,0.0,0.0,0.0,0.0,0.0,0.0,0.0,0.0,0.0,0.0,0.0,0.0,0.0,0.0,0.0,0.0,0.0,0.0,0.0,0.0,0.0,0.0,0.0,0.0,0.0,0.0,0.0,0.0,0.0,0.0,0.0,0.0,0.0,0.0,0.0,0.0,0.0,0.0,0.0,0.0,0.0,0.0,0.0,0.0,0.0,0.0,0.0,0.0,0.0,0.0,0.0,0.0,0.0,0.0,0.0,0.0,0.0,0.0,0.0,0.0,0.0,0.0,0.0,0.0,0.0,0.0,0.0,0.0,0.0,0.0,0.0,0.0,0.0,0.0,0.0,0.0,0.0,0.0,0.0,0.0,0.0,0.0,0.0,0.0,0.0,0.0,0.0,0.0,0.0,0.0,0.0,0.0,0.0,0.0,0.0,0.0,0.0,0.0,0.0,0.0,0.0,0.0,0.0,0.0,0.0,0.0,0.0,0.0,0.0,0.0,0.0,0.0,0.0,0.0,0.0,0.0,0.0,0.0,0.0,0.0,0.0,0.0,0.0,0.0,0.0,0.0,0.0,0.0,0.0,0.0,0.0,0.0,0.0,0.0,0.0,0.0,0.0,0.0,0.0,0.0,0.0,0.0,0.0,0.0,0.0,0.0,0.0,0.0,0.0,0.0,0.0,0.0,0.0,0.0,0.0,0.0,0.0,0.0,0.0,0.0,0.0,0.0,0.0,0.0,0.0,0.0,0.0,0.0,0.0,0.0,0.0,0.0,0.0,0.0,0.0,0.0,0.0,0.0,0.0,0.0,0.0,0.0,0.0,0.0,0.0,0.0,0.0,0.0,0.0,0.0,0.0,0.0,0.0,0.0,0.0,0.0,0.0,0.0,0.0,0.0,0.0,0.0,0.0,0.0,0.0,0.0,0.0,0.0,0.0,0.0,0.0,0.0,0.0,0.0,0.0,0.0,0.0,0.0,0.0,0.0,0.0,0.0,0.0,0.0,0.0,0.0,0.0,0.0,0.0,0.0,0.0,0.0,0.0,0.0,0.0,0.0,0.0,0.0,0.0,0.0,0.0,0.0,0.0,0.0,0.0,0.0,0.0,0.0,0.0,0.0,0.0,0.0,0.0,0.0,0.0,0.0,0.0,0.0,0.0,0.0,0.0,0.0,0.0,0.0,0.0,0.0,0.0,0.0,0.0,0.0,0.0,0.0,0.0,0.0,0.0,0.0,0.0,0.0,0.0,0.0,0.0,0.0,0.0,0.0,0.0,0.0,0.0,0.0,0.0,0.0,0.0,0.0,0.0,0.0,0.0,0.0,0.0,0.0,0.0,0.0,0.0,0.0,0.0,0.0,0.0,0.0,0.0,0.0,0.0,0.0,0.0,0.0,0.0,0.0,0.0,0.0,0.0,0.0,0.0,0.0,0.0,0.0,0.0,0.0,0.0,0.0,0.0,0.0,0.0,0.0,0.0,0.0,0.0,0.0,0.0,0.0,0.0,0.0,0.0,0.0,0.0,0.0,0.0,0.0,0.0,0.0,0.0,0.0,0.0,0.0,0.0,0.0,0.0,0.0,0.0,0.0,0.0,0.0,0.0,0.0,0.0,0.0,0.0,0.0,0.0,0.0,0.0,0.0,0.0,0.0,0.0,0.0,0.0,0.0,0.0,0.0,0.0,0.0,0.0,0.0,0.0,0.0,0.0,0.0,0.0,0.0,0.0,0.0,0.0,0.0,0.0,0.0,0.0,0.0,0.0,0.0,0.0,0.0,0.0,0.0,0.0,0.0,0.0,0.0,0.0,0.0,0.0,0.0,0.0,0.0,0.0,0.0,0.0,0.0,0.0,0.0,0.0,0.0,0.0,0.0,0.0,0.0,0.0,0.0,0.0,0.0,0.0,0.0,0.0,0.0,0.0,0.0,0.0,0.0,0.0,0.0,0.0,0.0,0.0,0.0,0.0,0.0,0.0,0.0,0.0,0.0,0.0,0.0,0.0,0.0,0.0,0.0,0.0,0.0,0.0,0.0,0.0,0.0,0.0,0.0,0.0,0.0,0.0,0.0,0.0,0.0,0.0,0.0,0.0,0.0,0.0,0.0,0.0,0.0,0.0,0.0,0.0,0.0,0.0,0.0,0.0,0.0,0.0,0.0,0.0,0.0,0.0,0.0,0.0,0.0,0.0,0.0,0.0,0.0,0.0,0.0,0.0,0.0,0.0,0.0,0.0,0.0,0.0,0.0,0.0,0.0,0.0,0.0,0.0,0.0,0.0,0.0,0.0,0.0,0.0,0.0,0.0,0.0,0.0,0.0,0.0,0.0,0.0,0.0,0.0,0.0,0.0,0.0,0.0,0.0,0.0,0.0,0.0,0.0,0.0,0.0,0.0,0.0,0.0,0.0,0.0,0.0,0.0,0.0,0.0,0.0,0.0,0.0,0.0,0.0,0.0,0.0,0.0,0.0,0.0,0.0,0.0,0.0,0.0,0.0,0.0,0.0,0.0,0.0,0.0,0.0,0.0,0.0,0.0,0.0,0.0,0.0,0.0,0.0,0.0,0.0,0.0,0.0,0.0,0.0,0.0,0.0,0.0,0.0,0.0,0.0,0.0,0.0,0.0,0.0,0.0,0.0,0.0,0.0,0.0,0.0,0.0,0.0,0.0,0.0,0.0,0.0,0.0,0.0,0.0,0.0,0.0,0.0,0.0,0.0,0.0,0.0,0.0,0.0,0.0,0.0,0.0,0.0,0.0,0.0,0.0,0.0,0.0,0.0,0.0,0.0,0.0,0.0,0.0,0.0,0.0,0.0,0.0,0.0,0.0,0.0,0.0,0.0,0.0,0.0,0.0,0.0,0.0,0.0,0.0,0.0,0.0,0.0,0.0,0.0,0.0,0.0,0.0,0.0,0.0,0.0,0.0,0.0,0.0,0.0,0.0,0.0,0.0,0.0,0.0,0.0,0.0,0.0,0.0,0.0,0.0,0.0,0.0,0.0,0.0,0.0,0.0,0.0,0.0,0.0,0.0,0.0,0.0,0.0,0.0,0.0,0.0,0.0,0.0,0.0,0.0,0.0,0.0,0.0,0.0,0.0,0.0,0.0,0.0,0.0,0.0,0.0,0.0,0.0,0.0,0.0,0.0,0.0,0.0,0.0,0.0,0.0,0.0,0.0,0.0,0.0,0.0,0.0,0.0,0.0,0.0,0.0,0.0,0.0,0.0,0.0,0.0,0.0,0.0,0.0,0.0,0.0,0.0,0.0,0.0,0.0,0.0,0.0,0.0,0.0,0.0,0.0,0.0,0.0,0.0,0.0,0.0,0.0,0.0,0.0,0.0,0.0,0.0,0.0,0.0,0.0,0.0,0.0,0.0,0.0,0.0,0.0,0.0,0.0,0.0,0.0,0.0,0.0,0.0,0.0,0.0,0.0,0.0,0.0,0.0,0.0,0.0,0.0,0.0,0.0,0.0,0.0,0.0,0.0,0.0,0.0,0.0,0.0,0.0,0.0,0.0,0.0,0.0,0.0,0.0,0.0,0.0,0.0,0.0,0.0,0.0,0.0,0.0,0.0,0.0,0.0,0.0,0.0,0.0,0.0,0.0,0.0,0.0,0.0,0.0,0.0,0.0,0.0,0.0,0.0,0.0,0.0,0.0,0.0,0.0,0.0,0.0,0.0,0.0,0.0,0.0,0.0,0.0,0.0,0.0,0.0,0.0,0.0,0.0,0.0,0.0,0.0,0.0,0.0,0.0,0.0,0.0,0.0,0.0,0.0,0.0,0.0,0.0,0.0,0.0,0.0,0.0,0.0,0.0,0.0,0.0,0.0,0.0,0.0,0.0,0.0,0.0,0.0,0.0,0.0,0.0,0.0,0.0,0.0,0.0,0.0,0.0,0.0,0.0,0.0,0.0,0.0,0.0,0.0,0.0,0.0,0.0,0.0,0.0,0.0,0.0,0.0,0.0,0.0,0.0,0.0,0.0,0.0,0.0,0.0,0.0,0.0,0.0,0.0,0.0,0.0,0.0,0.0,0.0,0.0,0.0,0.0,0.0,0.0,0.0,0.0,0.0,0.0,0.0,0.0,0.0,0.0,0.0,0.0,0.0,0.0,0.0,0.0,0.0,0.0,0.0,0.0,0.0,0.0,0.0,0.0,0.0,0.0,0.0,0.0,0.0,0.0,0.0,0.0,0.0,0.0,0.0,0.0,0.0,0.0,0.0,0.0,0.0,0.0,0.0,0.0,0.0,0.0,0.0,0.0,0.0,0.0,0.0,0.0,0.0,0.0,0.0,0.0,0.0,0.0,0.0,0.0,0.0,0.0,0.0,0.0,0.0,0.0,0.0,0.0,0.0,0.0,0.0,0.0,0.0,0.0,0.0,0.0,0.0,0.0,0.0,0.0,0.0,0.0,0.0,0.0,0.0,0.0,0.0,0.0,0.0,0.0,0.0,0.0,0.0,0.0,0.0,0.0,0.0,0.0,0.0,0.0,0.0,0.0,0.0,0.0,0.0,0.0,0.0,0.0,0.0,0.0,0.0,0.0,0.0,0.0,0.0,0.0,0.0,0.0,0.0,0.0,0.0,0.0,0.0,0.0,0.0,0.0,0.0,0.0,0.0,0.0,0.0,0.0,0.0,0.0,0.0,0.0,0.0,0.0,0.0,0.0,0.0,0.0,0.0,0.0,0.0,0.0,0.0,0.0,0.0,0.0,0.0,0.0,0.0,0.0,0.0,0.0,0.0,0.0,0.0,0.0,0.0,0.0,0.0,0.0,0.0,0.0,0.0,0.0,0.0,0.0,0.0,0.0,0.0,0.0,0.0,0.0,0.0,0.0,0.0,0.0,0.0,0.0,0.0,0.0,0.0,0.0,0.0,0.0,0.0,0.0,0.0,0.0,0.0,0.0,0.0,0.0,0.0,0.0,0.0,0.0,0.0,0.0,0.0,0.0,0.0,0.0,0.0,0.0,0.0,0.0,0.0,0.0,0.0,0.0,0.0,0.0,0.0,0.0,0.0,0.0,0.0,0.0,0.0,0.0,0.0,0.0,0.0,0.0,0.0,0.0,0.0,0.0,0.0,0.0,0.0,0.0,0.0,0.0,0.0,0.0,0.0,0.0,0.0,0.0,0.0,0.0,0.0,0.0,0.0,0.0,0.0,0.0,0.0,0.0,0.0,0.0,0.0,0.0,0.0,0.0,0.0,0.0,0.0,0.0,0.0,0.0,0.0,0.0,0.0,0.0,0.0,0.0,0.0,0.0,0.0,0.0,0.0,0.0,0.0,0.0,0.0,0.0,0.0,0.0,0.0,0.0,0.0,0.0,0.0,0.0,0.0,0.0,0.0,0.0,0.0,0.0,0.0,0.0,0.0,0.0,0.0,0.0,0.0,0.0,0.0,0.0,0.0,0.0,0.0,0.0,0.0,0.0,0.0,0.0,0.0,0.0,0.0,0.0,0.0,0.0,0.0,0.0,0.0,0.0,0.0,0.0,0.0,0.0,0.0,0.0,0.0,0.0,0.0,0.0,0.0,0.0,0.0,0.0,0.0,0.0,0.0,0.0,0.0,0.0,0.0,0.0,0.0,0.0,0.0,0.0,0.0,0.0,0.0,0.0,0.0,0.0,0.0,0.0,0.0,0.0,0.0,0.0,0.0,0.0,0.0,0.0,0.0,0.0,0.0,0.0,0.0,0.0,0.0,0.0,0.0,0.0,0.0,0.0,0.0,0.0,0.0,0.0,0.0,0.0,0.0,0.0,0.0,0.0,0.0,0.0,0.0,0.0,0.0,0.0,0.0,0.0,0.0,0.0,0.0,0.0,0.0,0.0,0.0,0.0,0.0,0.0,0.0,0.0,0.0,0.0,0.0,0.0,0.0,0.0,0.0,0.0,0.0,0.0,0.0,0.0,0.0,0.0,0.0,0.0,0.0,0.0,0.0,0.0,0.0,0.0,0.0,0.0,0.0,0.0,0.0,0.0,0.0,0.0,0.0,0.0,0.0,0.0,0.0,0.0,0.0,0.0,0.0,0.0,0.0,0.0,0.0,0.0,0.0,0.0,0.0,0.0,0.0,0.0,0.0,0.0,0.0,0.0,0.0,0.0,0.0,0.0,0.0,0.0,0.0,0.0,0.0,0.0,0.0,0.0,0.0,0.0,0.0,0.0,0.0,0.0,0.0,0.0,0.0,0.0,0.0,0.0,0.0,0.0,0.0,0.0,0.0,0.0,0.0,0.0,0.0,0.0,0.0,0.0,0.0,0.0,0.0,0.0,0.0,0.0,0.0,0.0,0.0,0.0,0.0,0.0,0.0,0.0,0.0,0.0,0.0,0.0,0.0,0.0,0.0,0.0,0.0,0.0,0.0,0.0,0.0,0.0,0.0,0.0,0.0,0.0,0.0,0.0,0.0,0.0,0.0,0.0,0.0,0.0,0.0,0.0,0.0,0.0,0.0,0.0,0.0,0.0,0.0,0.0,0.0,0.0,0.0,0.0,0.0,0.0,0.0,0.0,0.0,0.0,0.0,0.0,0.0,0.0,0.0,0.0,0.0,0.0,0.0,0.0,0.0,0.0,0.0,0.0,0.0,0.0,0.0,0.0,0.0,0.0,0.0,0.0,0.0,0.0,0.0,0.0,0.0,0.0,0.0,0.0,0.0,0.0,0.0,0.0,0.0,0.0,0.0,0.0,0.0,0.0,0.0,0.0,0.0,0.0,0.0,0.0,0.0,0.0,0.0,0.0,0.0,0.0,0.0,0.0,0.0,0.0,0.0,0.0,0.0,0.0,0.0,0.0,0.0,0.0,0.0,0.0,0.0,0.0,0.0,0.0,0.0,0.0,0.0,0.0,0.0,0.0,0.0,0.0,0.0,0.0,0.0,0.0,0.0,0.0,0.0,0.0,0.0,0.0,0.0,0.0,0.0,0.0,0.0,0.0,0.0,0.0,0.0,0.0,0.0,0.0,0.0,0.0,0.0,0.0,0.0,0.0,0.0,0.0,0.0,0.0,0.0,0.0,0.0,0.0,0.0,0.0,0.0,0.0,0.0,0.0,0.0,0.0,0.0,0.0,0.0,0.0,0.0,0.0,0.0,0.0,0.0,0.0,0.0,0.0,0.0,0.0,0.0,0.0,0.0,0.0,0.0,0.0,0.0,0.0,0.0,0.0,0.0,0.0,0.0,0.0,0.0,0.0,0.0,0.0,0.0,0.0,0.0,0.0,0.0,0.0,0.0,0.0,0.0,0.0,0.0,0.0,0.0,0.0,0.0,0.0,0.0,0.0,0.0,0.0,0.0,0.0,0.0,0.0,0.0,0.0,0.0,0.0,0.0,0.0,0.0,0.0,0.0,0.0,0.0,0.0,0.0,0.0,0.0,0.0,0.0,0.0,0.0,0.0,0.0,0.0,0.0,0.0,0.0,0.0,0.0,0.0,0.0,0.0,0.0,0.0,0.0,0.0,0.0,0.0,0.0,0.0,0.0,0.0,0.0,0.0,0.0,0.0,0.0,0.0,0.0,0.0,0.0,0.0,0.0,0.0,0.0,0.0,0.0,0.0,0.0,0.0,0.0,0.0,0.0,0.0,0.0,0.0,0.0,0.0,0.0,0.0,0.0,0.0,0.0,0.0,0.0,0.0,0.0,0.0,0.0,0.0,0.0,0.0,0.0,0.0,0.0,0.0,0.0,0.0,0.0,0.0,0.0,0.0,0.0,0.0,0.0,0.0,0.0,0.0,0.0,0.0,0.0,0.0,0.0,0.0,0.0,0.0,0.0,0.0,0.0,0.0,0.0,0.0,0.0,0.0,0.0,0.0,0.0,0.0,0.0,0.0,0.0,0.0,0.0,0.0,0.0,0.0,0.0,0.0,0.0,0.0,0.0,0.0,0.0,0.0,0.0,0.0,0.0,0.0,0.0,0.0,0.0,0.0,0.0,0.0,0.0,0.0,0.0,0.0,0.0,0.0,0.0,0.0,0.0,0.0,0.0,0.0,0.0,0.0,0.0,0.0,0.0,0.0,0.0,0.0,0.0,0.0,0.0,0.0,0.0,0.0,0.0,0.0,0.0,0.0,0.0,0.0,0.0,0.0,0.0,0.0,0.0,0.0,0.0,0.0,0.0,0.0,0.0,0.0,0.0,0.0,0.0,0.0,0.0,0.0,0.0,0.0,0.0,0.0,0.0,0.0,0.0,0.0,0.0,0.0,0.0,0.0,0.0,0.0,0.0,0.0,0.0,0.0,0.0,0.0,0.0,0.0,0.0,0.0,0.0,0.0,0.0,0.0,0.0,0.0,0.0,0.0,0.0,0.0,0.0,0.0,0.0,0.0,0.0,0.0,0.0,0.0,0.0,0.0,0.0,0.0,0.0,0.0,0.0,0.0,0.0,0.0,0.0,0.0,0.0,0.0,0.0,0.0,0.0,0.0,0.0,0.0,0.0,0.0,0.0,0.0,0.0,0.0,0.0,0.0,0.0,0.0,0.0,0.0,0.0,0.0,0.0,0.0,0.0,0.0,0.0,0.0,0.0,0.0,0.0,0.0,0.0,0.0,0.0,0.0,0.0,0.0,0.0,0.0,0.0,0.0,0.0,0.0,0.0,0.0,0.0,0.0,0.0,0.0,0.0,0.0,0.0,0.0,0.0,0.0,0.0,0.0,0.0,0.0,0.0,0.0,0.0,0.0,0.0,0.0,0.0,0.0,0.0,0.0,0.0,0.0,0.0,0.0,0.0,0.0,0.0,0.0,0.0,0.0,0.0,0.0,0.0,0.0,0.0,0.0,0.0,0.0,0.0,0.0,0.0,0.0,0.0,0.0,0.0,0.0,0.0,0.0,0.0,0.0,0.0,0.0,0.0,0.0,0.0,0.0,0.0,0.0,0.0,0.0,0.0,0.0,0.0,0.0,0.0,0.0,0.0,0.0,0.0,0.0,0.0,0.0,0.0,0.0,0.0,0.0,0.0,0.0,0.0,0.0,0.0,0.0,0.0,0.0,0.0,0.0,0.0,0.0,0.0,0.0,0.0,0.0,0.0,0.0,0.0,0.0,0.0,0.0,0.0,0.0,0.0,0.0,0.0,0.0,0.0,0.0,0.0,0.0,0.0,0.0,0.0,0.0,0.0,0.0,0.0,0.0,0.0,0.0,0.0,0.0,0.0,0.0,0.0,0.0,0.0,0.0,0.0,0.0,0.0,0.0,0.0,0.0,0.0,0.0,0.0,0.0,0.0,0.0,0.0,0.0,0.0,0.0,0.0,0.0,0.0,0.0,0.0,0.0,0.0,0.0,0.0,0.0,0.0,0.0,0.0,0.0,0.0,0.0,0.0,0.0,0.0,0.0,0.0,0.0,0.0,0.0,0.0,0.0,0.0,0.0,0.0,0.0,0.0,0.0,0.0,0.0,0.0,0.0,0.0,0.0,0.0,0.0,0.0,0.0,0.0,0.0,0.0,0.0,0.0,0.0,0.0,0.0,0.0,0.0,0.0,0.0,0.0,0.0,0.0,0.0,0.0,0.0,0.0,0.0,0.0,0.0,0.0,0.0,0.0,0.0,0.0,0.0,0.0,0.0,0.0,0.0,0.0,0.0,0.0,0.0,0.0,0.0,0.0,0.0,0.0,0.0,0.0,0.0,0.0,0.0,0.0,0.0,0.0,0.0,0.0,0.0,0.0,0.0,0.0,0.0,0.0,0.0,0.0,0.0,0.0,0.0,0.0,0.0,0.0,0.0,0.0,0.0,0.0,0.0,0.0,0.0,0.0,0.0,0.0,0.0,0.0,0.0,0.0,0.0,0.0,0.0,0.0,0.0,0.0,0.0,0.0,0.0,0.0,0.0,0.0,0.0,0.0,0.0,0.0,0.0,0.0,0.0,0.0,0.0,0.0,0.0,0.0,0.0,0.0,0.0,0.0,0.0,0.0,0.0,0.0,0.0,0.0,0.0,0.0,0.0,0.0,0.0,0.0,0.0,0.0,0.0,0.0,0.0,0.0,0.0,0.0,0.0,0.0,0.0,0.0,0.0,0.0,0.0,0.0,0.0,0.0,0.0,0.0,0.0,0.0,0.0,0.0,0.0,0.0,0.0,0.0,0.0,0.0,0.0,0.0,0.0,0.0,0.0,0.0,0.0,0.0,0.0,0.0,0.0,0.0,0.0,0.0,0.0,0.0,0.0,0.0,0.0,0.0,0.0,0.0,0.0,0.0,0.0,0.0,0.0,0.0,0.0,0.0,0.0,0.0,0.0,0.0,0.0,0.0,0.0,0.0,0.0,0.0,0.0,0.0,0.0,0.0,0.0,0.0,0.0,0.0,0.0,0.0,0.0,0.0,0.0,0.0,0.0,0.0,0.0,0.0,0.0,0.0,0.0,0.0,0.0,0.0,0.0,0.0,0.0,0.0,0.0,0.0,0.0,0.0,0.0,0.0,0.0,0.0,0.0,0.0,0.0,0.0,0.0,0.0,0.0,0.0,0.0,0.0,0.0,0.0,0.0,0.0,0.0,0.0,0.0,0.0,0.0,0.0,0.0,0.0,0.0,0.0,0.0,0.0,0.0,0.0,0.0,0.0,0.0,0.0,0.0,0.0,0.0,0.0,0.0,0.0,0.0,0.0,0.0,0.0,0.0,0.0,0.0,0.0,0.0,0.0,0.0,0.0,0.0,0.0,0.0,0.0,0.0,0.0,0.0,0.0,0.0,0.0,0.0,0.0,0.0,0.0,0.0,0.0,0.0,0.0,0.0,0.0,0.0,0.0,0.0,0.0,0.0,0.0,0.0,0.0,0.0,0.0,0.0,0.0,0.0,0.0,0.0,0.0,0.0,-0.678,0.0,0.0,0.0,0.0,0.0,0.0,0.0,0.0,0.0,0.0,0.0,0.0,0.0,0.0,0.0,0.0,0.0,0.0,0.0,0.0,0.0,0.0,0.0,0.0,0.0,0.0,0.0,0.0,0.0,0.0,0.0,0.0,0.0,0.0,0.0,0.0,0.0,0.0,0.0,0.0,0.0,0.0,0.0,0.0,0.0,0.0,0.0,0.0,0.0,0.0,0.0,0.0,0.0,0.0,0.0,0.0,0.0,0.0,0.0,0.0,0.0,0.0,0.0,0.0,0.0,0.0,0.0,0.0,0.0,0.0,0.0,0.0,0.0,0.0,0.0,0.0,0.0,0.0,0.0,0.0,0.0,0.0,0.0,0.0,0.0,0.0,0.0,0.0,0.0,0.0,0.0,0.0,0.0,0.0,0.0,0.0,0.0,0.0,0.0,0.0,0.0,0.0,0.0,0.0,0.0,0.0,0.0,0.0,0.0,0.0,0.0,0.0,0.0,0.0,0.0,0.0,0.0,0.0,0.0,0.0,0.0,0.0,0.0,0.0,0.0,0.0,0.0,0.0,0.0,0.0,0.0,0.0,0.0,0.0,0.0,0.0,0.0,0.0,0.0,0.0,0.0,0.0,0.0,0.0,0.0,0.0,0.0,0.0,0.0,0.0,0.0,0.0,0.0,0.0,0.0,0.0,0.0,0.0,0.0,0.0,0.0,0.0,0.0,0.0,0.0,0.0,0.0,0.0,0.0,0.0,0.0,0.0,0.0,0.0,0.0,0.0,0.0,0.0,0.0,0.0,0.0,0.0,0.0,0.0,0.0,0.0,0.0,0.0,0.0,0.0,0.0,0.0,0.0,0.0,0.0,0.0,0.0,0.0,0.0,0.0,0.0,0.0,0.0,0.0,0.0,0.0,0.0,0.0,0.0,0.0,0.0,0.0,0.0,0.0,0.0,0.0,0.0,0.0,0.0,0.0,-0.6022,-0.6201,0.0,0.0,0.0,0.0,0.0,0.0,0.0,0.0,-0.7494,0.0,0.0,0.0,0.0,0.0,0.0,0.0,0.0,0.0,0.0,0.0,0.0,0.0,0.0,0.0,0.0,0.0,0.0,0.0,0.0,0.0,0.0,0.0,0.0,0.0,0.0,0.0,0.0,0.0,0.0,0.0,0.0,0.0,0.0,0.0,0.0,0.0,0.0,0.0,0.0,0.0,0.0,0.0,0.0,0.0,0.0,0.0,0.0,0.0,0.0,0.0,0.0,0.0,0.0,0.0,0.0,0.0,0.0,0.0,0.0,0.0,0.0,0.0,0.0,0.0,0.0,0.0,0.0,0.0,0.0,0.0,0.0,0.0,0.0,0.0,0.0,0.0,0.0,0.0,0.0,0.0,0.0,0.0,0.0,0.0,0.0,0.0,0.0,0.0,0.0,0.0,0.0,0.0,0.0,0.0,0.0,0.0,0.0,0.0,0.0,0.0,0.0,0.0,0.0,0.0,-0.3366,-0.3165,0.0,0.0,0.0,0.0,0.0,0.0,0.0,0.0,-0.7229,0.0,0.0,0.0,0.0,0.0,0.0,0.0,0.0,0.0,0.0,0.0,0.0,0.0,0.0,0.0,0.0,0.0,0.0,0.0,0.0,0.0,0.0,0.0,0.0,0.0,0.0,0.0,0.0,0.0,0.0,0.0,0.0,0.0,0.0,0.0,0.0,0.0,0.0,0.0,0.0,0.0,0.0,0.0,0.0,0.0,0.0,0.0,0.0,0.0,0.0,0.0,0.0,0.0,0.0,0.0,0.0,0.0,0.0,0.0,0.0,0.0,0.0,0.0,0.0,0.0,0.0,0.0,0.0,0.0,0.0,0.0,0.0,0.0,0.0,0.0,0.0,0.0,0.0,0.0,0.0,0.0,0.0,0.0,0.0,0.0,0.0,0.0,0.0,0.0,0.0,0.0,0.0,0.0,0.0,0.0,0.0,0.0,0.0,0.0,0.0,0.0,0.0,0.0,0.0,-0.2148,-0.2188,-0.3853,0.0,0.0,0.0,0.0,0.0,0.0,-0.7264,-0.7362,0.0,0.0,0.0,0.0,0.0,0.0,0.0,0.0,0.0,0.0,0.0,0.0,0.0,0.0,0.0,0.0,0.0,0.0,0.0,0.0,0.0,0.0,0.0,0.0,0.0,0.0,0.0,0.0,0.0,0.0,0.0,0.0,0.0,0.0,0.0,0.0,0.0,0.0,0.0,0.0,0.0,0.0,0.0,0.0,0.0,0.0,0.0,0.0,0.0,0.0,0.0,0.0,0.0,0.0,0.0,0.1274,0.0352,0.0,0.0,0.0,0.0,0.0,0.0,0.0,0.0,0.0,0.0,0.0,0.0,0.0,0.0,0.0,0.0,0.0,0.0,0.0,0.0,0.0,0.0,0.0,0.0,0.0,0.0,0.0,0.0,0.0,0.0,0.0,0.0,0.0,0.0,0.0,0.0,0.0,0.0,0.0,0.0,0.0,0.0,0.0,0.0,0.0,0.0,0.0,0.0,-0.1948,-0.2909,-0.4267,0.0,0.0,0.0,0.0,-0.721,-0.7441,0.0,0.0,0.0,0.0,0.0,0.0,0.0,0.0,0.0,0.0,0.0,0.0,0.0,0.0,0.0,0.0,0.0,0.0,0.0,0.0,0.0,0.0,0.0,0.0,0.0,0.0,0.0,0.0,0.0,0.0,0.0,0.0,0.0,0.0,0.0,0.0,0.0,0.0,0.0,0.0,0.0,0.0,0.0,0.0,0.0,0.0,0.0,0.0,0.0,0.0,0.0,0.0,0.0,0.0,0.0,0.0,0.4964,0.1685,0.0,0.0,0.0,0.0,0.0,0.0,0.0,0.0,0.0,0.0,0.0,0.0,0.0,0.0,0.0,0.0,0.0,0.0,0.0,0.0,0.0,0.0,0.0,0.0,0.0,0.0,0.0,0.0,0.0,0.0,0.0,0.0,0.0,0.0,0.0,0.0,0.0,0.0,0.0,0.0,0.0,0.0,0.0,0.0,0.0,0.0,0.0,0.0,-0.2261,-0.3984,-0.4266,-0.4663,0.0,0.0,-0.7373,-0.7522,-0.7557,0.0,0.0,0.0,0.0,0.0,0.0,0.0,0.0,0.0,0.0,0.0,0.0,0.0,0.0,0.0,0.0,0.0,0.0,0.0,0.0,0.0,0.0,0.0,0.0,0.0,0.0,0.0,0.0,0.0,0.0,0.0,0.0,0.0,0.0,0.0,0.0,0.0,0.0,0.0,0.0,0.0,0.0,0.0,0.0,0.0,0.0,0.0,0.0,0.0,0.0,0.0,0.0,0.0,0.0,0.0,0.4789,0.5602,0.2998,0.1122,0.0,0.0,0.0,0.0,0.0,0.0,0.0,0.0,0.0,0.0,0.0,0.0,0.0,0.0,0.0,0.0,0.0,0.0,0.0,0.0,0.0,0.0,0.0,0.0,0.0,0.0,0.0,0.0,0.0,0.0,0.0,0.0,0.0,0.0,0.0,0.0,0.0,0.0,0.0,0.0,0.0,0.0,0.0,0.0,0.0,0.0,0.0,0.0,-0.2905,-0.3706,0.0,0.0,0.0,-0.7336,-0.6729,0.0,0.0,0.0,0.0,0.0,0.0,0.0,0.0,0.0,0.0,0.0,0.0,0.0,0.0,0.0,0.0,0.0,0.0,0.0,0.0,0.0,0.0,0.0,0.0,0.0,0.0,0.0,0.0,0.0,0.0,0.0,0.0,0.0,0.0,0.0,0.0,0.0,0.0,0.0,0.0,0.0,0.0,0.0,0.0,0.0,0.0,0.0,0.0,0.0,0.0,0.0,0.0,0.0,0.0,0.0,0.0,0.0,0.5821,0.391,0.192,0.0,0.0,0.0,0.0,0.0,0.0,0.0,0.0,0.0,0.0,0.0,0.0,0.0,0.0,0.0,0.0,0.0,0.0,0.0,0.0,0.0,0.0,0.0,0.0,0.0,0.0,0.0,0.0,0.0,0.0,0.0,0.0,0.0,0.0,0.0,0.0,0.0,0.0,0.0,0.0,0.0,0.0,0.0,0.0,0.0,0.0,0.0,-0.3274,-0.2153,-0.3192,-0.3839,0.0,0.0,-0.6611,-0.5772,-0.7021,-0.7966,0.0,0.0,0.0,0.0,0.0,0.0,0.0,0.0,0.0,0.0,0.0,0.0,0.0,0.0,0.0,0.0,0.0,0.0,0.0,0.0,0.0,0.0,0.0,0.0,0.0,0.0,0.0,0.0,0.0,0.0,0.0,0.0,0.0,0.0,0.0,0.0,0.0,0.0,0.0,0.0,0.0,0.0,0.0,0.0,0.0,0.0,0.0,0.0,0.0,0.0,0.0,0.0,0.0,0.0,0.0,0.6305,0.4085,0.1971,0.0,0.0,0.0,0.0,0.0,0.0,0.0,0.0,0.0,0.0,0.0,0.0,0.0,0.0,0.0,0.0,0.0,0.0,0.0,0.0,0.0,0.0,0.0,0.0,0.0,0.0,0.0,0.0,0.0,0.0,0.0,0.0,0.0,0.0,0.0,0.0,0.0,0.0,0.0,0.0,0.0,0.0,0.0,0.0,0.0,0.0,0.0,-0.205,-0.2838,-0.3032,-0.3147,0.0,0.0,-0.4814,-0.4893,-0.6634,-0.8021,-0.7955,0.0,0.0,0.0,0.0,0.0,0.0,0.0,0.0,0.0,0.0,0.0,0.0,0.0,0.0,0.0,0.0,0.0,0.0,0.0,0.0,0.0,0.0,0.0,0.0,0.0,0.0,0.0,0.0,0.0,0.0,0.0,0.0,0.0,0.0,0.0,0.0,0.0,0.0,0.0,0.0,0.0,0.0,0.0,0.0,0.0,0.0,0.0,0.0,0.0,0.0,0.0,0.0,0.0,0.6599,0.7307,0.588,0.4097,0.201,0.0692,0.0,0.0,0.0,0.0,0.0,0.0,0.0,0.0,0.0,0.0,0.0,0.0,0.0,0.0,0.0,0.0,0.0,0.0,0.0,0.0,0.0,0.0,0.0,0.0,0.0,0.0,0.0,0.0,0.0,0.0,0.0,0.0,-0.0338,-0.0548,-0.0487,0.0,0.0,0.0,0.0,0.0,0.0,0.0,0.0,0.0,0.0,-0.1771,-0.2092,-0.2093,0.0,0.0,-0.3603,-0.4489,-0.3919,-0.5079,-0.6058,-0.604,-0.6765,0.0,0.0,0.0,0.0,0.0,0.0,0.0,0.0,0.0,0.0,0.0,0.0,0.0,0.0,0.0,0.0,0.0,0.0,0.0,0.0,0.0,0.0,0.0,0.0,0.0,0.0,0.0,0.0,0.0,0.0,0.0,0.0,0.0,0.0,0.0,0.0,0.0,0.0,0.0,0.0,0.0,0.0,0.0,0.0,0.0,0.0,0.0,0.0,0.0,0.0,0.0,0.0,0.7029,0.8001,0.7015,0.5741,0.4223,0.2683,0.1562,0.0856,0.028,0.0,0.0,0.0,0.0,0.0,0.0,0.0,0.0,0.0,0.0,0.0,0.0,0.0,0.0,0.0,0.0,0.0,0.0,0.0,0.0,0.0,0.0,0.0,0.0,0.0,0.0,0.0,0.0,0.0,-0.014,-0.028,-0.0356,0.0,0.0,0.0,0.0,0.0,0.0,0.0,0.0,0.0,0.0,-0.1186,-0.131,-0.1513,-0.1613,-0.1616,-0.2923,-0.3624,-0.2822,-0.3383,-0.4011,-0.4604,0.0,0.0,0.0,0.0,0.0,0.0,0.0,0.0,0.0,0.0,0.0,0.0,0.0,0.0,0.0,0.0,0.0,0.0,0.0,0.0,0.0,0.0,0.0,0.0,0.0,0.0,0.0,0.0,0.0,0.0,0.5329,0.0,0.0,0.0,0.0,0.0,0.0,0.0,0.0,0.0,0.0,0.0,0.0,0.0,0.0,0.0,0.0,0.0,0.0,0.0,0.0,0.0,0.0,0.0,0.7971,0.7356,0.6759,0.6348,0.6263,0.5055,0.2951,0.1026,0.0,0.0,0.0,0.0,0.0,0.0,0.0,0.0,0.0,0.0,0.0,0.0,0.0,0.0,0.0,0.0,0.0,0.0,0.0,0.0,0.0,0.0,0.0,0.0,0.0,0.0,0.0,0.0,0.0,0.0,0.0,0.0,0.0,0.0,0.0,0.0,0.0,0.0,0.0,0.0,0.0,0.0,-0.0198,-0.0705,-0.1212,-0.1516,-0.1617,-0.1617,-0.1718,-0.1718,-0.1716,-0.2307,0.0,0.0,0.0,0.0,0.0,0.0,0.0,0.0,0.0,0.0,0.0,0.0,0.0,0.0,0.0,0.0,0.0,0.0,0.0,0.0,0.0,0.0,0.0,0.0,0.0,0.0,0.0,0.6244,0.606,0.0,0.0,0.0,0.0,0.0,0.0,0.0,0.0,0.0,0.0,0.0,0.7207,0.7092,0.0,0.0,0.0,0.0,0.0,0.0,0.0,0.0,0.0,0.0,0.0,0.0,0.7145,0.7964,0.7634,0.725,0.6945,0.6553,0.5948,0.5147,0.426,0.2617,0.0,0.0,0.0,0.0,0.0,0.0,0.0,0.0,0.0,0.0,0.0,0.0,0.0,0.0,0.0,0.0,0.0,0.0,0.0,0.0,0.0,0.0,0.0,0.0,0.0,0.0,0.0,0.0,0.0,0.0,0.0,0.0,0.0,0.0,0.0,0.0,0.0,0.0,-0.0283,-0.0,0.0,-0.01,-0.0202,-0.0404,-0.0808,0.0,0.0,0.0,0.0,0.0,0.0,0.0,0.0,0.0,0.0,0.0,0.0,0.0,0.0,-0.3015,-0.4463,-0.4821,-0.5294,-0.7114,0.0,0.0,0.0,0.0,0.0,0.0,0.0,0.0,0.0,0.0,0.0,0.0,0.0,0.0,0.6696,0.0,0.627,0.0,0.0,0.0,0.0,0.0,0.0,0.0,0.0,0.6428,0.6902,0.7692,0.7703,0.7411,0.0,0.6894,0.6637,0.0,0.0,0.0,0.0,0.0,0.0,0.0,0.0,0.7333,0.7726,0.7573,0.7344,0.7039,0.6645,0.6352,0.6261,0.5287,0.3236,0.0,0.0,0.0,0.0,0.0,0.0,0.0,0.0,0.0,0.0,0.0,0.0,0.0,0.0,0.0,0.0,0.0,0.0,0.0,0.0,0.0,0.0,0.0,0.0,0.0,0.0,0.0,0.0,0.0,0.0,0.0,0.0,0.0,0.0,0.0,0.0,0.0,0.0,0.0,0.0,0.0,0.0,0.0,0.0,0.0,0.0,0.0,0.0,0.0,0.0,-0.1621,-0.1538,-0.1238,-0.1145,-0.1484,-0.2544,-0.343,-0.3443,0.0,0.0,-0.3035,-0.3273,-0.3781,-0.5494,-0.5826,-0.5052,-0.2467,-0.1965,-0.2205,0.0,0.0,0.0,0.0,0.0,0.0,0.0,0.0,0.6873,0.7404,0.0,0.7319,0.0,0.0,0.0,0.0,0.0,0.7156,0.0,0.0,0.757,0.8034,0.8008,0.8005,0.7907,0.7621,0.775,0.7567,0.7103,0.6571,0.0,0.0,0.0,0.0,0.0,0.0,0.7526,0.7218,0.7263,0.7141,0.6842,0.6539,0.6382,0.6263,0.416,0.2022,0.0,0.0,0.0,0.0,0.0,0.0,0.0,0.0,0.0,0.0,0.0,0.0,0.0,0.0,0.0,0.0,0.0,0.0,0.0,0.0,0.0,0.0,0.0,0.0,0.0,0.0,0.0,0.0,0.0,0.0,0.0,0.0,0.0,0.0,0.0,0.0,0.0,0.0,0.0,0.0,0.0,0.0,0.0,0.0,0.0,0.0,-0.0416,-0.0732,-0.0744,-0.1173,-0.1493,-0.1494,0.0,0.0,-0.0784,-0.0923,-0.0939,-0.0809,-0.0936,-0.1062,-0.1766,-0.1848,-0.1827,-0.1828,-0.1943,-0.1836,-0.1951,-0.1839,-0.196,0.7346,0.0,0.0,0.0,0.0,0.7109,0.7078,0.7166,0.7165,0.7315,0.7682,0.7706,0.0,0.0,0.0,0.0,0.0,0.0,0.7389,0.739,0.7574,0.7848,0.8014,0.8014,0.7916,0.7913,0.7953,0.7831,0.7741,0.7462,0.6982,0.6337,0.0,0.0,0.0,0.0,0.7823,0.7714,0.7569,0.7344,0.7138,0.6842,0.6589,0.6379,0.4124,0.1987,0.0,0.0,0.0,0.0,0.0,0.0,0.0,0.0,0.0,0.0,0.0,0.0,0.0,0.0,0.0,0.0,0.0,0.0,0.0,0.0,0.0,0.0,0.0,0.0,0.0,0.0,0.0,0.0,0.0,0.0,0.0,0.0,0.0,0.0,0.0,0.0,0.0,0.0,0.0,0.0,0.0,0.0,0.0,0.0,0.0,0.0,0.0,0.0,0.0,-0.032,-0.0428,-0.0434,-0.0223,-0.0114,-0.0235,-0.0238,-0.024,-0.0242,-0.0607,-0.1097,-0.1704,-0.1787,-0.1522,-0.0702,-0.0472,-0.0475,-0.0595,-0.096,-0.1327,0.7743,0.7489,0.7373,0.7377,0.7458,0.7421,0.7466,0.7607,0.7521,0.7521,0.7767,0.7904,0.7745,0.7316,0.717,0.0,0.0,0.0,0.7672,0.7703,0.7801,0.7848,0.8035,0.8038,0.8038,0.8038,0.8038,0.8038,0.8038,0.7946,0.7597,0.6931,0.0,0.0,0.6667,0.7594,0.7955,0.8007,0.77,0.7444,0.7042,0.6739,0.6589,0.6382,0.4981,0.2995,0.0,0.0,0.0,0.0,0.0,0.0,0.0,0.0,0.0,0.0,0.0,0.0,0.0,0.0,0.0,0.0,0.0,0.0,0.0,0.0,0.0,0.0,0.0,0.0,0.0,0.0,0.0,0.0,0.0,0.0,0.0,0.0,0.0,0.0,0.0,0.0,0.0,0.0,0.0,0.0,0.0,0.0,0.0,0.0,0.0,0.0,0.0,0.0,0.0,0.0,0.0,0.0,0.0,0.0,0.0,0.0,0.0,0.0,-0.0247,-0.0618,-0.0988,-0.1094,-0.0841,0.0,0.0,0.0,0.0,-0.0368,-0.0739,0.8038,0.7918,0.7746,0.7634,0.7648,0.7773,0.7727,0.7631,0.7928,0.8007,0.8028,0.799,0.7856,0.7628,0.7489,0.0,0.7641,0.777,0.7902,0.8038,0.8038,0.8038,0.8038,0.8038,0.8038,0.8038,0.8038,0.8038,0.8038,0.8038,0.7967,0.7831,0.7403,0.7305,0.7607,0.7821,0.8007,0.7952,0.7746,0.7344,0.6845,0.6539,0.6391,0.6399,0.6388,0.4566,0.0763,0.0,0.0,0.0,0.0,0.0,0.0,0.0,0.0,0.0,0.0,0.0,0.0,0.0,0.0,0.0,0.0,0.0,0.0,0.0,0.0,0.0,0.0,0.0,0.0,0.0,0.0,0.0,0.0,0.0,0.0,0.0,0.0,0.0,0.0,0.0,0.0,0.0,0.0,0.0,0.0,0.0,0.0,0.0,0.0,0.0,0.0,0.0,0.0,0.0,0.0,0.0,0.0,0.0,0.0,0.0,0.0,0.0,0.0,0.0,0.0,0.0,0.0,0.0,0.0,0.0,0.0,0.0,0.0,0.8038,0.8035,0.7963,0.7933,0.7936,0.797,0.7885,0.7882,0.7987,0.8007,0.8035,0.8004,0.7967,0.7933,0.7896,0.7902,0.7936,0.7967,0.8004,0.8038,0.8038,0.8038,0.8038,0.8038,0.8038,0.8038,0.8038,0.8038,0.8038,0.8038,0.8021,0.7984,0.7851,0.7693,0.7621,0.7825,0.8007,0.8045,0.7746,0.7344,0.6845,0.6745,0.6628,0.6399,0.6421,0.5971,0.4865,0.1692,0.0,0.0,0.0,0.0,0.0,0.0,0.0,0.0,0.0,0.0,0.0,0.0,0.0,0.0,0.0,0.0,0.0,0.0,0.0,0.0,0.0,0.0,0.0,0.0,0.0,0.0,0.0,0.0,0.0,0.0,0.0,0.0,0.0,0.0,0.0,0.0,0.0,0.0,0.0,0.0,0.0,0.0,0.0,0.0,0.0,0.0,0.0,0.0,0.0,0.0,0.0,0.0,0.0,0.0,0.0,0.0,0.0,0.0,0.0,0.0,0.0,0.0,0.0,0.0,0.0,0.0,0.0,0.8038,0.8038,0.8038,0.8038,0.8038,0.8038,0.8038,0.8038,0.8038,0.8038,0.8038,0.8038,0.8038,0.8038,0.8038,0.8038,0.8038,0.8038,0.8038,0.8038,0.8038,0.8038,0.8038,0.8038,0.8038,0.8038,0.8038,0.8038,0.8038,0.8038,0.8038,0.8038,0.8038,0.7895,0.7821,0.7898,0.8038,0.8038,0.7746,0.7444,0.6939,0.6842,0.6642,0.6434,0.6382,0.6429,0.6382,0.3899,0.1768,0.0,0.0,0.0,0.0,0.0,0.0,0.0,0.0,0.0,0.0,0.0,0.0,0.0,0.0,0.0,0.0,0.0,0.0,0.0,0.0,0.0,0.0,0.0,0.0,0.0,0.0,0.0,0.0,0.0,0.0,0.0,0.0,0.0,0.0,0.0,0.0,0.0,0.0,0.0,0.0,0.0,0.0,0.0,0.0,0.0,0.0,0.0,0.0,0.0,0.0,0.0,0.0,0.0,0.0,0.0,0.0,0.0,0.0,0.0,0.0,0.0,0.0,0.0,0.0,0.0,0.0,0.8038,0.8038,0.8038,0.8038,0.8038,0.8038,0.8038,0.8038,0.8038,0.8038,0.8038,0.8038,0.8038,0.8038,0.8038,0.8038,0.8038,0.8038,0.8038,0.8038,0.8038,0.8038,0.8038,0.8038,0.8038,0.8038,0.8038,0.8038,0.8038,0.8038,0.8038,0.8038,0.8038,0.8038,0.8038,0.8038,0.8038,0.8038,0.7743,0.7441,0.7238,0.6942,0.6642,0.6437,0.6437,0.6388,0.6382,0.5984,0.4258,0.1019,0.0,0.0271,0.0,0.0,0.0,0.0,0.0,0.0,0.0,0.0,0.0,0.0,0.0,0.0,0.0,0.0,0.0,0.0,0.0,0.0,0.0,0.0,0.0,0.0,0.0,0.0,0.0,0.0,0.0,0.0,0.0,0.0,0.0,0.0,0.0,0.0,0.0,0.0,0.0,0.0,0.0,0.0,0.0,0.0,0.0,0.0,0.0,0.0,0.0,0.0,0.0,0.0,0.0,0.0,0.0,0.0,0.0,0.0,0.0,0.0,0.0,0.0,0.0,0.0,0.0,0.8038,0.8038,0.8038,0.8038,0.8038,0.8038,0.8038,0.8038,0.8038,0.8038,0.8038,0.8038,0.8038,0.8038,0.8038,0.8038,0.8038,0.8038,0.8038,0.8038,0.8038,0.8038,0.8038,0.8038,0.8038,0.8038,0.8038,0.8038,0.8038,0.8038,0.8038,0.8038,0.8038,0.8038,0.8038,0.0,0.0,0.0,0.7743,0.7441,0.7238,0.6942,0.6642,0.6437,0.6437,0.0,0.6379,0.6354,0.5997,0.5214,0.3581,0.0,0.0,0.0,0.0,0.0,0.0,0.0,0.0,0.0,0.0,0.0,0.0,0.0,0.0,0.0,0.0,0.0,0.0,0.0,0.0,0.0,0.0,0.0,0.0,0.0,0.0,0.0,0.0,0.0,0.0,0.0,0.0,0.0,0.0,0.0,0.0,0.0,0.0,0.0,0.0,0.0,0.0,0.0,0.0,0.0,0.0,0.0,0.0,0.0,0.0,0.0,0.0,0.0,0.0,0.0,0.0,0.0,0.0,0.0,0.0,0.0,0.0,0.0,0.0,0.8038,0.0,0.8038,0.8038,0.0,0.8038,0.8038,0.8038,0.8038,0.8038,0.8038,0.8038,0.8038,0.8038,0.8038,0.8038,0.8038,0.8038,0.8038,0.8038,0.8038,0.8038,0.8038,0.8038,0.8038,0.8038,0.8038,0.8038,0.8038,0.8038,0.8038,0.8038,0.8038,0.8038,0.8038,0.8038,0.8038,0.8038,0.7839,0.764,0.7444,0.7144,0.6842,0.6642,0.0,0.0,0.0,0.0,0.0,0.0,0.0,0.0,0.0,0.0,0.0,0.0,0.0,0.0,0.0,0.0,0.0,0.0,0.0,0.0,0.0,0.0,0.0,0.0,0.0,0.0,0.0,0.0,0.0,0.0,0.0,0.0,0.0,0.0,0.0,0.0,0.0,0.0,0.0,0.0,0.0,0.0,0.0,0.0,0.0,0.0,0.0,0.0,0.0,0.0,0.0,0.0,0.0,0.0,0.0,0.0,0.0,0.0,0.0,0.0,0.0,0.0,0.0,0.0,0.0,0.0,0.0,0.0,0.0,0.0,0.0,0.8038,0.8038,0.8038,0.8038,0.8038,0.8038,0.8038,0.8038,0.0,0.0,0.0,0.8038,0.8038,0.8038,0.8038,0.8038,0.8038,0.8038,0.8038,0.8038,0.8038,0.8038,0.8038,0.8038,0.8038,0.8038,0.8038,0.8038,0.8038,0.8038,0.8038,0.8038,0.8038,0.8038,0.8038,0.8038,0.8038,0.8038,0.7942,0.7842,0.7643,0.7338,0.7039,0.6845,0.6539,0.6385,0.6374,0.6287,0.6246,0.6426,0.6247,0.6308,0.6317,0.3053,0.0991,0.0604,0.0202,0.0,0.0,0.0,0.0,0.0,0.0,0.0,0.0,0.0,0.0,0.0,0.0,0.0,0.0,0.0,0.0,0.0,0.0,0.0,0.0,0.0,0.0,0.0,0.0,0.0,0.0,0.0,0.0,0.0,0.0,0.0,0.0,0.0,0.0,0.0,0.0,0.0,0.0,0.0,0.0,0.0,0.0,0.0,0.0,0.0,0.0,0.0,0.0,0.0,0.0,0.0,0.0,0.0,0.0,0.0,0.0,0.0,0.0,0.8038,0.8038,0.8038,0.8038,0.8038,0.8038,0.8038,0.8038,0.8038,0.8038,0.8038,0.8038,0.8038,0.8038,0.8038,0.8038,0.8038,0.8038,0.8038,0.8038,0.8038,0.8038,0.8038,0.8038,0.8038,0.8038,0.8038,0.8038,0.8038,0.8041,0.8038,0.8041,0.8038,0.8041,0.8038,0.8038,0.8038,0.8038,0.7743,0.7646,0.7643,0.7338,0.7039,0.6845,0.6539,0.6382,0.6374,0.6361,0.6361,0.6452,0.6339,0.6407,0.6337,0.5829,0.4726,0.2822,0.1021,0.0,0.0,0.0,0.0,0.0,0.0,0.0,0.0,0.0,0.0,0.0,0.0,0.0,0.0,0.0,0.0,0.0,0.0,0.0,0.0,0.0,0.0,0.0,0.0,0.0,0.0,0.0,0.0,0.0,0.0,0.0,0.0,0.0,0.0,0.0,0.0,0.0,0.0,0.0,0.0,0.0,0.0,0.0,0.0,0.0,0.0,0.0,0.0,0.0,0.0,0.0,0.0,0.0,0.0,0.0,0.0,0.0,0.0,0.8038,0.8038,0.8038,0.8038,0.8038,0.8038,0.8038,0.8038,0.8038,0.8038,0.8038,0.8038,0.8085,0.816,0.8163,0.8208,0.8279,0.8279,0.8173,0.7965,0.7965,0.8071,0.8279,0.8282,0.8279,0.8279,0.8279,0.8279,0.8279,0.8279,0.8279,0.8275,0.8103,0.7955,0.7951,0.7979,0.8079,0.8157,0.7882,0.7846,0.7842,0.7543,0.7344,0.7244,0.6739,0.6412,0.6363,0.641,0.641,0.6363,0.6407,0.6469,0.6543,0.6554,0.6169,0.5188,0.4179,0.3777,0.3882,0.3951,0.2817,0.0,0.0,0.0,0.0,0.0,0.0,0.0,0.0,0.0,0.0,0.0,0.0,0.0,0.0,0.0,0.0,0.0,0.0,0.0,0.0,0.0,0.0,0.0,0.0,0.0,0.0,0.0,0.0,0.0,0.0,0.0,0.0,0.0,0.0,0.0,0.0,0.0,0.0,0.0,0.0,0.0,0.0,0.0,0.0,0.0,0.0,0.0,0.0,0.0,0.0,0.0,0.0,0.0,0.0,0.8237,0.8038,0.8038,0.8038,0.8038,0.8038,0.8038,0.8038,0.8038,0.8038,0.8041,0.8075,0.8177,0.8313,0.8316,0.8381,0.8472,0.8482,0.8371,0.8157,0.8154,0.8266,0.8587,0.8591,0.8587,0.8482,0.8482,0.8482,0.8482,0.8482,0.8482,0.8469,0.8263,0.8104,0.81,0.8096,0.8197,0.8303,0.8201,0.814,0.814,0.7938,0.774,0.7639,0.7131,0.6617,0.6414,0.6414,0.6518,0.6518,0.6521,0.6564,0.6651,0.6668,0.6714,0.6698,0.6741,0.688,0.7133,0.7219,0.5641,0.2011,0.1119,0.0,0.0783,0.0219,0.0,0.0,0.0,0.0,0.0,0.0,0.0,0.0,0.0,0.0,0.0,0.0,0.0,0.0,0.0,0.0,0.0,0.0,0.0,0.0,0.0,0.0,0.0,0.0,0.0,0.0,0.0,0.0,0.0,0.0,0.0,0.0,0.0,0.0,0.0,0.0,0.0,0.0,0.0,0.0,0.0,0.0,0.0,0.0,0.0,0.0,0.0,0.0,0.0,0.8821,0.8038,0.8038,0.8038,0.8038,0.8038,0.8038,0.8038,0.8038,0.8038,0.7959,0.8187,0.8323,0.8452,0.8459,0.8469,0.8496,0.8482,0.8489,0.8492,0.8479,0.8591,0.8825,0.8818,0.8804,0.8601,0.8499,0.8509,0.8509,0.8499,0.8489,0.8482,0.8469,0.8462,0.8459,0.8445,0.8445,0.8462,0.8448,0.8442,0.8442,0.8442,0.8337,0.8027,0.7928,0.7398,0.6529,0.6655,0.6768,0.6768,0.676,0.6768,0.6785,0.6787,0.6793,0.6812,0.6805,0.7021,0.7135,0.7163,0.6956,0.6512,0.4377,0.325,0.3138,0.134,0.0,0.0,0.0,0.0,0.0,0.0,0.0,0.0,0.0,0.0,0.0,0.0,0.0,0.0,0.0,0.0,0.0,0.0,0.0,0.0,0.0,0.0,0.0,0.0,0.0,0.0,0.0,0.0,0.0,0.0,0.0,0.0,0.0,0.0,0.0,0.0,0.0,0.0,0.0,0.0,0.0,0.0,0.0,0.0,0.0,0.0,0.0,0.0,0.0,0.8531,0.8038,0.8038,0.8038,0.8038,0.8038,0.8038,0.8038,0.8038,0.7989,0.8073,0.8241,0.835,0.8479,0.8482,0.8577,0.8747,0.875,0.8754,0.875,0.875,0.8754,0.8865,0.8865,0.8865,0.8754,0.8754,0.875,0.8754,0.8754,0.875,0.874,0.8776,0.8728,0.8718,0.8744,0.8741,0.8615,0.8615,0.8659,0.872,0.8574,0.8482,0.8381,0.8286,0.7967,0.7217,0.7115,0.7012,0.7018,0.6909,0.6836,0.6904,0.691,0.694,0.7008,0.7011,0.7102,0.7269,0.7339,0.7385,0.7279,0.646,0.5879,0.5886,0.4849,0.3232,0.0,0.0,0.0,0.0,0.0,0.0,0.0,0.0,0.0,0.0,0.0,0.0,0.0,0.0,0.0,0.0,0.0,0.0,0.0,0.0,0.0,0.0,0.0,0.0,0.0,0.0,0.0,0.0,0.0,0.0,0.0,0.0,0.0,0.0,0.0,0.0,0.0,0.0,0.0,0.0,0.0,0.0,0.0,0.0,0.0,0.0,0.0,0.0,0.9312,0.892,0.8825,0.8726,0.8432,0.8124,0.8028,0.8038,0.8038,0.8002,0.7994,0.8106,0.8286,0.8414,0.8462,0.8608,0.8801,0.8859,0.8879,0.8882,0.8916,0.8937,0.8937,0.8937,0.8937,0.8937,0.893,0.8933,0.8937,0.8937,0.8937,0.892,0.8941,0.8889,0.8876,0.888,0.888,0.876,0.8774,0.8828,0.8893,0.8723,0.8608,0.8608,0.8618,0.8405,0.7977,0.7431,0.7217,0.7226,0.7006,0.6937,0.7024,0.7032,0.7084,0.7198,0.7201,0.7268,0.7385,0.747,0.7524,0.7407,0.741,0.7413,0.7421,0.7434,0.5538,0.0,0.115,0.0,0.0,0.0,0.0,0.0,0.0,0.0,0.0,0.0,0.0,0.0,0.0,0.0,0.0,0.0,0.0,0.0,0.0,0.0,0.0,0.0,0.0,0.0,0.0,0.0,0.0,0.0,0.0,0.0,0.0,0.0,0.0,0.0,0.0,0.0,0.0,0.0,0.0,0.0,0.0,0.0,0.0,0.0,0.0,0.0,0.0,1.195,1.1072,1.1072,1.0391,0.9505,0.8481,0.7997,0.8028,0.8035,0.8045,0.7955,0.8058,0.8136,0.8292,0.8414,0.8489,0.8526,0.8662,0.8831,0.8848,0.8866,0.8937,0.8937,0.8937,0.8937,0.8937,0.8937,0.8937,0.8937,0.8937,0.8937,0.8933,0.892,0.8923,0.8913,0.8899,0.8913,0.891,0.891,0.8933,0.8944,0.8927,0.8906,0.8906,0.8913,0.8789,0.8696,0.7805,0.7243,0.7246,0.7232,0.7133,0.7146,0.7152,0.7211,0.7323,0.7209,0.7275,0.751,0.7769,0.7772,0.7527,0.7538,0.7524,0.7521,0.7532,0.6703,0.4925,0.4094,0.2807,0.0,0.0,0.0,0.0,0.0,0.0,0.0,0.0,0.0,0.0,0.0,0.0,0.0,0.0,0.0,0.0,0.0,0.0,0.0,0.0,0.0,0.0,0.0,0.0,0.0,0.0,0.0,0.0,0.0,0.0,0.0,0.0,0.0,0.0,0.0,0.0,0.0,0.0,0.0,0.0,0.0,0.0,0.0,0.0,0.0,1.1658,1.117,1.117,1.0974,1.0476,0.8735,0.8034,0.795,0.795,0.797,0.7991,0.7997,0.8096,0.8272,0.8323,0.8397,0.8482,0.854,0.8676,0.891,0.8946,0.8907,0.8917,0.8889,0.8937,0.8937,0.8937,0.8937,0.8937,0.8937,0.8937,0.8937,0.8937,0.8937,0.8937,0.8937,0.8937,0.8937,0.8937,0.8981,0.9069,0.9076,0.9076,0.9072,0.8988,0.894,0.8944,0.7817,0.7149,0.7154,0.7154,0.719,0.7266,0.7347,0.7404,0.7456,0.7447,0.7512,0.7641,0.7823,0.7831,0.7644,0.7635,0.7595,0.7538,0.7527,0.7293,0.6701,0.6357,0.5674,0.4649,0.2149,0.0,0.0,0.0,0.0,0.0,0.0,0.0,0.0,0.0,0.0,0.0,0.0,0.0,0.0,0.0,0.0,0.0,0.0,0.0,0.0,0.0,0.0,0.0,0.0,0.0,0.0,0.0,0.0,0.0,0.0,0.0,0.0,0.0,0.0,0.0,0.0,0.0,0.0,0.0,0.0,0.0,0.0,0.0,1.2344,1.2247,1.2242,1.195,1.1556,1.0538,0.9669,0.9217,0.9735,0.9697,0.916,0.8535,0.8197,0.8323,0.834,0.8387,0.8482,0.8533,0.8554,0.857,0.8716,0.8788,0.8913,0.8889,0.8937,0.8937,0.8937,0.8937,0.8937,0.8937,0.8937,0.8937,0.8937,0.8937,0.8937,0.8937,0.8954,0.8994,0.9008,0.9079,0.9205,0.9228,0.9225,0.9211,0.9014,0.8943,0.8903,0.8146,0.7601,0.7379,0.7269,0.7307,0.7394,0.751,0.7576,0.7589,0.7568,0.7616,0.7714,0.7774,0.7763,0.7657,0.7638,0.7603,0.7527,0.7527,0.7527,0.7532,0.754,0.7592,0.7085,0.4574,0.1934,0.0,0.0,0.0,0.0,0.0,0.0,0.0,0.0,0.0,0.0,0.0,0.0,0.0,0.0,0.0,0.0,0.0,0.0,0.0,0.0,0.0,0.0,0.0,0.0,0.0,0.0,0.0,0.0,0.0,0.0,0.0,0.0,0.0,0.0,0.0,0.0,0.0,0.0,0.0,0.0,0.0,0.0,1.4304,1.422,1.4298,1.3647,1.291,1.3406,1.2934,1.1428,1.284,1.2429,1.1507,0.958,0.8924,0.8685,0.8898,0.8699,0.886,0.8976,0.8575,0.8239,0.8381,0.8673,0.8903,0.8923,0.8954,0.896,0.8947,0.8954,0.8981,0.8988,0.8984,0.896,0.887,0.8883,0.8954,0.8988,0.9035,0.924,0.927,0.9232,0.9361,0.9384,0.9384,0.9384,0.9139,0.8964,0.8957,0.8833,0.8527,0.7716,0.7602,0.7502,0.7529,0.7635,0.7698,0.7703,0.7796,0.7922,0.7842,0.7589,0.7549,0.7587,0.754,0.7548,0.7527,0.7508,0.7505,0.7521,0.7513,0.7447,0.7568,0.7248,0.5192,0.0,0.0,0.0,0.0,0.0,0.0,0.0,0.0,0.0,0.0,0.0,0.0,0.0,0.0,0.0,0.0,0.0,0.0,0.0,0.0,0.0,0.0,0.0,0.0,0.0,0.0,0.0,0.0,0.0,0.0,0.0,0.0,0.0,0.0,0.0,0.0,0.0,0.0,0.0,0.0,0.0,0.0,1.4896,1.4863,1.4869,1.4684,1.433,1.4371,1.3137,1.1162,1.0839,1.2098,1.3756,1.2201,1.1101,1.1028,1.1059,1.1026,1.1147,1.0454,0.9503,0.8511,0.8501,0.8679,0.8815,0.8896,0.8991,0.9072,0.9086,0.9144,0.9222,0.9235,0.9128,0.8889,0.8886,0.8892,0.8993,0.9128,0.9276,0.9418,0.931,0.9384,0.9523,0.9537,0.9537,0.9547,0.9506,0.9496,0.9241,0.9429,0.9401,0.9052,0.8215,0.7783,0.7644,0.7755,0.778,0.7717,0.7853,0.7867,0.7712,0.7584,0.7573,0.7652,0.7646,0.7597,0.7519,0.7453,0.7451,0.7497,0.7451,0.7378,0.7381,0.7464,0.5504,0.0,0.0,0.0,0.0,0.0,0.0,0.0,0.0,0.0,0.0,0.0,0.0,0.0,0.0,0.0,0.0,0.0,0.0,0.0,0.0,0.0,0.0,0.0,0.0,0.0,0.0,0.0,0.0,0.0,0.0,0.0,0.0,0.0,0.0,0.0,0.0,0.0,0.0,0.0,0.0,0.0,0.0,1.5097,1.5146,1.5152,1.5144,1.5107,1.47,1.3873,1.2612,1.1854,1.3257,1.5216,1.441,1.3203,1.2514,1.2008,1.1796,1.1859,1.0759,0.965,0.8815,0.8659,0.8712,0.8886,0.9032,0.9144,0.9222,0.9239,0.9286,0.9374,0.9381,0.9258,0.9139,0.9139,0.9136,0.9258,0.9384,0.9521,0.9573,0.9469,0.9537,0.9656,0.9686,0.969,0.97,0.9774,0.9771,0.9563,0.9724,0.9801,0.9554,0.8676,0.798,0.7703,0.7766,0.7793,0.7785,0.7686,0.7712,0.7583,0.772,0.7807,0.778,0.7766,0.7739,0.7655,0.7568,0.7581,0.7619,0.7597,0.7525,0.7383,0.7573,0.6098,0.3634,0.0,0.2247,0.0,0.0,0.0,0.0,0.0,0.0,0.0,0.0,0.0,0.0,0.0,0.0,0.0,0.0,0.0,0.0,0.0,0.0,0.0,0.0,0.0,0.0,0.0,0.0,0.0,0.0,0.0,0.0,0.0,0.0,0.0,0.0,0.0,0.0,0.0,0.0,0.0,0.0,0.0,1.5119,1.5149,1.5137,1.5173,1.5234,1.5167,1.508,1.5141,1.5398,1.5559,1.5803,1.563,1.4614,1.2986,1.2165,1.1814,1.1139,1.0559,0.9971,0.9436,0.9096,0.9035,0.9034,0.9269,0.9463,0.9388,0.9395,0.9408,0.9456,0.9452,0.9405,0.9439,0.9449,0.9535,0.969,0.9778,0.9745,0.9727,0.9622,0.969,0.9798,0.9808,0.9808,0.9808,0.9815,0.9815,0.9798,0.9781,0.9798,0.9687,0.884,0.8199,0.7848,0.7722,0.7799,0.788,0.7735,0.764,0.7661,0.8013,0.8242,0.8172,0.8038,0.7891,0.7888,0.7858,0.785,0.7886,0.7867,0.7793,0.7661,0.7707,0.7767,0.8383,0.7561,0.5463,0.0,0.0,0.0,0.0,0.0,0.0,0.0,0.0,0.0,0.0,0.0,0.0,0.0,0.0,0.0,0.0,0.0,0.0,0.0,0.0,0.0,0.0,0.0,0.0,0.0,0.0,0.0,0.0,0.0,0.0,0.0,0.0,0.0,0.0,0.0,0.0,0.0,0.0,0.0,1.5844,1.5977,1.5799,1.5836,1.5916,1.5801,1.5641,1.5701,1.5819,1.5873,1.5952,1.594,1.5206,1.3925,1.4375,1.3733,1.2441,1.1889,1.1833,1.1532,0.9967,0.9512,0.9554,0.9603,0.969,0.9537,0.9551,0.9602,0.97,0.968,0.969,0.9703,0.969,0.97,0.983,0.9823,0.9844,0.9761,0.9771,0.9788,0.9822,0.9836,0.9819,0.9819,0.9829,0.9829,0.9822,0.9819,0.9825,0.9714,0.907,0.8607,0.8301,0.8069,0.8085,0.8002,0.8035,0.7934,0.7937,0.8198,0.8469,0.8523,0.8267,0.8138,0.8136,0.8057,0.806,0.8092,0.807,0.8098,0.8007,0.8054,0.8253,0.8484,0.8557,0.6526,0.0,0.0,0.0,0.0,0.0,0.0,0.0,0.0,0.0,0.0,0.0,0.0,0.0,0.0,0.0,0.0,0.0,0.0,0.0,0.0,0.0,0.0,0.0,0.0,0.0,0.0,0.0,0.0,0.0,0.0,0.0,0.0,0.0,0.0,0.0,0.0,0.0,0.0,0.0,1.6346,1.6411,1.6256,1.6368,1.6402,1.6053,1.5867,1.5861,1.5867,1.5986,1.6199,1.6205,1.5839,1.5292,1.551,1.4845,1.3613,1.3255,1.2449,1.1313,1.0119,0.9655,0.9752,0.9769,0.9737,0.9686,0.9696,0.9737,0.9802,0.9819,0.9819,0.9825,0.9761,0.9791,0.9794,0.9988,1.0012,1.0015,1.0015,1.0012,1.0015,1.0015,1.0015,1.0015,0.9888,0.9757,0.9761,0.9891,0.9995,0.9941,0.9509,0.9032,0.878,0.8676,0.8449,0.8371,0.8298,0.822,0.8269,0.8408,0.8573,0.8629,0.8386,0.8383,0.8375,0.8315,0.832,0.8359,0.831,0.8359,0.8314,0.8363,0.8403,0.8584,0.8581,0.7206,0.3724,0.0,0.0,0.0,0.0,0.0,0.0,0.0,0.0,0.0,0.0,0.0,0.0,0.0,0.0,0.0,0.0,0.0,0.0,0.0,0.0,0.0,0.0,0.0,0.0,0.0,0.0,0.0,0.0,0.0,0.0,0.0,0.0,0.0,0.0,0.0,0.0,0.0,0.0,1.6743,1.6774,1.6743,1.6743,1.6687,1.6205,1.6062,1.5931,1.6123,1.6486,1.6825,1.6825,1.6584,1.6551,1.5712,1.5172,1.4793,1.4108,1.2201,1.0782,0.973,0.9837,0.9926,0.9851,0.9795,0.9839,0.9846,0.9873,0.9914,0.99,0.9883,0.9934,0.9898,0.9814,0.9962,1.0192,1.0393,1.0373,1.0226,1.0222,1.0226,1.0226,1.0219,1.0219,1.0089,0.9966,0.9979,1.0243,1.0342,1.0374,0.9714,0.9366,0.9209,0.9224,0.9043,0.8907,0.8488,0.8312,0.8524,0.85,0.8522,0.85,0.8503,0.8552,0.8492,0.8454,0.8454,0.8459,0.8543,0.8486,0.8497,0.8541,0.84,0.8408,0.8579,0.8491,0.7277,0.0,0.0,0.0,0.0,0.0,0.0,0.0,0.0,0.0,0.0,0.0,0.0,0.0,0.0,0.0,0.0,0.0,0.0,0.0,0.0,0.0,0.0,0.0,0.0,0.0,0.0,0.0,0.0,0.0,0.0,0.0,0.0,0.0,0.0,0.0,0.0,0.0,0.0,1.6756,1.6952,1.6825,1.687,1.7022,1.6851,1.6393,1.605,1.6858,1.7423,1.7846,1.7553,1.6747,1.5781,1.6092,1.5473,1.4198,1.4407,1.3076,1.0049,0.9813,0.9913,1.0089,0.9998,0.9897,0.9971,1.0002,1.0059,1.0137,1.0144,1.0178,1.0175,0.9929,0.9966,1.0239,1.0414,1.0672,1.0545,1.0421,1.0307,1.031,1.031,1.031,1.0307,1.03,1.0293,1.0414,1.0541,1.0583,1.0476,1.0139,0.9716,0.9707,0.9607,0.9401,0.9359,0.8887,0.8632,0.8593,0.8443,0.8282,0.8353,0.8359,0.831,0.831,0.8339,0.8331,0.8315,0.831,0.8345,0.8474,0.8199,0.8086,0.8115,0.8309,0.7695,0.5303,0.0,0.0,0.0,0.0,0.0,0.0,0.0,0.0,0.0,0.0,0.0,0.0,0.0,0.0,0.0,0.0,0.0,0.0,0.0,0.0,0.0,0.0,0.0,0.0,0.0,0.0,0.0,0.0,0.0,0.0,0.0,0.0,0.0,0.0,0.0,0.0,0.0,0.0,1.7251,1.7375,1.7218,1.7244,1.7362,1.7258,1.7019,1.6889,1.7296,1.7939,1.833,1.802,1.7254,1.634,1.669,1.629,1.544,1.5793,1.5311,1.3769,1.3471,1.2987,1.1623,1.0842,1.0215,1.0154,1.0158,1.0215,1.0263,1.0287,1.0263,1.029,1.0082,1.0111,1.0266,1.0575,1.0634,1.0634,1.062,1.049,1.0487,1.0487,1.0487,1.0487,1.0487,1.062,1.0627,1.0757,1.0664,1.0675,1.0327,1.0177,1.0283,1.014,1.0022,0.9802,0.9754,0.9178,0.8851,0.8582,0.8452,0.8186,0.8444,0.8483,0.838,0.8399,0.8399,0.8388,0.8361,0.8307,0.8375,0.8111,0.798,0.7994,0.8183,0.7699,0.5885,0.0,0.0,0.0,0.0,0.0,0.0,0.0,0.0,0.0,0.0,0.0,0.0,0.0,0.0,0.0,0.0,0.0,0.0,0.0,0.0,0.0,0.0,0.0,0.0,0.0,0.0,0.0,0.0,0.0,0.0,0.0,0.0,0.0,0.0,0.0,0.0,0.0,0.0,1.7622,1.7589,1.7629,1.7655,1.7669,1.7756,1.7675,1.759,1.7688,1.815,1.8446,1.8492,1.7904,1.7547,1.7495,1.7492,1.742,1.7203,1.6771,1.6703,1.5894,1.4519,1.2864,1.1326,1.0569,1.0334,1.0321,1.0334,1.0365,1.0351,1.0405,1.0382,1.0333,1.039,1.0424,1.0636,1.0683,1.0673,1.067,1.0677,1.0683,1.0687,1.0683,1.068,1.0677,1.0673,1.0663,1.0653,1.066,1.0673,1.0538,1.0544,1.0578,1.0548,1.033,1.0071,1.0246,0.994,0.9282,0.9142,0.905,0.8505,0.8635,0.8807,0.8607,0.847,0.8462,0.8454,0.8402,0.8191,0.8119,0.8106,0.7975,0.7983,0.8127,0.8274,0.753,0.3964,0.0,0.0,0.0,0.0,0.0,0.0,0.0,0.0,0.0,0.0,0.0,0.0,0.0,0.0,0.0,0.0,0.0,0.0,0.0,0.0,0.0,0.0,0.0,0.0,0.0,0.0,0.0,0.0,0.0,0.0,0.0,0.0,0.0,0.0,0.0,0.0,0.0,1.7822,1.7609,1.7862,1.7969,1.8009,1.823,1.8097,1.7702,1.8144,1.8678,1.9138,1.862,1.8583,1.8513,1.8307,1.8355,1.8226,1.7974,1.7422,1.7016,1.5799,1.387,1.1818,1.1084,1.062,1.0575,1.0534,1.0514,1.0599,1.0646,1.0595,1.0633,1.0653,1.0666,1.0666,1.0711,1.0721,1.0721,1.0721,1.0721,1.0721,1.0721,1.0721,1.0721,1.0721,1.0711,1.068,1.0464,1.0394,1.0384,1.0392,1.0351,1.0368,1.0344,1.0321,1.0324,1.029,1.0122,0.9888,0.9901,1.0045,0.9809,0.9319,0.8931,0.8702,0.845,0.8375,0.8337,0.8186,0.8004,0.798,0.8106,0.8106,0.8127,0.8304,0.8361,0.8133,0.7006,0.5306,0.3664,0.0,0.0,0.0,0.0,0.0,0.0,0.0,0.0,0.0,0.0,0.0,0.0,0.0,0.0,0.0,0.0,0.0,0.0,0.0,0.0,0.0,0.0,0.0,0.0,0.0,0.0,0.0,0.0,0.0,0.0,0.0,0.0,0.0,0.0,0.0,1.819,1.8076,1.8217,1.8277,1.8297,1.8424,1.8335,1.8097,1.8359,1.8891,1.9225,1.9349,1.9109,1.8912,1.8928,1.8936,1.8822,1.8673,1.7584,1.6409,1.5071,1.325,1.0921,1.0699,1.0757,1.068,1.0646,1.0636,1.0714,1.0711,1.0714,1.0717,1.0721,1.0721,1.0717,1.0717,1.0721,1.0721,1.0721,1.0721,1.0721,1.0721,1.0721,1.0721,1.0711,1.068,1.0599,1.0414,1.0187,1.0105,1.0112,1.0222,1.0236,1.0219,1.0202,1.0253,1.0215,1.0079,1.0133,1.0287,1.0455,1.0405,0.9751,0.9269,0.9048,0.8819,0.851,0.8342,0.8326,0.817,0.8114,0.8247,0.8367,0.8375,0.8301,0.8331,0.8345,0.8266,0.7307,0.6086,0.0,0.0,0.0,0.0,0.0,0.0,0.0,0.0,0.0,0.0,0.0,0.0,0.0,0.0,0.0,0.0,0.0,0.0,0.0,0.0,0.0,0.0,0.0,0.0,0.0,0.0,0.0,0.0,0.0,0.0,0.0,0.0,0.0,0.0,0.0,1.8544,1.8497,1.8551,1.8577,1.8584,1.8651,1.8672,1.8717,1.875,1.9063,1.9616,1.9976,1.9741,1.9354,1.9421,1.9575,1.9588,1.9265,1.8072,1.6943,1.5017,1.3168,1.1439,1.07,1.0697,1.0707,1.0711,1.0721,1.0717,1.0721,1.0704,1.068,1.0687,1.0694,1.0673,1.0694,1.0707,1.0721,1.0721,1.0721,1.0721,1.0721,1.0721,1.0721,1.0721,1.0666,1.0719,1.0384,1.0184,1.0075,1.0096,1.0164,1.0239,1.0164,1.0168,1.0266,1.0049,0.9936,1.0019,1.0334,1.0673,1.0668,1.0283,0.9817,0.9465,0.9203,0.8927,0.8604,0.8451,0.8555,0.8359,0.8452,0.8582,0.8587,0.8461,0.832,0.835,0.8383,0.8402,0.786,0.8026,0.0,0.0,0.0,0.0,0.0,0.0,0.0,0.0,0.0,0.0,0.0,0.0,0.0,0.0,0.0,0.0,0.0,0.0,0.0,0.0,0.0,0.0,0.0,0.0,0.0,0.0,0.0,0.0,0.0,0.0,0.0,0.0,0.0,0.0,1.8724,1.8517,1.8771,1.8878,1.8911,1.9125,1.9265,1.9305,1.9305,1.9609,2.003,2.0223,2.014,2.0113,2.0378,2.0491,2.0185,1.9431,1.92,1.892,1.5843,1.3345,1.129,1.0771,1.1076,1.1094,1.0969,1.0721,1.0721,1.0721,1.0656,1.0595,1.0663,1.0666,1.0733,1.0673,1.0717,1.0721,1.0721,1.0721,1.0721,1.0721,1.0721,1.0721,1.0717,1.0697,1.0633,1.0544,1.033,1.0297,1.0314,1.0266,1.0276,1.027,1.0334,1.0382,1.0361,1.0314,1.0307,1.0473,1.0651,1.0639,1.0409,1.0174,0.9918,0.9386,0.8975,0.8579,0.8562,0.8543,0.8508,0.8527,0.867,0.8654,0.8494,0.8505,0.8516,0.8448,0.8459,0.8462,0.8355,0.8194,0.0,0.0,0.0,0.0,0.0,0.0,0.0,0.0,0.0,0.0,0.0,0.0,0.0,0.0,0.0,0.0,0.0,0.0,0.0,0.0,0.0,0.0,0.0,0.0,0.0,0.0,0.0,0.0,0.0,0.0,0.0,0.0,0.0,1.9098,1.8998,1.9118,1.9172,1.9192,1.9319,1.9452,1.9455,1.9358,1.9648,2.0187,2.0638,2.0726,2.0702,2.0882,2.0922,2.0823,2.015,1.9998,2.0483,1.791,1.6457,1.5834,1.4088,1.2906,1.2107,1.1818,1.13,1.1073,1.0711,1.0673,1.0636,1.0545,1.0565,1.073,1.068,1.0711,1.0721,1.0721,1.0721,1.0721,1.0721,1.0721,1.0721,1.0721,1.068,1.0737,1.0671,1.0575,1.0524,1.0431,1.0327,1.0375,1.0409,1.0466,1.0595,1.0571,1.0565,1.0481,1.0619,1.066,1.069,1.0588,1.0455,1.019,0.9791,0.9389,0.9256,0.8851,0.8581,0.8581,0.8584,0.8587,0.8587,0.8587,0.8587,0.8587,0.8587,0.856,0.8557,0.8546,0.8381,0.8204,0.7769,0.6197,0.0,0.0,0.0,0.0,0.0,0.0,0.0,0.0,0.0,0.0,0.0,0.0,0.0,0.0,0.0,0.0,0.0,0.0,0.0,0.0,0.0,0.0,0.0,0.0,0.0,0.0,0.0,0.0,0.0,0.0,1.9366,1.9366,1.9366,1.9366,1.9379,1.9439,1.9462,1.9391,1.9602,1.9933,2.0374,2.0916,2.1047,2.1069,2.1082,2.1076,2.1102,2.0982,2.0755,2.0412,2.0189,1.9977,1.9076,1.732,1.5524,1.3904,1.3475,1.2678,1.168,1.1208,1.1222,1.067,1.0558,1.0541,1.0541,1.0694,1.0721,1.0721,1.0721,1.0721,1.0721,1.0721,1.0721,1.0721,1.0707,1.067,1.0706,1.0692,1.0627,1.0711,1.0558,1.0477,1.0538,1.0555,1.0588,1.068,1.0673,1.0683,1.0694,1.07,1.0717,1.0721,1.0721,1.0588,1.0193,0.9927,0.9794,0.9661,0.9256,0.8848,0.8709,0.8581,0.8584,0.8587,0.8587,0.8587,0.8587,0.8587,0.8587,0.8579,0.8571,0.8576,0.8516,0.8424,0.6568,0.3429,0.0,0.1462,0.0,0.0,0.0,0.0,0.0,0.0,0.0,0.0,0.0,0.0,0.0,0.0,0.0,0.0,0.0,0.0,0.0,0.0,0.0,0.0,0.0,0.0,0.0,0.0,0.0,0.0,0.0,1.9366,1.9366,1.9372,1.9386,1.9406,1.9659,1.9648,1.9502,1.9967,2.0374,2.0936,2.1067,2.1062,2.1102,2.1102,2.1102,2.1102,2.0736,2.0755,2.0768,2.052,2.0546,2.0317,1.9755,1.8495,1.5839,1.5174,1.4153,1.3151,1.2731,1.1907,1.0675,1.067,1.0484,1.0481,1.0677,1.0714,1.0721,1.0721,1.0721,1.0721,1.0721,1.0721,1.0721,1.0721,1.0714,1.0704,1.0687,1.067,1.0767,1.0626,1.0626,1.0653,1.0663,1.0694,1.0707,1.0721,1.0721,1.0721,1.0721,1.0721,1.0721,1.0721,1.0588,1.0323,1.019,1.0057,0.9794,0.9658,0.9386,0.8981,0.8576,0.8581,0.8584,0.8587,0.8587,0.8587,0.8587,0.8587,0.8587,0.8587,0.8587,0.8587,0.8497,0.8486,0.5588,0.5199,0.4681,0.1472,0.0,0.0,0.0,0.0,0.0,0.0,0.0,0.0,0.0,0.0,0.0,0.0,0.0,0.0,0.0,0.0,0.0,0.0,0.0,0.0,0.0,0.0,0.0,0.0,0.0,0.0,1.9472,1.9633,1.9633,1.9633,1.9653,1.994,2.0026,1.9922,2.0176,2.0531,2.1081,2.1062,2.1102,2.1102,2.1102,2.1102,2.1102,2.0982,2.0982,2.1062,2.0876,2.0664,2.0783,2.0328,1.9275,1.7354,1.6729,1.5819,1.4535,1.3994,1.3227,1.2196,1.1083,1.0683,1.068,1.068,1.0707,1.0721,1.0721,1.0721,1.0721,1.0721,1.0721,1.0721,1.0721,1.0721,1.0717,1.0717,1.0717,1.0721,1.0721,1.0721,1.0721,1.0721,1.0721,1.0721,1.0721,1.0721,1.0721,1.0721,1.0721,1.0721,1.0717,1.0585,1.0455,1.0455,1.0455,1.0323,1.0329,1.006,0.9937,0.912,0.8576,0.8584,0.8587,0.8587,0.8587,0.8587,0.8587,0.8587,0.8587,0.8587,0.8587,0.8579,0.8587,0.82,0.8076,0.7404,0.4166,0.1478,0.0,0.0,0.0,0.0,0.0,0.0,0.0,0.0,0.0,0.0,0.0,0.0,0.0,0.0,0.0,0.0,0.0,0.0,0.0,0.0,0.0,0.0,0.0,0.0,0.0,1.9613,1.9813,1.9987,2.0007,1.9973,2.0241,2.0338,2.0244,2.0349,2.0625,2.1102,2.1102,2.1102,2.1089,2.0995,2.0969,2.0915,2.0862,2.0973,2.1031,2.1046,2.0738,2.0438,2.0048,1.9572,1.8452,1.7725,1.6816,1.4484,1.47,1.3349,1.1991,1.1244,1.0846,1.0714,1.0721,1.0721,1.0721,1.0721,1.0721,1.0721,1.0721,1.0721,1.0721,1.0721,1.0721,1.0721,1.0721,1.0721,1.0721,1.0721,1.0721,1.0721,1.0721,1.0721,1.0721,1.0721,1.0721,1.0721,1.0721,1.0721,1.0721,1.0721,1.0721,1.0721,1.0721,1.0588,1.0721,1.0727,1.0738,1.0615,0.9658,0.8842,0.8848,0.8853,0.8853,0.872,0.8587,0.8587,0.8587,0.859,0.8592,0.8592,0.8595,0.8611,0.8619,0.848,0.8076,0.6723,0.4298,0.0,0.0,0.0,0.0,0.0,0.0,0.0,0.0,0.0,0.0,0.0,0.0,0.0,0.0,0.0,0.0,0.0,0.0,0.0,0.0,0.0,0.0,0.0,0.0,0.0,1.98,1.9873,2.0408,2.0474,2.0294,2.0548,2.0538,2.0335,2.081,2.1056,2.1056,2.1062,2.1042,2.0982,2.0762,2.0688,2.0635,2.0448,2.0496,2.091,2.093,2.059,2.0405,2.0048,1.9924,1.8943,1.823,1.6705,1.4143,1.4132,1.2919,1.1626,1.0982,1.0721,1.0721,1.0721,1.0721,1.0721,1.0721,1.0721,1.0721,1.0721,1.0721,1.0721,1.0721,1.0721,1.0721,1.0721,1.0721,1.0721,1.0721,1.0721,1.0721,1.0721,1.0721,1.0721,1.0721,1.0721,1.0721,1.0721,1.0721,1.0721,1.0721,1.0721,1.0721,1.0721,1.0721,1.0721,1.0721,1.0727,1.0462,1.0057,0.9383,0.8981,0.912,0.8876,0.8745,0.863,0.8641,0.869,0.8641,0.86,0.86,0.8606,0.8622,0.8628,0.8617,0.8349,0.7823,0.6909,0.4887,0.0,0.0,0.0,0.0,0.0,0.0,0.0,0.0,0.0,0.0,0.0,0.0,0.0,0.0,0.0,0.0,0.0,0.0,0.0,0.0,0.0,0.0,0.0,0.0,2.0027,2.0394,2.0595,2.0728,2.0815,2.0915,2.0955,2.0843,2.1042,2.0863,2.0565,2.0684,2.0688,2.0541,2.0461,2.0381,2.0347,2.0341,2.0382,2.0497,2.049,2.0422,2.0381,2.0481,2.0418,1.9773,1.889,1.7868,1.6615,1.5005,1.3587,1.2421,1.0982,1.0717,1.0721,1.0721,1.0721,1.0721,1.0721,1.0721,1.0721,1.0721,1.0721,1.0721,1.0721,1.0721,1.0721,1.0721,1.0721,1.0721,1.0721,1.0721,1.0721,1.0721,1.0721,1.0721,1.0721,1.0721,1.0721,1.0721,1.0721,1.0721,1.0721,1.0721,1.0721,1.0721,1.0721,1.0721,1.0721,1.0727,1.0598,1.0193,0.9655,0.9389,0.9273,0.9055,0.8811,0.8844,0.8739,0.8826,0.8831,0.8668,0.8657,0.8753,0.8747,0.8758,0.8764,0.8731,0.8324,0.8407,0.7341,0.5537,0.0,0.0,0.0,0.0,0.0,0.0,0.0,0.0,0.0,0.0,0.0,0.0,0.0,0.0,0.0,0.0,0.0,0.0,0.0,0.0,0.0,0.0,0.0,2.0327,2.0675,2.0788,2.0929,2.1089,2.1102,2.1102,2.1102,2.1096,2.0797,2.0433,2.0531,2.0521,2.0294,2.0134,2.008,2.0074,1.996,1.9913,1.9927,1.994,2.0221,2.0611,2.0829,2.04,1.9987,1.9047,1.7862,1.6684,1.5409,1.3591,1.2029,1.1244,1.085,1.0721,1.0721,1.0721,1.0721,1.0721,1.0721,1.0721,1.0721,1.0721,1.0721,1.0721,1.0721,1.0721,1.0721,1.0721,1.0721,1.0721,1.0721,1.0721,1.0721,1.0721,1.0721,1.0721,1.0721,1.0721,1.0721,1.0721,1.0721,1.0721,1.0721,1.0721,1.0721,1.0721,1.0721,1.0721,1.0731,1.0605,1.0332,1.0264,1.0002,0.9786,0.9573,0.9203,0.924,0.8988,0.9079,0.8973,0.8826,0.8826,0.8938,0.8899,0.9049,0.906,0.8883,0.8851,0.8785,0.8858,0.7443,0.5764,0.0,0.0,0.0,0.0,0.0,0.0,0.0,0.0,0.0,0.0,0.0,0.0,0.0,0.0,0.0,0.0,0.0,0.0,0.0,0.0,0.0,0.0,2.0681,2.0735,2.0989,2.1096,2.1102,2.1102,2.1102,2.1102,2.1102,2.079,2.023,2.0484,2.0408,2.014,1.9893,1.982,1.9826,1.9599,1.9581,1.9589,1.9633,2.0274,2.0794,2.097,2.0585,1.9586,1.8622,1.7808,1.6063,1.4381,1.2684,1.1237,1.0846,1.0717,1.0721,1.0721,1.0721,1.0721,1.0721,1.0721,1.0721,1.0721,1.0721,1.0721,1.0721,1.0721,1.0721,1.0721,1.0721,1.0721,1.0721,1.0721,1.0721,1.0721,1.0721,1.0721,1.0721,1.0721,1.0721,1.0721,1.0721,1.0724,1.0744,1.0731,1.0721,1.0721,1.0721,1.0738,1.0748,1.0748,1.0615,1.0853,1.0955,1.073,1.0649,1.0285,0.9908,0.9654,0.9527,0.9282,0.9016,0.9024,0.9038,0.9024,0.9046,0.9203,0.9209,0.9063,0.903,0.9011,0.9068,0.9073,0.7387,0.5992,0.0,0.0,0.0,0.0,0.0,0.0,0.0,0.0,0.0,0.0,0.0,0.0,0.0,0.0,0.0,0.0,0.0,0.0,0.0,0.0,0.0,2.0788,2.0989,2.1076,2.1102,2.1102,2.1102,2.1102,2.1102,2.1096,2.071,2.0225,2.0232,2.0127,1.9619,1.9526,1.9639,1.9706,1.976,1.9628,1.9647,1.9722,2.0358,2.0832,2.102,2.0763,2.017,1.917,1.8262,1.6969,1.4768,1.2393,1.0927,1.0697,1.0711,1.0717,1.0721,1.0721,1.0721,1.0721,1.0721,1.0721,1.0721,1.0721,1.0721,1.0721,1.0721,1.0721,1.0721,1.0721,1.0721,1.0721,1.0721,1.0721,1.0721,1.0721,1.0721,1.0721,1.0721,1.0721,1.0721,1.0727,1.0758,1.0812,1.0799,1.0765,1.0748,1.0755,1.0795,1.0846,1.087,1.0914,1.1002,1.1224,1.1145,1.0928,1.056,1.0177,0.9924,0.9657,0.9411,0.9141,0.9139,0.9147,0.9163,0.9185,0.935,0.9355,0.9201,0.9188,0.9158,0.9147,0.9155,0.8892,0.7489,0.5779,0.0,0.0,0.0,0.0,0.0,0.0,0.0,0.0,0.0,0.0,0.0,0.0,0.0,0.0,0.0,0.0,0.0,0.0,0.0,0.0,2.0949,2.1096,2.1102,2.1102,2.1102,2.1102,2.1102,2.1102,2.1102,2.0782,2.0267,2.0241,1.9913,1.9479,1.9512,1.9653,1.98,1.9947,1.9866,1.9852,2.0061,2.0584,2.0889,2.1148,2.1076,2.0589,2.0075,1.9304,1.8267,1.6183,1.3822,1.0778,1.068,1.07,1.0711,1.0721,1.0721,1.0721,1.0721,1.0721,1.0721,1.0721,1.0721,1.0721,1.0721,1.0721,1.0721,1.0721,1.0721,1.0721,1.0721,1.0721,1.0721,1.0721,1.0721,1.0721,1.0721,1.0721,1.0721,1.0721,1.0751,1.0816,1.09,1.0924,1.0934,1.0938,1.0934,1.0948,1.0995,1.1043,1.1094,1.1151,1.1348,1.1549,1.1051,1.0687,1.03,1.0048,0.9661,0.9421,0.9288,0.9283,0.9291,0.9304,0.9299,0.9277,0.9269,0.9264,0.9261,0.925,0.9242,0.9245,0.9269,0.8719,0.7133,0.5386,0.0,0.0,0.0,0.0,0.0,0.0,0.0,0.0,0.0,0.0,0.0,0.0,0.0,0.0,0.0,0.0,0.0,0.0,0.0,2.1102,2.1102,2.1102,2.1102,2.1102,2.1102,2.1102,2.1096,2.1069,2.0755,2.0294,2.0194,1.9893,1.9553,1.9646,1.9826,2.002,2.0201,2.0345,2.0303,2.0414,2.0691,2.0956,2.1142,2.1036,2.1009,2.0729,2.0214,1.9826,1.8011,1.5005,1.1439,1.0785,1.0704,1.0658,1.0758,1.0775,1.0833,1.0768,1.0721,1.0721,1.0721,1.0721,1.0721,1.0721,1.0721,1.0721,1.0721,1.0721,1.0721,1.0721,1.0721,1.0721,1.0721,1.0721,1.0758,1.0772,1.0802,1.0819,1.0833,1.0877,1.0931,1.0982,1.107,1.1118,1.108,1.106,1.108,1.1121,1.1168,1.108,1.126,1.1454,1.1461,1.1204,1.0693,1.0454,1.0072,0.956,0.9304,0.9304,0.9304,0.9304,0.9304,0.9304,0.9304,0.9304,0.9304,0.9304,0.9304,0.9304,0.9304,0.9307,0.9315,0.8594,0.6841,0.4654,0.0,0.0,0.0,0.0,0.0,0.0,0.0,0.0,0.0,0.0,0.0,0.0,0.0,0.0,0.0,0.0,0.0,0.0,2.1102,2.1102,2.1102,2.1102,2.1102,2.1102,2.1096,2.1089,2.1139,2.0711,2.0247,2.0013,1.9846,1.972,1.9806,2.0034,2.0428,2.0581,2.0743,2.0749,2.0873,2.1021,2.114,2.1288,2.1195,2.1036,2.0982,2.0928,2.031,1.8869,1.7753,1.6429,1.4117,1.1736,1.1635,1.1443,1.0873,1.0972,1.0856,1.0778,1.0765,1.0734,1.0721,1.0731,1.0738,1.0751,1.0751,1.0741,1.0731,1.0721,1.0721,1.0721,1.0721,1.0724,1.0785,1.0867,1.0759,1.0799,1.0985,1.1006,1.104,1.1114,1.1185,1.1274,1.129,1.1212,1.1185,1.1212,1.125,1.1301,1.1328,1.1365,1.1375,1.1214,1.1194,1.0825,1.0448,0.9944,0.9432,0.9441,0.9296,0.9304,0.9304,0.9304,0.9304,0.9304,0.9304,0.9304,0.9304,0.9304,0.9304,0.9304,0.9304,0.9165,0.8881,0.8449,0.6545,0.4946,0.0,0.0,0.0,0.0,0.0,0.0,0.0,0.0,0.0,0.0,0.0,0.0,0.0,0.0,0.0,0.0,0.0,2.1102,2.1102,2.1102,2.1102,2.1082,2.1115,2.1061,2.1118,2.1033,2.0699,2.0234,2.0074,2.0059,1.9927,2.0054,2.0381,2.0842,2.1015,2.1034,2.1182,2.1443,2.1724,2.1737,2.1593,2.1527,2.1381,2.1503,2.1265,2.0812,2.0352,1.968,1.9146,1.5805,1.4513,1.4459,1.2978,1.1016,1.1138,1.0975,1.0924,1.0894,1.0863,1.0877,1.088,1.0772,1.0766,1.0772,1.0769,1.0735,1.0709,1.0829,1.0829,1.0856,1.0907,1.0965,1.1016,1.105,1.094,1.1145,1.132,1.132,1.1226,1.1304,1.1358,1.127,1.1212,1.1355,1.1389,1.144,1.1491,1.1392,1.1533,1.1178,1.0991,1.0971,1.0709,1.0345,0.9703,0.9467,0.9209,0.9239,0.9304,0.9304,0.9304,0.9304,0.9304,0.9304,0.9304,0.9304,0.9304,0.9304,0.9304,0.9304,0.9304,0.9165,0.9171,0.8734,0.7276,0.5823,0.0,0.0,0.0,0.0,0.0,0.0,0.0,0.0,0.0,0.0,0.0,0.0,0.0,0.0,0.0,0.0,2.1102,2.1102,2.1102,2.1082,2.1029,2.1071,2.1101,2.1005,2.0939,2.0602,2.0321,2.0625,2.0429,2.0194,2.0454,2.0828,2.1162,2.141,2.1443,2.1516,2.174,2.2051,2.2335,2.2335,2.1964,2.1773,2.1877,2.1759,2.149,2.1101,2.0869,2.0379,2.0215,2.0152,1.872,1.5261,1.1424,1.1344,1.1168,1.1179,1.1131,1.1063,1.1063,1.0973,1.1017,1.0734,1.0731,1.0852,1.0796,1.0893,1.0975,1.0972,1.0992,1.105,1.1128,1.1175,1.1192,1.1219,1.1257,1.1427,1.1389,1.1392,1.1341,1.1331,1.124,1.1267,1.1406,1.146,1.1511,1.1501,1.154,1.1451,1.1087,1.0889,1.0731,1.0721,1.0228,0.9733,0.9499,0.9253,0.9325,0.9399,0.9275,0.9277,0.9299,0.9299,0.9302,0.9302,0.9304,0.9304,0.9304,0.9304,0.9304,0.9304,0.9307,0.931,0.9315,0.8881,0.7278,0.509,0.0,0.0,0.0,0.0,0.0,0.0,0.0,0.0,0.0,0.0,0.0,0.0,0.0,0.0,0.0,2.1102,2.1102,2.1102,2.0975,2.0906,2.0963,2.0812,2.0341,1.9902,1.9896,2.0451,2.1243,2.1341,2.0528,2.0848,2.1203,2.1543,2.1797,2.1905,2.1857,2.2031,2.2485,2.2646,2.2633,2.2344,2.227,2.2078,2.2011,2.2018,2.1972,2.1866,2.1565,2.0871,2.0458,1.9571,1.5737,1.2249,1.1884,1.1447,1.1563,1.1392,1.1307,1.1158,1.1158,1.1162,1.1158,1.1162,1.1303,1.1427,1.1413,1.1262,1.1124,1.1145,1.1185,1.126,1.1331,1.1345,1.1392,1.1426,1.143,1.1392,1.1284,1.1331,1.1277,1.1202,1.1148,1.1223,1.1209,1.1243,1.1399,1.1324,1.1245,1.1029,1.0733,1.0577,1.0577,1.02,1.0012,0.9808,0.9582,0.9501,0.9417,0.9308,0.9347,0.928,0.9285,0.9296,0.9299,0.9302,0.9304,0.9304,0.9304,0.9304,0.9304,0.9304,0.9304,0.931,0.9315,0.9029,0.7276,0.5091,0.2182,0.0,0.0,0.0,0.0,0.0,0.0,0.0,0.0,0.0,0.0,0.0,0.0,0.0]}]]